     2              OBSERVATION DATA    GPS                 RINEX VERSION / TYPE
ASRINEXO V2.9.7 UX USGS/MENLO_PARK 28-JAN- 0 15:03          PGM / RUN BY / DATE
                                                            COMMENT
Original Marker Name: law1 LAPW1_USGS                       COMMENT
Campaign Name: Hector mine                                  COMMENT
4-Character Station Name: LAW1                              COMMENT
6-Character Antenna Code: DMRCHT                            COMMENT
Vertical Measurement Point: BCR                             COMMENT
Vertical Offset to Rinex Ref. Point: 0.0348                 COMMENT
Radial Measurement Point: ECF                               COMMENT
Radial Offset to Rinex Ref. Point: 0.1897                   COMMENT
Antenna Height from Field Measurement: 1.2040 m             COMMENT
Additional Antenna Identification Info.:                    COMMENT
Turborogue and Ashtech Choke Ring                           COMMENT
Original XYZ: -2354281.7808 -4703832.4086 3596685.1809      COMMENT
New XYZ position is based on association with SCEC monument COMMENT
E1F2J6T9+0011. Position of that monument is believed to be  COMMENT
valid to within 1 m horizontally; vertical accuracy         COMMENT
should be no worse than 3-times this value.                 COMMENT
                                                            COMMENT
Revised Rinex header created by UCSD GPS archive for        COMMENT
GSAC on 04-Apr-2000 (2000:095) 23:09:39 GMT                 COMMENT
For assistance contact dagnew@ucsd.edu or hjohnson@ucsd.edu COMMENT
                                                            COMMENT
LAPW1                                                       MARKER NAME
CHS US GEOLOGICAL SURVEY                                    OBSERVER / AGENCY
582 ASHTECH Z-XII3 CC00                                     REC # / TYPE / VERS
801 DORNE-MARGOL. TYPE T                                    ANT # / TYPE
 -2354302.4751 -4703862.2615  3596685.1766                  APPROX POSITION XYZ
        1.1542        0.0000        0.0000                  ANTENNA: DELTA H/E/N
     1     1     0                                          WAVELENGTH FACT L1/2
     5    C1    L1    L2    P1    P2                        # / TYPES OF OBSERV
    30                                                      INTERVAL
  2000     1    23     0     1    0.000000                  TIME OF FIRST OBS
  2000     1    23    20    49    0.000000                  TIME OF LAST OBS
                                                            END OF HEADER
 00  1 23  0  1  0.0000000  0  8 24 08 07 16 02 04 09 05
  20838758.051   -23830302.226 9 -18547259.90047  20838757.978    20838768.6434
  24200306.493    -5303536.940 8  -3761644.44245  24200305.927    24200322.1764
  22876793.798   -12895583.434 8 -10036678.86246  22876793.216    22876806.3984
  24319526.466    -3063057.142 7  -2273847.81145  24319525.734    24319544.2634
  23720315.512   -10730000.491 8  -8347281.82045  23720314.977    23720331.1074
  20388553.216   -26666111.106 9 -20522675.88348  20388553.388    20388562.4724
  21242072.398   -20502392.251 9 -15938549.03247  21242072.250    21242082.2934
  22111024.054   -17005489.716 8 -13041974.85147  22111023.537    22111036.0404
 00  1 23  0  1 30.0000000  0  8 24 08 07 16 02 04 09 05
  20827589.745   -23888991.972 9 -18592992.08047  20827589.650    20827600.2614
  24222436.619    -5187243.022 7  -3671025.94845  24222436.007    24222452.2974
  22889193.181   -12830424.120 8  -9985905.43246  22889192.611    22889205.8194
  24317129.603    -3075649.064 7  -2283659.35645  24317128.943    24317147.8004
  23735859.349   -10648317.766 8  -8283633.09445  23735858.786    23735875.0144
  20392888.347   -26643329.863 9 -20504924.27148  20392888.537    20392897.5924
  21246352.837   -20479897.894 9 -15921020.95147  21246352.696    21246362.7834
  22096346.795   -17082618.310 8 -13102074.91147  22096346.308    22096358.7764
 00  1 23  0  2  0.0000000  0  8 24 08 07 16 02 04 09 05
  20816513.912   -23947195.328 9 -18638345.24947  20816513.817    20816524.3924
  24244572.815    -5070916.414 8  -3580381.98245  24244572.311    24244588.6574
  22901600.470   -12765223.817 8  -9935100.04246  22901599.882    22901613.1104
  24314832.524    -3087718.947 7  -2293064.15245  24314831.812    24314850.8224
  23751447.562   -10566401.053 7  -8219801.99945  23751447.055    23751463.3024
  20397338.590   -26619943.718 9 -20486701.30348  20397338.766    20397347.8244
  21250745.265   -20456815.401 9 -15903034.57647  21250745.155    21250755.2384
  22081695.606   -17159610.345 8 -13162068.55547  22081695.111    22081707.5304
 00  1 23  0  2 30.0000000  0  8 24 08 07 16 02 04 09 05
  20805533.217   -24004898.883 9 -18683308.96447  20805533.139    20805543.6954
  24266712.426    -4954572.433 7  -3489724.46845  24266712.015    24266728.3724
  22914016.526   -12699977.194 8  -9884258.58546  22914015.947    22914029.2274
  24312635.141    -3099265.871 7  -2302061.47145  24312634.395    24312653.1104
  23767082.236   -10484240.256 8  -8155780.73445  23767081.821    23767098.0294
  20401901.866   -26595963.536 9 -20468015.44648  20401902.047    20401911.0764
  21255249.367   -20433146.277 9 -15884591.08947  21255249.257    21255259.3044
  22067073.573   -17236448.920 8 -13221942.62847  22067073.083    22067085.4444
 00  1 23  0  3  0.0000000  0  8 24 08 07 16 02 04 09 05
  20794649.212   -24062094.230 9 -18727876.66847  20794649.114    20794659.6674
  24288852.410    -4838226.613 7  -3399065.52245  24288852.018    24288868.5144
  22926439.691   -12634693.046 8  -9833387.86646  22926439.106    22926452.5374
  24310536.022    -3110294.900 7  -2310655.20945  24310535.188    24310553.8214
  23782765.239   -10401826.378 7  -8091562.23445  23782764.735    23782781.0384
  20406573.245   -26571415.388 9 -20448887.01148  20406573.413    20406582.4384
  21259862.291   -20408905.210 9 -15865701.93047  21259862.154    21259872.2104
  22052482.453   -17313125.345 8 -13281690.35347  22052481.955    22052494.2424
 00  1 23  0  3 30.0000000  0  8 24 08 07 16 02 04 09 05
  20783858.119   -24118801.330 9 -18772063.92947  20783858.025    20783868.5864
  24310991.053    -4721887.737 8  -3308412.00845  24310990.671    24311007.3274
  22938869.452   -12569374.513 8  -9782490.34946  22938868.862    22938882.3034
  24308534.086    -3120813.012 7  -2318850.85845  24308533.313    24308551.8984
  23798497.448   -10319153.452 7  -8027141.90145  23798496.943    23798513.2844
  20411350.306   -26546311.623 9 -20429325.62748  20411350.486    20411359.5034
  21264579.414   -20384116.370 9 -15846385.94047  21264579.308    21264589.3314
  22037921.680   -17389642.308 8 -13341313.82447  22037921.185    22037933.3894
 00  1 23  0  4  0.0000000  0  8 24 08 07 16 02 04 09 05
  20773157.270   -24175034.374 9 -18815881.79447  20773157.163    20773167.7164
  24333126.200    -4605567.101 8  -3217772.69645  24333125.868    24333142.6174
  22951308.494   -12504006.589 8  -9731554.34846  22951307.940    22951321.4704
  24306626.842    -3130834.035 7  -2326659.19945  24306626.053    24306644.7824
  23814278.196   -10236226.151 8  -7962523.34945  23814277.638    23814293.9854
  20416233.970   -26520647.734 9 -20409327.77548  20416234.145    20416243.1584
  21269396.126   -20358804.350 9 -15826662.27447  21269396.014    21269406.0384
  22023390.438   -17466004.082 8 -13400816.36347  22023389.915    22023402.0834
 00  1 23  0  4 30.0000000  0  8 24 08 07 16 02 04 09 05
  20762546.565   -24230793.510 9 -18859330.37747  20762546.439    20762556.9764
  24355257.563    -4489266.781 7  -3127149.20145  24355257.286    24355274.0034
  22963759.231   -12438577.837 8  -9680570.90446  22963758.710    22963772.1464
  24304812.878    -3140365.667 7  -2334086.21645  24304812.288    24304830.7164
  23830107.650   -10153043.103 8  -7897705.49745  23830107.010    23830123.3144
  20421221.169   -26494439.834 9 -20388906.01348  20421221.343    20421230.3614
  21274311.553   -20332973.547 9 -15806534.35947  21274311.451    21274321.4484
  22008888.490   -17542211.694 8 -13460198.77447  22008887.984    22008900.0984
 00  1 23  0  5  0.0000000  0  8 24 08 07 16 02 04 09 05
  20752022.952   -24286094.740 9 -18902422.15947  20752022.844    20752033.3724
  24377385.246    -4372986.139 8  -3036541.05245  24377384.977    24377401.6364
  22976219.262   -12373100.039 8  -9629549.26346  22976218.695    22976232.1934
  24303093.466    -3149400.698 7  -2341126.26645  24303092.959    24303111.0744
  23845983.485   -10069615.183 8  -7832696.84945  23845982.899    23845999.1934
  20426313.052   -26467681.795 9 -20368055.57148  20426313.218    20426322.2364
  21279324.377   -20306631.144 9 -15786007.79447  21279324.250    21279334.2294
  21994413.077   -17618279.549 8 -13519472.28447  21994412.605    21994424.6974
 00  1 23  0  5 30.0000000  0  8 24 08 07 16 02 04 09 05
  20741588.060   -24340930.230 9 -18945151.02147  20741587.958    20741598.4784
  24399508.559    -4256727.695 7  -2945950.19145  24399508.253    24399524.9544
  22988689.308   -12307569.864 8  -9578486.77946  22988688.742    22988702.2004
  24301468.850    -3157938.410 7  -2347778.83145  24301468.204    24301485.9874
  23861901.145    -9985967.177 8  -7767516.68745  23861900.619    23861916.9874
  20431513.088   -26440355.297 9 -20346762.17248  20431513.258    20431522.2894
  21284435.854   -20279770.012 9 -15765077.02447  21284435.722    21284445.6944
  21979965.837   -17694199.932 8 -13578630.87947  21979965.337    21979977.4014
 00  1 23  0  6  0.0000000  0  8 24 08 07 16 02 04 09 05
  20731246.723   -24395273.939 9 -18987496.67747  20731246.607    20731257.1204
  24421627.770    -4140490.279 7  -2855375.71445  24421627.569    24421644.3834
  23001169.695   -12241985.317 8  -9527381.94846  23001169.122    23001182.5574
  24299938.812    -3165978.803 7  -2354043.89845  24299938.073    24299955.4284
  23877860.624    -9902099.939 8  -7702165.70545  23877860.141    23877876.5844
  20436821.643   -26412458.437 9 -20325024.33948  20436821.823    20436830.8644
  21289651.590   -20252361.315 9 -15743719.58047  21289651.431    21289661.3914
  21965547.007   -17769970.582 9 -13637672.80047  21965546.549    21965558.5814
 00  1 23  0  6 30.0000000  0  8 24 08 07 16 02 04 09 05
  20721002.555   -24449107.036 9 -19029444.45347  20721002.449    20721012.9344
  24443742.665    -4024275.845 7  -2764819.16345  24443742.439    24443759.3534
  23013657.249   -12176362.977 8  -9476247.65546  23013656.717    23013670.1354
  24298505.193    -3173512.758 8  -2359914.30845  24298504.484    24298521.5504
  23893863.813    -9818002.576 8  -7636635.38545  23893863.322    23893879.6584
  20442239.503   -26383987.245 9 -20302838.97948  20442239.682    20442248.7234
  21294974.267   -20224390.398 9 -15721924.04547  21294974.116    21294984.0644
  21951158.474   -17845582.402 9 -13696590.95147  21951158.020    21951170.0114
 00  1 23  0  7  0.0000000  0  8 24 08 07 16 02 04 09 05
  20710855.673   -24502428.990 9 -19070993.93547  20710855.553    20710866.0004
  24465853.096    -3908085.624 7  -2674281.43945  24465852.822    24465869.6524
  23026152.686   -12110698.811 8  -9425080.76246  23026152.116    23026165.5714
  24297169.374    -3180534.294 8  -2365385.46145  24297168.740    24297185.5694
  23909912.492    -9733666.811 8  -7570919.34245  23909911.963    23909928.3394
  20447769.377   -26354927.358 9 -20280194.90048  20447769.564    20447778.5994
  21300405.717   -20195847.740 9 -15699682.99947  21300405.566    21300415.5384
  21936802.916   -17921020.793 8 -13755373.95947  21936802.468    21936814.4044
 00  1 23  0  7 30.0000000  0  8 24 08 07 16 02 04 09 05
  20700807.827   -24555230.511 9 -19112137.88647  20700807.709    20700818.1214
  24487959.394    -3791916.397 7  -2583760.13245  24487959.139    24487976.0004
  23038657.079   -12044987.461 8  -9373877.08446  23038656.559    23038669.9664
  24295929.806    -3187049.254 8  -2370461.86845  24295929.208    24295945.9904
  23926008.662    -9649081.700 7  -7505008.90645  23926008.090    23926024.4734
  20453409.699   -26325287.321 9 -20257098.76148  20453409.879    20453418.8904
  21305945.989   -20166733.148 9 -15676996.28847  21305945.841    21305955.8504
  21922482.017   -17996277.187 9 -13814015.15447  21922481.572    21922493.4354
 00  1 23  0  8  0.0000000  0  8 24 08 07 16 02 04 09 05
  20690858.767   -24607512.876 9 -19152877.29947  20690858.637    20690869.0254
  24510063.016    -3675761.900 7  -2493250.24845  24510062.558    24510079.6474
  23051169.594   -11979233.577 8  -9322640.26646  23051169.068    23051182.4954
  24294786.167    -3193058.376 7  -2375144.11445  24294785.521    24294802.6384
  23942156.363    -9564225.446 8  -7438887.29345  23942155.750    23942172.2884
  20459157.612   -26295081.951 9 -20233562.11248  20459157.790    20459166.7934
  21311591.327   -20137066.530 9 -15653879.42647  21311591.182    21311601.2024
  21908195.879   -18071350.964 9 -13872514.04047  21908195.412    21908207.2394
 00  1 23  0  8 30.0000000  0  8 24 08 07 16 02 04 09 05
  20681005.858   -24659289.851 9 -19193222.90547  20681005.718    20681016.1014
  24532166.611    -3559608.076 7  -2402740.94145  24532165.935    24532183.1874
  23063690.523   -11913435.746 8  -9271369.21646  23063689.960    23063703.3744
  24293740.302    -3198550.985 7  -2379423.91345  24293739.665    24293756.9934
  23958353.786    -9479107.737 7  -7372561.89345  23958353.127    23958369.8694
  20465010.777   -26264323.378 9 -20209594.39648  20465010.948    20465019.9474
  21317336.085   -20106877.361 9 -15630355.38247  21317335.955    21317345.9914
  21893945.534   -18146236.390 9 -13930866.15847  21893945.078    21893956.8644
 00  1 23  0  9  0.0000000  0  8 24 08 07 16 02 04 09 05
  20671245.310   -24710581.484 9 -19233190.32147  20671245.185    20671255.5484
  24554269.006    -3443459.908 7  -2312236.01245  24554268.404    24554285.6534
  23076218.906   -11847598.795 8  -9220067.69046  23076218.326    23076231.7294
  24292793.095    -3203525.728 7  -2383300.15845  24292792.519    24292809.7604
  23974596.027    -9393754.974 7  -7306053.33245  23974595.472    23974611.9684
  20470966.127   -26233027.723 9 -20185208.17248  20470966.285    20470975.2814
  21323176.106   -20076187.673 9 -15606441.32347  21323175.972    21323186.0164
  21879728.100   -18220948.769 9 -13989083.43547  21879727.620    21879739.3824
 00  1 23  0  9 30.0000000  0  8 24 08 07 16 02 04 09 05
  20661579.454   -24761375.417 9 -19272769.91847  20661579.336    20661589.6754
  24576368.904    -3327324.269 7  -2221740.83745  24576368.354    24576385.7474
  23088751.108   -11781741.843 8  -9168750.59546  23088750.531    23088763.9524
  24291946.270    -3207976.960 8  -2386768.53745  24291945.636    24291962.3304
  23990880.006    -9308180.528 7  -7239372.04645  23990879.429    23990896.1754
  20477022.037   -26201203.655 9 -20160410.18848  20477022.193    20477031.2184
  21329109.569   -20045007.249 9 -15582144.86147  21329109.425    21329119.4384
  21865541.640   -18295498.598 9 -14047174.03947  21865541.161    21865552.8864
 00  1 23  0 10  0.0000000  0  7 24 07 16 02 04 09 05
  20652010.451   -24811660.475 9 -19311952.99747  20652010.361    20652020.6604
  23101289.985   -11715849.865 8  -9117406.21346  23101289.430    23101302.7004
  24291203.479    -3211880.744 7  -2389810.27245  24291202.791    24291219.4334
  24007205.287    -9222391.175 8  -7172523.30945  24007204.768    24007221.5204
  20483181.927   -26168833.148 9 -20135186.40948  20483182.088    20483191.1324
  21335141.438   -20013309.495 9 -15557445.29247  21335141.299    21335151.3184
  21851389.316   -18369868.874 9 -14105124.74147  21851388.849    21851400.5434
 00  1 23  0 10 30.0000000  0  7 24 07 16 02 04 09 05
  20642537.217   -24861442.242 9 -19350743.89547  20642537.129    20642547.4064
  23113835.180   -11649924.288 8  -9066035.62946  23113834.586    23113847.8424
  24290566.595    -3215224.614 7  -2392415.67945  24290565.993    24290583.2594
  24023568.164    -9136404.919 7  -7105521.10045  24023567.560    24023584.3564
  20489448.070   -26135904.216 9 -20109527.49548  20489448.230    20489457.2804
  21341277.252   -19981065.415 9 -15532320.01447  21341277.101    21341287.1364
  21837272.287   -18444053.954 9 -14162931.13647  21837271.792    21837283.4584
 00  1 23  0 11  0.0000000  0  7 24 07 16 02 04 09 05
  20633159.616   -24910721.630 9 -19389143.33347  20633159.511    20633169.7844
  23126383.442   -11583982.753 8  -9014652.59546  23126382.878    23126396.1284
  24290032.276    -3218031.138 7  -2394602.41845  24290031.572    24290049.0574
  24039966.952    -9050229.188 7  -7038371.31745  24039966.287    24039983.1764
  20495820.869   -26102414.866 9 -20083431.90048  20495821.028    20495830.0984
  21347518.268   -19948268.521 9 -15506763.97147  21347518.121    21347528.1594
  21823186.542   -18518074.421 9 -14220609.26547  21823186.033    21823197.6694
 00  1 23  0 11 30.0000000  0  7 24 07 16 02 04 09 05
  20623880.741   -24959482.154 9 -19427138.46247  20623880.635    20623890.8874
  23138937.229   -11518011.756 8  -8963246.62146  23138936.658    23138949.9704
  24289600.012    -3220304.018 8  -2396373.37745  24289599.310    24289616.2984
  24056405.491    -8963844.969 7  -6971058.96045  24056404.897    24056421.6234
  20502300.451   -26068364.381 9 -20056899.05548  20502300.603    20502309.6674
  21353868.215   -19914899.393 9 -15480762.03247  21353868.055    21353878.0864
  21809135.053   -18591914.984 9 -14278147.22247  21809134.531    21809146.1154
 00  1 23  0 12  0.0000000  0  7 24 07 16 02 04 09 05
  20614697.793   -25007738.440 9 -19464740.67647  20614697.712    20614707.9404
  23151497.464   -11452006.878 8  -8911814.22946  23151496.892    23151510.2834
  24289267.081    -3222054.305 7  -2397737.12145  24289266.261    24289283.0284
  24072885.308    -8877243.090 8  -6903577.06145  24072884.648    24072901.5344
  20508885.019   -26033761.859 9 -20029936.04848  20508885.194    20508894.2684
  21360324.712   -19880970.035 9 -15454323.54547  21360324.565    21360334.5854
  21795118.767   -18665570.253 9 -14335540.79547  21795118.264    21795129.8294
 00  1 23  0 12 30.0000000  0  7 24 07 16 02 04 09 05
  20605612.411   -25055482.166 9 -19501943.49647  20605612.322    20605622.5004
  23164062.592   -11385976.291 8  -8860361.82346  23164062.103    23164075.4724
  24289032.006    -3223287.812 7  -2398698.12245  24289031.254    24289048.0354
  24089411.481    -8790398.428 8  -6835905.95645  24089410.848    24089427.5644
  20515573.929   -25998611.304 9 -20002545.99248  20515574.114    20515583.2294
  21366884.149   -19846499.898 9 -15427463.67447  21366884.014    21366894.0424
  21781137.582   -18739041.216 9 -14392790.76347  21781137.083    21781148.6054
 00  1 23  0 13  0.0000000  0  7 24 07 16 02 04 09 05
  20596627.337   -25102698.769 9 -19538735.56947  20596627.252    20596637.4214
  23176632.633   -11319920.359 8  -8808889.66446  23176632.121    23176645.4574
  24288893.244    -3224017.188 8  -2399266.34645  24288892.689    24288908.9134
  24105988.077    -8703288.392 8  -6768028.05045  24105987.472    24106004.1754
  20522363.602   -25962931.310 9 -19974743.38348  20522363.783    20522372.8964
  21373541.170   -19811516.909 9 -15400204.17547  21373541.026    21373551.0604
  21767190.455   -18812333.359 9 -14449901.39647  21767189.928    21767201.4244
 00  1 23  0 13 30.0000000  0  7 24 07 16 02 04 09 05
  20587739.640   -25149403.466 9 -19575128.74747  20587739.545    20587749.7184
  23189206.131   -11253846.440 8  -8757403.49246  23189205.537    23189218.9734
  24288849.725    -3224244.876 7  -2399443.65245  24288849.041    24288864.9564
  24122614.413    -8615916.365 7  -6699946.04145  24122613.803    24122630.6844
  20529249.526   -25926745.662 9 -19946546.74348  20529249.706    20529258.8194
  21380292.404   -19776038.704 9 -15372558.79647  21380292.262    21380302.3224
  21753279.837   -18885433.345 9 -14506862.29147  21753279.338    21753290.7884
 00  1 23  0 14  0.0000000  0  7 24 07 16 02 04 09 05
  20578946.603   -25195610.924 9 -19611134.47047  20578946.502    20578956.6464
  23201780.565   -11187767.442 8  -8705913.35646  23201779.972    23201793.4474
  24288900.146    -3223977.561 7  -2399235.14045  24288899.435    24288915.8504
  24139289.751    -8528287.430 7  -6631663.76245  24139289.117    24139306.0614
  20536233.317   -25890045.580 9 -19917949.25048  20536233.491    20536242.6054
  21387134.094   -19740085.352 9 -15344543.17947  21387133.935    21387144.0004
  21739404.468   -18958348.247 9 -14563678.96247  21739403.974    21739415.3884
 00  1 23  0 14 30.0000000  0  7 24 07 16 02 04 09 05
  20570250.349   -25241309.707 9 -19646743.82147  20570250.252    20570260.3724
  23214358.430   -11121670.568 8  -8654409.28146  23214357.845    23214371.2184
  24289047.321    -3223204.718 7  -2398632.75145  24289046.703    24289063.0154
  24156011.898    -8440412.363 8  -6563189.75445  24156011.301    24156027.9974
  20543317.595   -25852817.463 9 -19888940.29548  20543317.767    20543326.8764
  21394068.833   -19703643.060 9 -15316146.56647  21394068.664    21394078.7114
  21725563.700   -19031081.395 9 -14620354.01147  21725563.206    21725574.5944
 00  1 23  0 15  0.0000000  0  7 24 07 16 02 04 09 05
  20561650.477   -25286502.041 9 -19681958.54247  20561650.366    20561660.4704
  23226944.079   -11055532.458 8  -8602873.08146  23226943.521    23226956.9284
  24289291.277    -3221920.948 7  -2397632.20145  24289290.477    24289307.1414
  24172779.094    -8352300.355 7  -6494531.06945  24172778.394    24172795.2824
  20550504.331   -25815050.754 9 -19859511.65948  20550504.512    20550513.6024
  21401099.446   -19666696.817 9 -15287357.26547  21401099.287    21401109.3044
  21711759.243   -19103623.767 9 -14676880.40247  21711758.763    21711770.1034
 00  1 23  0 15 30.0000000  0  7 24 07 16 02 04 09 05
  20553145.541   -25331195.126 9 -19716784.24747  20553145.434    20553155.5124
  23239539.532   -10989343.321 8  -8551297.13446  23239538.952    23239552.3534
  24289633.738    -3220116.022 7  -2396225.56245  24289633.087    24289650.1144
  24189588.573    -8263966.236 7  -6425699.33645  24189587.907    24189604.6904
  20557798.131   -25776721.391 9 -19829644.60248  20557798.332    20557807.4114
  21408229.194   -19629229.521 9 -15258161.95347  21408229.042    21408239.0774
  21697992.968   -19175965.447 9 -14733250.41447  21697992.503    21698003.8074
 00  1 23  0 16  0.0000000  0  7 24 07 16 02 04 09 05
  20544738.611   -25375373.359 9 -19751208.76848  20544738.514    20544748.5784
  23252148.043   -10923085.783 8  -8499667.86946  23252147.463    23252160.7194
  24290078.672    -3217780.021 7  -2394405.14045  24290078.127    24290094.8864
  24206439.466    -8175413.890 7  -6356697.62145  24206438.792    24206455.6224
  20565202.211   -25737812.468 9 -19799325.93148  20565202.427    20565211.4954
  21415461.368   -19591224.075 9 -15228547.29647  21415461.215    21415471.2174
  21684265.807   -19248101.639 9 -14789460.30147  21684265.346    21684276.6064
 00  1 23  0 16 30.0000000  0  7 24 07 16 02 04 09 05
  20536431.282   -25419028.168 9 -19785225.42948  20536431.195    20536441.2214
  23264770.427   -10856754.311 8  -8447981.01846  23264769.945    23264783.1904
  24290625.557    -3214905.860 7  -2392165.35845  24290624.882    24290641.9294
  24223329.763    -8086655.355 7  -6287535.12245  24223329.088    24223345.9014
  20572711.907   -25698348.843 9 -19768575.02548  20572712.098    20572721.1664
  21422798.408   -19552667.416 9 -15198503.13247  21422798.256    21422808.2744
  21670579.549   -19320023.229 9 -14845502.96947  21670579.070    21670590.2564
 00  1 23  0 17  0.0000000  0  7 24 07 16 02 04 09 05
  20528221.694   -25462169.712 9 -19818842.13348  20528221.598    20528231.6054
  23277403.157   -10790368.935 8  -8396252.15446  23277402.590    23277415.8564
  24291272.469    -3211503.686 7  -2389514.15545  24291271.892    24291289.0674
  24240258.873    -7997692.198 8  -6218213.14545  24240258.218    24240274.9774
  20580324.102   -25658346.587 9 -19737404.40948  20580324.278    20580333.3144
  21430237.803   -19513573.186 9 -15168040.07747  21430237.635    21430247.6334
  21656935.617   -19391722.128 9 -14901372.10847  21656935.146    21656946.2704
 00  1 23  0 17 30.0000000  0  7 24 07 16 02 04 09 05
  20520110.195   -25504795.651 9 -19852057.07347  20520110.104    20520120.0744
  23290041.622   -10723953.009 8  -8344499.51646  23290041.120    23290054.3234
  24292020.453    -3207572.655 7  -2386450.86745  24292019.954    24292036.9444
  24257225.305    -7908533.412 7  -6148738.80345  24257224.563    24257241.4894
  20588035.547   -25617822.507 9 -19705827.18348  20588035.729    20588044.7554
  21437777.512   -19473951.872 9 -15137166.30747  21437777.346    21437787.3104
  21643332.947   -19463204.363 9 -14957072.42147  21643332.443    21643343.5354
 00  1 23  0 18  0.0000000  0  7 24 07 16 02 04 09 05
  20512096.289   -25546908.644 9 -19884872.31048  20512096.191    20512106.1304
  23302683.753   -10657518.220 8  -8292732.16646  23302683.148    23302696.3964
  24292868.988    -3203113.738 8  -2382976.21745  24292868.637    24292885.2494
  24274228.846    -7819178.930 7  -6079111.95645  24274228.103    24274245.0624
  20595840.560   -25576806.905 9 -19673866.95148  20595840.726    20595849.7204
  21445415.311   -19433814.766 9 -15105890.62647  21445415.148    21445425.1194
  21629770.765   -19534473.455 9 -15012606.64947  21629770.252    21629781.3194
 00  1 23  0 18 30.0000000  0  7 24 07 16 02 04 09 05
  20504179.010   -25588514.098 9 -19917292.06348  20504178.902    20504188.8244
  23315325.926   -10591082.875 8  -8240964.40646  23315325.316    23315338.6284
  24293817.073    -3198133.064 8  -2379095.08045  24293816.660    24293832.6134
  24291268.766    -7729633.176 7  -6009336.15545  24291268.134    24291285.3014
  20603736.883   -25535311.402 9 -19641532.77348  20603737.060    20603746.0694
  21453146.368   -19393187.779 9 -15074233.21847  21453146.216    21453156.1674
  21616247.673   -19605537.181 9 -15067980.85147  21616247.164    21616258.2254
 00  1 23  0 19  0.0000000  0  7 24 07 16 02 04 09 05
  20496359.524   -25629605.626 9 -19949311.35948  20496359.406    20496369.2844
  23327968.577   -10524645.686 8  -8189195.19146  23327968.003    23327981.1734
  24294864.000    -3192631.353 8  -2374807.91945  24294863.506    24294879.4654
  24308347.041    -7639886.803 7  -5939403.91645  24308346.413    24308363.3554
  20611726.491   -25493325.593 9 -19608816.53448  20611726.659    20611735.6634
  21460969.313   -19352077.928 9 -15042199.55247  21460969.170    21460979.0954
  21602762.634   -19676400.933 9 -15123199.23047  21602762.159    21602773.1944
 00  1 23  0 19 30.0000000  0  7 24 07 16 02 04 09 05
  20488638.572   -25670179.260 9 -19980927.10048  20488638.461    20488648.3544
  23340612.778   -10458200.087 8  -8137419.46146  23340612.150    23340625.4104
  24296012.370    -3186596.874 7  -2370105.64745  24296011.871    24296027.6814
  24325464.238    -7549935.565 7  -5869312.03945  24325463.601    24325480.5404
  20619808.153   -25450855.933 9 -19575723.27748  20619808.334    20619817.3334
  21468885.644   -19310477.435 9 -15009783.57247  21468885.490    21468895.4044
  21589314.900   -19747068.802 9 -15178264.97147  21589314.419    21589325.4254
 00  1 23  0 20  0.0000000  0  7 24 07 16 02 04 09 05
  20481015.036   -25710241.137 9 -20012144.06648  20481014.899    20481024.7774
  23353259.586   -10391740.773 8  -8085633.01745  23353258.975    23353272.2124
  24297261.118    -3180033.110 7  -2364990.92645  24297260.697    24297276.6164
  24342620.006    -7459781.533 6                  24342619.147    24342636.1804
  20627980.713   -25407908.913 9 -19542258.03948  20627980.896    20627989.8924
  21476894.275   -19268391.905 9 -14976989.63547  21476894.136    21476903.9974
  21575903.837   -19817543.773 9 -15233180.38647  21575903.373    21575914.3924
 00  1 23  0 20 30.0000000  0  6 24 07 16 04 09 05
  20473491.024   -25749779.578 9 -20042953.16148  20473490.897    20473500.7524
  23365912.032   -10325252.034 8  -8033823.64445  23365911.476    23365924.5874
  24298614.115    -3172921.896 7  -2359449.62445  24298613.660    24298630.1194
  20636249.313   -25364456.853 9 -19508399.27148  20636249.512    20636258.4904
  21484997.678   -19225808.165 9 -14943807.49047  21484997.506    21485007.3794
  21562532.313   -19887810.946 9 -15287933.88447  21562531.860    21562542.8684
 00  1 23  0 21  0.0000000  0  6 24 07 16 04 09 05
  20466068.022   -25788787.222 9 -20073348.64248  20466067.916    20466077.7444
  23378573.064   -10258717.609 8  -7981978.66145  23378572.501    23378585.7274
  24300074.990    -3165245.572 7  -2353468.01345  24300074.549    24300090.8174
  20644617.649   -25320481.014 9 -19474132.35948  20644617.838    20644626.8174
  21493200.009   -19182704.236 9 -14910219.99547  21493199.847    21493209.7424
  21549202.442   -19957859.306 9 -15342516.87347  21549201.958    21549212.9574
 00  1 23  0 21 30.0000000  0  6 24 07 16 04 09 05
  20458731.728   -25827339.313 9 -20103389.15248  20458731.605    20458741.4074
  23391228.986   -10192210.124 8  -7930154.67545  23391228.369    23391241.7114
  24301630.624    -3157070.016 7  -2347097.37145  24301630.102    24301646.4854
  20653073.626   -25276044.530 9 -19439506.50848  20653073.815    20653082.7724
  21501488.594   -19139147.341 9 -14876279.54947  21501488.449    21501498.3444
  21535903.576   -20027744.552 9 -15396972.76447  21535903.115    21535914.0634
 00  1 23  0 22  0.0000000  0  6 24 07 16 04 09 05
  20451486.521   -25865412.922 9 -20133056.81948  20451486.391    20451496.1784
  23403885.928   -10125697.538 8  -7878326.68345  23403885.337    23403898.5404
  24303281.475    -3148393.478 7  -2340336.33945  24303280.918    24303297.4734
  20661623.125   -25231116.466 9 -19404497.59948  20661623.326    20661632.2904
  21509865.760   -19095125.032 9 -14841976.43547  21509865.610    21509875.5074
  21522642.095   -20097433.810 9 -15451275.93247  21522641.615    21522652.5154
 00  1 23  0 22 30.0000000  0  6 24 07 16 04 09 05
  20444338.806   -25902974.155 9 -20162325.23148  20444338.659    20444348.4484
  23416548.193   -10059156.876 8  -7826476.83245  23416547.601    23416560.8324
  24305031.674    -3139196.449 7  -2333169.73745  24305031.127    24305047.5364
  20670273.639   -25185657.804 9 -19369075.23948  20670273.817    20670282.7744
  21518334.083   -19050623.490 9 -14807299.89647  21518333.918    21518343.8244
  21509422.491   -20166902.809 9 -15505407.45847  21509422.017    21509432.8884
 00  1 23  0 23  0.0000000  0  6 24 07 16 04 09 05
  20437294.952   -25939989.502 9 -20191168.28448  20437294.805    20437304.5704
  23429220.561    -9992563.293 8  -7774585.72045  23429219.969    23429233.1814
  24306884.225    -3129460.802 7  -2325583.42245  24306883.705    24306899.8214
  20679028.856   -25139648.719 9 -19333223.97548  20679029.036    20679037.9994
  21526897.931   -19005619.867 9 -14772232.12147  21526897.789    21526907.7074
  21496249.462   -20236126.916 9 -15559348.16247  21496248.987    21496259.8114
 00  1 23  0 23 30.0000000  0  6 24 07 16 04 09 05
  20430358.900   -25976438.477 9 -20219570.00748  20430358.767    20430368.4864
  23441906.433    -9925898.526 8  -7722639.16945  23441905.806    23441919.0964
  24308839.927    -3119183.748 7  -2317575.25245  24308839.341    24308855.3464
  20687889.525   -25093085.387 9 -19296940.82848  20687889.722    20687898.6694
  21535558.220   -18960109.626 9 -14736769.57547  21535558.083    21535568.0294
  21483125.990   -20305090.725 9 -15613086.02847  21483125.522    21483136.2834
 00  1 23  0 24  0.0000000  0  6 24 07 16 04 09 05
  20423534.541   -26012300.192 9 -20247514.12748  20423534.401    20423544.1034
  23454606.859    -9859157.568 8  -7670633.21645  23454606.194    23454619.4154
  24310902.178    -3108345.104 8  -2309129.43645  24310901.652    24310917.7194
  20696857.431   -25045958.579 9 -19260218.61248  20696857.604    20696866.5584
  21544315.252   -18914091.067 9 -14700910.94347  21544315.121    21544325.0794
  21470051.616   -20373796.468 9 -15666622.81147  21470051.123    21470061.8614
 00  1 23  0 24 30.0000000  0  6 24 07 16 04 09 05
  20416823.674   -26047565.849 9 -20274993.78648  20416823.547    20416833.2024
  23467318.118    -9792360.081 8  -7618583.21545  23467317.443    23467330.5854
  24313078.780    -3096907.038 7  -2300216.62645  24313078.087    24313094.1314
  20705932.089   -24998270.822 9 -19223059.29548  20705932.262    20705941.1884
  21553170.451   -18867556.411 9 -14664650.15647  21553170.341    21553180.2824
  21457026.945   -20442241.053 9 -15719956.09347  21457026.450    21457037.1274
 00  1 23  0 25  0.0000000  0  6 24 07 16 04 09 05
  20410223.362   -26082250.532 9 -20302020.74348  20410223.217    20410232.8384
  23480038.464    -9725514.251 8  -7566495.56445  23480037.758    23480050.9774
  24315366.576    -3084884.192 8  -2290848.06945  24315366.142    24315381.8974
  20715107.413   -24950054.302 9 -19185487.94848  20715107.550    20715116.4494
  21562124.677   -18820501.700 9 -14627984.13147  21562124.542    21562134.4874
  21444052.795   -20510420.157 9 -15773082.50947  21444052.282    21444062.9334
 00  1 23  0 25 30.0000000  0  6 24 07 16 04 09 05
  20403729.010   -26116378.321 9 -20328613.75548  20403728.882    20403738.4804
  23492763.233    -9658644.895 8  -7514389.53845  23492762.618    23492775.7554
  24317763.296    -3072289.446 7  -2281033.88245  24317762.764    24317777.8244
  20724376.685   -24901343.731 9 -19147531.63348  20724376.843    20724385.7144
  21571174.543   -18772944.415 9 -14590926.49147  21571174.397    21571184.3534
  21431126.972   -20578345.148 9 -15826010.91747  21431126.450    21431137.0984
 00  1 23  0 26  0.0000000  0  6 24 07 16 04 09 05
  20397337.651   -26149964.911 9 -20354785.04948  20397337.507    20397347.0834
  23505488.785    -9591771.377 8  -7462280.28045  23505488.169    23505501.3824
  24320267.316    -3059130.033 7  -2270779.65645  24320266.860    24320281.9864
  20733734.778   -24852166.593 9 -19109211.76547  20733734.924    20733743.7884
  21580316.965   -18724900.484 9 -14553489.64847  21580316.838    21580326.8054
  21418248.278   -20646022.473 9 -15878746.34247  21418247.766    21418258.3934
 00  1 23  0 26 30.0000000  0  6 24 07 16 04 09 05
  20391044.347   -26183036.163 9 -20380554.78448  20391044.204    20391053.7444
  23518215.582    -9524892.073 8  -7410166.50445  23518214.909    23518228.1714
  24322869.976    -3045451.413 7  -2260120.86445  24322869.428    24322884.6024
  20743174.671   -24802559.472 9 -19070556.85247  20743174.809    20743183.6754
  21589549.708   -18676381.990 9 -14515683.00947  21589549.546    21589559.5194
  21405416.400   -20713453.687 9 -15931290.00447  21405415.879    21405426.4994
 00  1 23  0 27  0.0000000  0  7 24 07 16 04 09 05 30
  20384841.729   -26215630.863 9 -20405953.17648  20384841.618    20384851.1234
  23530940.937    -9458019.147 8  -7358057.71345  23530940.319    23530953.5744
  24325561.623    -3031306.163 7  -2249098.48645  24325561.124    24325576.4654
  20752689.702   -24752557.481 9 -19031594.24447  20752689.842    20752698.6924
  21598865.222   -18627428.168 9 -14477537.15047  21598865.097    21598875.0604
  21392624.915   -20780672.734 9 -15983668.34547  21392624.405    21392635.0164
  24554476.259    -2889984.246 8  -2231129.62645  24554476.360    24554494.1174
 00  1 23  0 27 30.0000000  0  7 24 07 16 04 09 05 30
  20378732.319   -26247735.678 9 -20430969.83948  20378732.227    20378741.7104
  23543667.740    -9391139.841 8  -7305943.94045  23543667.148    23543680.3714
  24328345.941    -3016674.419 7  -2237697.02745  24328345.477    24328360.3444
  20762284.446   -24702136.718 9 -18992305.32847  20762284.609    20762293.4484
  21608264.176   -18578036.240 9 -14439049.91647  21608264.050    21608273.9694
  21379874.278   -20847676.800 9 -16035879.17747  21379873.802    21379884.4184
  24535444.410    -2989996.672 7  -2309061.07545  24535444.576    24535462.1724
 00  1 23  0 28  0.0000000  0  7 24 07 16 04 09 05 30
  20372721.360   -26279323.253 9 -20455583.45748  20372721.259    20372730.7184
  23556403.595    -9324212.078 8  -7253792.42545  23556402.972    23556416.3514
  24331225.809    -3001540.652 7  -2225904.32945  24331225.313    24331240.0514
  20771967.554   -24651251.466 9 -18952654.46947  20771967.706    20771976.5354
  21617749.731   -18528189.189 9 -14400208.03647  21617749.594    21617759.4994
  21367169.174   -20914441.926 9 -16087903.82847  21367168.697    21367179.3014
  24516411.665    -3090013.107 7  -2386995.69245  24516411.772    24516429.2454
 00  1 23  0 28 30.0000000  0  7 24 07 16 04 09 05 30
  20366808.551   -26310394.858 9 -20479795.02348  20366808.452    20366817.9254
  23569147.122    -9257244.495 8  -7201609.85945  23569146.509    23569159.8414
  24334202.461    -2985896.969 7  -2213714.34745  24334201.893    24334216.6044
  20781742.872   -24599881.691 9 -18912626.06547  20781743.039    20781751.8764
  21627322.473   -18477883.933 9 -14361009.11947  21627322.336    21627332.2424
  21354509.781   -20980967.170 9 -16139741.56847  21354509.301    21354519.8544
  24497378.773    -3190030.630 8  -2464931.12945  24497378.848    24497396.2934
 00  1 23  0 29  0.0000000  0  7 24 07 16 04 09 05 30
  20360995.458   -26340942.508 9 -20503598.31048  20360995.356    20361004.8284
  23581897.346    -9190242.372 8  -7149400.37545  23581896.662    23581909.8274
  24337282.122    -2969712.521 7  -2201103.00045  24337281.731    24337296.2924
  20791615.908   -24547998.482 9 -18872197.57647  20791616.084    20791624.9274
  21636982.164   -18427121.575 9 -14321454.02247  21636982.019    21636991.9434
  21341897.016   -21047247.255 9 -16191388.27447  21341896.523    21341907.0024
  24478347.620    -3290039.331 7  -2542859.70345  24478347.814    24478365.0874
 00  1 23  0 29 30.0000000  0  7 24 07 16 04 09 05 30
  20355284.136   -26370955.376 9 -20526984.87848  20355284.040    20355293.4984
  23594655.847    -9123196.058 8  -7097156.46145  23594655.230    23594668.3154
  24340466.436    -2952978.356 7  -2188063.25745  24340466.016    24340480.8384
  20801589.856   -24495585.157 9 -18831356.01947  20801590.009    20801598.8284
  21646730.379   -18375894.428 9 -14281536.74347  21646730.240    21646740.1524
  21329333.143   -21113270.389 9 -16242834.75847  21329332.670    21329343.0824
  24459320.125    -3390027.621 7  -2620772.39945  24459320.395    24459337.4114
 00  1 23  0 30  0.0000000  0  7 24 07 16 04 09 05 30
  20349674.638   -26400433.089 9 -20549954.44748  20349674.544    20349683.9854
  23607422.010    -9056109.330 8  -7044881.05445  23607421.362    23607434.4614
  24343757.527    -2935683.879 7  -2174586.94745  24343757.117    24343771.8244
  20811662.660   -24442652.122 9 -18790109.49047  20811662.816    20811671.6424
  21656569.170   -18324191.653 9 -14241248.84847  21656568.989    21656578.8904
  21316821.434   -21179019.222 9 -16294067.50847  21316820.962    21316831.3434
  24440298.663    -3489983.763 7  -2698659.97045  24440299.164    24440316.1924
 00  1 23  0 30 30.0000000  0  7 24 07 16 04 09 05 30
  20344167.621   -26429372.381 9 -20572504.46848  20344167.516    20344176.9344
  23620192.455    -8988999.859 8  -6992587.94145  23620191.862    23620205.0924
  24347155.353    -2917828.860 7  -2160673.77245  24347155.016    24347169.5624
  20821830.812   -24389218.209 9 -18748472.66847  20821830.946    20821839.7794
  21666499.241   -18272008.782 9 -14200586.85647  21666499.075    21666508.9534
  21304361.007   -21244498.692 9 -16345090.36447  21304360.518    21304370.8634
  24421282.923    -3589911.682 7  -2776525.58745  24421283.217    24421300.3884
 00  1 23  0 31  0.0000000  0  7 24 07 16 04 09 05 30
  20338763.519   -26457770.838 9 -20594633.05748  20338763.437    20338772.8204
  23632969.146    -8921857.639 8  -6940269.28545  23632968.587    23632981.7514
  24350655.477    -2899435.444 7  -2146341.10045  24350655.143    24350669.5724
  20832089.076   -24335310.312 9 -18706466.49947  20832089.215    20832098.0564
  21676518.822   -18219355.518 9 -14159558.32747  21676518.658    21676528.5284
  21291949.919   -21309719.027 9 -16395911.29247  21291949.420    21291959.7434
  24402271.287    -3689817.893 8  -2854374.32945  24402271.620    24402288.3924
 00  1 23  0 31 30.0000000  0  7 24 07 16 04 09 05 30
  20333460.753   -26485636.698 9 -20616346.63548  20333460.658    20333470.0434
  23645748.201    -8854702.091 8  -6887940.27545  23645747.580    23645760.9434
  24354256.459    -2880510.924 7  -2131594.58945  24354256.040    24354270.6504
  20842430.785   -24280964.071 9 -18664118.76247  20842430.945    20842439.8204
  21686628.045   -18166231.157 9 -14118162.70847  21686627.900    21686637.7654
  21279586.162   -21374690.558 9 -16446538.34847  21279585.650    21279595.9324
  24383260.318    -3789720.763 7  -2932220.43045  24383260.571    24383277.2354
 00  1 23  0 32  0.0000000  0  7 24 07 16 04 09 05 30
  20328259.916   -26512967.084 9 -20637642.96648  20328259.829    20328269.1874
  23658525.458    -8787556.725 8  -6835619.22345  23658524.875    23658538.4374
  24357957.058    -2861062.717 7  -2116440.00145  24357956.678    24357971.3954
  20852852.527   -24226197.339 9 -18621443.37247  20852852.690    20852861.5794
  21696824.713   -18112647.182 9 -14076408.95447  21696824.581    21696834.4434
  21267269.223   -21439415.966 9 -16496973.61647  21267268.706    21267278.9674
  24364244.656    -3889647.033 7  -3010084.76245  24364244.925    24364261.6574
 00  1 23  0 32 30.0000000  0  7 24 07 16 04 09 05 30
  20323161.706   -26539758.198 9 -20658519.08548  20323161.588    20323170.9374
  23671303.021    -8720410.561 8  -6783297.50145  23671302.399    23671315.8714
  24361757.709    -2841089.193 7  -2100876.05645  24361757.216    24361772.2214
  20863357.846   -24170991.710 9 -18578425.99047  20863357.988    20863366.8884
  21707107.680   -18058609.841 9 -14034301.92447  21707107.552    21707117.4204
  21254999.881   -21503891.286 9 -16547214.00547  21254999.370    21255009.6194
  24345223.897    -3989600.856 8  -3087970.61245  24345224.193    24345240.8854
 00  1 23  0 33  0.0000000  0  7 24 07 16 04 09 05 30
  20318165.007   -26566015.797 9 -20678979.48348  20318164.887    20318174.1924
  23684083.616    -8653247.119 8  -6730962.33845  23684083.070    23684096.5804
  24365661.621    -2820573.528 7  -2084889.65945  24365661.274    24365676.0404
  20873949.578   -24115331.761 9 -18535054.59647  20873949.735    20873958.5974
  21717476.016   -18004124.019 9 -13991845.43547  21717475.854    21717485.7264
  21242782.846   -21568091.951 9 -16597240.37447  21242782.328    21242792.5544
  24326199.568    -4089573.737 8  -3165871.25545  24326199.772    24326216.4294
 00  1 23  0 33 30.0000000  0  7 24 07 16 04 09 05 30
  20313270.165   -26591738.183 9 -20699022.83448  20313270.046    20313279.3394
  23696867.759    -8586066.015 8  -6678613.40845  23696867.240    23696880.7824
  24369671.813    -2799500.419 7  -2068468.86245  24369671.337    24369686.1734
  20884631.117   -24059199.824 9 -18491315.41847  20884631.261    20884640.1044
  21727930.628   -17949184.345 9 -13949035.29847  21727930.507    21727940.3824
  21230622.096   -21631996.536 9 -16647036.03347  21230621.587    21230631.8024
  24307172.927    -4189557.714 7  -3243780.59845  24307173.135    24307189.7624
 00  1 23  0 34  0.0000000  0  7 24 07 16 04 09 05 30
  20308480.779   -26616906.302 9 -20718634.29348  20308480.652    20308489.9304
  23709659.979    -8518842.237 8  -6626231.24845  23709659.494    23709673.0804
  24373789.135    -2777863.546 7  -2051608.76345  24373788.667    24373803.4154
  20895406.336   -24002575.567 9 -18447192.61147  20895406.501    20895415.3184
  21738470.037   -17893799.470 9 -13905878.24847  21738469.920    21738479.8094
  21218520.456   -21695590.764 9 -16696589.85647  21218519.954    21218530.1214
  24288148.953    -4289527.996 7  -3321679.29445  24288149.244    24288165.6564
 00  1 23  0 34 30.0000000  0  7 24 07 16 04 09 05 30
  20303795.015   -26641529.935 9 -20737821.48348  20303794.875    20303804.1284
  23722462.740    -8451564.086 8  -6573806.67345  23722462.132    23722475.6274
  24378015.828    -2755650.915 7  -2034299.99145  24378015.371    24378029.9994
  20906275.158   -23945459.700 9 -18402686.72447  20906275.307    20906284.1184
  21749096.139   -17837958.830 9 -13862366.06747  21749096.014    21749105.9394
  21206477.233   -21758877.885 9 -16745904.37747  21206476.732    21206486.8784
  24269132.388    -4389459.805 7  -3399547.97945  24269132.601    24269149.0124
 00  1 23  0 35  0.0000000  0  7 24 07 16 04 09 05 30
  20299214.041   -26665602.737 9 -20756579.45548  20299213.907    20299223.1384
  23735273.812    -8384241.255 8  -6521347.33845  23735273.142    23735286.6754
  24382349.269    -2732876.543 7  -2016553.50445  24382348.921    24382363.4114
  20917232.349   -23887879.225 9 -18357818.80447  20917232.511    20917241.2754
  21759807.143   -17781672.153 9 -13818506.32447  21759807.009    21759816.9294
  21194489.776   -21821872.009 9 -16794990.59147  21194489.271    21194499.3734
  24250121.730    -4489360.158 7  -3477392.13845  24250121.871    24250138.5014
 00  1 23  0 35 30.0000000  0  7 24 07 16 04 09 05 30
  20294739.302   -26689117.609 9 -20774902.66548  20294739.155    20294748.3634
  23748090.593    -8316889.141 8  -6468865.15945  23748089.969    23748103.3174
  24386787.880    -2709551.039 7  -1998377.60445  24386787.409    24386801.9874
  20928272.569   -23829862.655 9 -18312611.07847  20928272.708    20928281.4634
  21770603.151   -17724938.930 9 -13774298.61647  21770603.005    21770612.8924
  21182554.724   -21884590.727 9 -16843862.19947  21182554.213    21182564.2834
  24231115.888    -4589234.612 8  -3555216.14845  24231116.168    24231132.6834
 00  1 23  0 36  0.0000000  0  7 24 07 16 04 09 05 30
  20290368.720   -26712085.023 9 -20792799.29348  20290368.590    20290377.7514
  23760910.723    -8249518.952 8  -6416368.91345  23760910.094    23760923.4154
  24391329.282    -2685685.488 7  -1979780.95245  24391328.715    24391343.3004
  20939393.297   -23771422.812 9 -18267073.53447  20939393.429    20939402.1854
  21781482.322   -17667768.677 9 -13729750.38047  21781482.144    21781492.0344
  21170669.725   -21947046.606 9 -16892529.00247  21170669.191    21170679.2304
  24212116.145    -4689078.934 8  -3633016.70545  24212116.310    24212132.6324
 00  1 23  0 36 30.0000000  0  7 24 07 16 04 09 05 30
  20286098.515   -26734525.109 9 -20810285.01948  20286098.356    20286107.5004
  23773732.553    -8182139.427 8  -6363865.37245  23773732.007    23773745.2444
  24395970.313    -2661295.900 7  -1960775.99645  24395969.723    24395984.5704
  20950592.802   -23712568.902 9 -18221213.33447  20950592.946    20950601.6984
  21792444.256   -17610163.367 9 -13684863.13647  21792444.085    21792453.9914
  21158834.985   -22009238.032 9 -16940989.73447  21158834.464    21158844.4984
  24193120.208    -4788901.427 8  -3710800.19045  24193120.462    24193136.8974
 00  1 23  0 37  0.0000000  0  7 24 07 16 04 09 05 30
  20281928.219   -26756439.848 9 -20827361.37948  20281928.083    20281937.1914
  23786557.334    -8114744.763 8  -6311350.06745  23786556.690    23786570.0164
  24400708.870    -2636393.097 7  -1941371.16945  24400708.351    24400723.3774
  20961871.921   -23653296.645 9 -18175027.14447  20961872.078    20961880.8194
  21803486.786   -17552134.606 9 -13639645.93047  21803486.620    21803496.5124
  21147053.654   -22071148.812 9 -16989231.78447  21147053.150    21147063.1314
  24174128.797    -4888700.851 8  -3788565.71445  24174129.099    24174145.5724
 00  1 23  0 37 30.0000000  0  7 24 07 16 04 09 05 30
  20277856.156   -26777838.337 9 -20844035.46648  20277856.022    20277865.1234
  23799386.595    -8047326.770 8  -6258816.54445  23799385.947    23799399.1684
  24405545.882    -2610973.925 7  -1921563.89145  24405545.462    24405560.3574
  20973233.816   -23593589.337 9 -18128501.95447  20973233.992    20973242.7074
  21814609.792   -17493682.969 9 -13594099.20647  21814609.610    21814619.4714
  21135327.848   -22132767.805 9 -17037246.47147  21135327.357    21135337.3324
  24155143.145    -4988470.162 8  -3866307.78845  24155143.432    24155159.8594
 00  1 23  0 38  0.0000000  0  7 24 07 16 04 09 05 30
  20273882.785   -26798718.271 9 -20860305.48348  20273882.643    20273891.7344
  23812222.780    -7979871.724 8  -6206254.17945  23812222.191    23812235.3414
  24410481.189    -2585037.636 7  -1901353.60845  24410480.687    24410495.8394
  20984682.512   -23533426.165 9 -18081621.54147  20984682.676    20984691.4054
  21825811.867   -17434815.745 9 -13548228.64947  21825811.685    21825821.5354
  21123660.053   -22194081.871 9 -17085023.54547  21123659.575    21123669.5164
  24136164.588    -5088202.394 8  -3944020.91145  24136164.811    24136181.3934
 00  1 23  0 38 30.0000000  0  7 24 07 16 04 09 05 30
  20270007.686   -26819081.585 9 -20876172.94448  20270007.546    20270016.6334
  23825069.099    -7912363.654 8  -6153650.48845  23825068.569    23825081.7114
  24415517.638    -2558571.487 7  -1880730.45945  24415517.079    24415532.1864
  20996217.835   -23472807.365 9 -18034386.09847  20996217.991    20996226.7194
  21837094.991   -17375522.433 9 -13502026.08147  21837094.814    21837104.6594
  21112051.559   -22255084.275 9 -17132557.76247  21112051.082    21112061.0024
  24117192.470    -5187900.673 8  -4021707.59245  24117192.656    24117209.0644
 00  1 23  0 39  0.0000000  0  7 24 07 16 04 09 05 30
  20266231.812   -26838923.819 9 -20891634.37248  20266231.660    20266240.7334
  23837924.062    -7844810.122 8  -6101011.33245  23837923.468    23837936.6854
  24420654.982    -2531574.766 7  -1859693.89345  24420654.513    24420669.2204
  21007837.355   -23411746.281 9 -17986806.02847  21007837.527    21007846.2484
  21848458.712   -17315805.657 9 -13455493.53847  21848458.547    21848468.3894
  21100498.152   -22315797.074 9 -17179866.31047  21100497.700    21100507.5904
  24098225.496    -5287571.811 8  -4099373.09845  24098225.636    24098241.9194
 00  1 23  0 39 30.0000000  0  7 24 07 16 04 09 05 30
  20262556.517   -26858237.505 9 -20906683.94848  20262556.354    20262565.4254
  23850784.757    -7777226.747 8  -6048348.91045  23850784.166    23850797.3824
  24425893.319    -2504046.831 7  -1838243.39245  24425892.797    24425907.2864
  21019536.577   -23350266.635 9 -17938899.79647  21019536.738    21019545.4804
  21859902.046   -17255670.660 9 -13408635.11547  21859901.855    21859911.6764
  21088996.696   -22376237.199 9 -17226962.36547  21088996.232    21089006.1164
  24079262.941    -5387219.532 8  -4177020.36045  24079263.113    24079279.3124
 00  1 23  0 40  0.0000000  0  7 24 07 16 04 09 05 30
  20258979.580   -26877034.144 9 -20921330.63148  20258979.420    20258988.4684
  23863647.864    -7709630.770 8  -5995676.63745  23863647.191    23863660.2674
  24431232.853    -2475986.806 7  -1816378.33345  24431232.260    24431247.0364
  21031311.834   -23288387.157 9 -17890682.01247  21031311.986    21031320.7084
  21871424.372   -17195120.063 9 -13361452.85247  21871424.208    21871434.0394
  21077545.115   -22436415.165 9 -17273854.16447  21077544.660    21077554.5054
  24060306.353    -5486836.514 8  -4254643.65545  24060306.437    24060322.4754
 00  1 23  0 40 30.0000000  0  7 24 07 16 04 09 05 30
  20255498.840   -26895325.264 9 -20935583.40148  20255498.700    20255507.7304
  23876508.823    -7642045.697 8  -5943012.91945  23876508.078    23876521.2894
  24436672.901    -2447398.505 8  -1794101.60645  24436672.344    24436687.1444
  21043159.110   -23226129.324 9 -17842169.41147  21043159.274    21043168.0044
  21883025.317   -17134156.565 9 -13313948.84547  21883025.167    21883034.9984
  21066139.006   -22496354.121 9 -17320559.72747  21066138.536    21066148.3454
  24041354.547    -5586427.664 8  -4332246.80945  24041354.607    24041370.6724
 00  1 23  0 41  0.0000000  0  7 24 07 16 04 09 05 30
  20252117.208   -26913095.723 9 -20949430.45948  20252117.091    20252126.0924
  23889364.283    -7574489.247 8  -5890371.47145  23889363.558    23889376.7924
  24442210.736    -2418296.666 7  -1771424.66145  24442210.231    24442224.6854
  21055077.597   -23163497.043 9 -17793365.03547  21055077.753    21055086.4914
  21894699.673   -17072807.241 9 -13266144.19247  21894699.535    21894709.3684
  21054777.945   -22556056.580 9 -17367081.00847  21054777.471    21054787.2324
  24022407.283    -5685994.977 8  -4409831.40845  24022407.365    24022423.3524
 00  1 23  0 41 30.0000000  0  8 24 07 16 10 04 09 05 30
  20248829.910   -26930370.690 9 -20962891.41848  20248829.767    20248838.7474
  23902210.947    -7506979.668 8  -5837766.56245  23902210.304    23902223.4894
  24447843.277    -2388696.257 7  -1748359.25145  24447842.841    24447857.2494
  24585446.912    -6137915.070 7  -4760793.36045  24585446.051    24585462.6574
  21067064.522   -23100505.252 9 -17744280.52347  21067064.675    21067073.4314
  21906442.204   -17011100.193 9 -13218060.79147  21906442.036    21906451.8824
  21043462.163   -22615521.100 9 -17413416.87647  21043461.685    21043471.3834
  24003462.979    -5785546.497 8  -4487403.69045  24003463.030    24003478.9854
 00  1 23  0 42  0.0000000  0  8 24 07 16 10 04 09 05 30
  20245642.068   -26947122.701 9 -20975944.87648  20245641.924    20245650.8964
  23915057.055    -7439473.255 8  -5785164.13045  23915056.391    23915069.5364
  24453579.195    -2358553.464 7  -1724871.20745  24453578.650    24453592.8534
  24566546.644    -6237234.475 7  -4838184.72445  24566545.876    24566562.3824
  21079130.670   -23037097.348 9 -17694871.77147  21079130.841    21079139.6144
  21918260.531   -16948994.577 9 -13169666.82247  21918260.354    21918270.1624
  21032202.521   -22674690.681 9 -17459522.91647  21032202.030    21032211.6664
  23984528.571    -5885046.524 8  -4564935.83545  23984528.567    23984544.5504
 00  1 23  0 42 30.0000000  0  8 24 07 16 10 04 09 05 30
  20242561.740   -26963309.729 9 -20988558.08548  20242561.606    20242570.5724
  23927911.177    -7371924.536 8  -5732528.66145  23927910.622    23927923.6234
  24459420.196    -2327858.206 7  -1700952.71145  24459419.697    24459434.0184
  24547633.734    -6336621.147 7  -4915628.49145  24547632.768    24547649.3274
  21091282.097   -22973241.303 9 -17645113.81047  21091282.249    21091291.0324
  21930158.616   -16886469.812 9 -13120946.24647  21930158.467    21930168.2814
  21021007.502   -22733520.495 9 -17505364.20947  21021007.000    21021016.6034
  23965606.774    -5984479.878 8  -4642416.07845  23965606.836    23965622.7094
 00  1 23  0 43  0.0000000  0  8 24 07 16 10 04 09 05 30
  20239586.607   -26978943.632 9 -21000740.28748  20239586.486    20239595.4544
  23940775.201    -7304323.929 8  -5679852.82145  23940774.547    23940787.6344
  24465362.442    -2296630.633 7  -1676619.51545  24465361.923    24465376.4654
  24528711.246    -6436057.462 7  -4993110.98045  24528710.498    24528726.7774
  21103518.472   -22908938.685 9 -17595007.87247  21103518.608    21103527.4144
  21942132.554   -16823546.541 9 -13071915.14847  21942132.398    21942142.2104
  21009879.788   -22791996.720 9 -17550929.97947  21009879.283    21009888.8294
  23946696.162    -6083853.997 8  -4719850.17245  23946696.427    23946712.1374
 00  1 23  0 43 30.0000000  0  8 24 07 16 10 04 09 05 30
  20236713.137   -26994043.609 9 -21012506.44448  20236713.015    20236721.9584
  23953650.182    -7236665.214 8  -5627131.65045  23953649.553    23953662.4594
  24471404.917    -2264876.564 7  -1651875.98845  24471404.300    24471419.0274
  24509777.904    -6535550.913 7  -5070638.03245  24509777.175    24509793.3194
  21115837.155   -22844203.505 9 -17544564.87247  21115837.320    21115846.1024
  21954183.845   -16760216.911 9 -13022567.40147  21954183.665    21954193.4694
  20998819.152   -22850120.236 9 -17596220.91347  20998818.641    20998828.1464
  23927794.536    -6183181.926 8  -4797248.26845  23927794.742    23927810.3754
 00  1 23  0 44  0.0000000  0  8 24 07 16 10 04 09 05 30
  20233944.073   -27008594.878 9 -21023845.03648  20233943.932    20233952.8614
  23966535.965    -7168949.410 8  -5574366.01245  23966535.323    23966548.3604
  24477542.859    -2232622.113 7  -1626742.53545  24477542.240    24477556.6894
  24490833.526    -6635103.027 7  -5148210.77645  24490832.779    24490848.7334
  21128235.101   -22779051.902 9 -17493797.39647  21128235.247    21128244.0424
  21966311.919   -16696483.284 9 -12972904.85947  21966311.739    21966321.5674
  20987823.818   -22907900.470 9 -17641244.35848  20987823.322    20987832.7794
  23908896.884    -6282488.082 8  -4874629.41245  23908897.165    23908912.6224
 00  1 23  0 44 30.0000000  0  8 24 07 16 10 04 09 05 30
  20231282.879   -27022579.402 9 -21034742.00648  20231282.734    20231291.6364
  23979436.177    -7101157.612 8  -5521541.19145  23979435.612    23979448.7894
  24483777.424    -2199859.411 7  -1601212.97145  24483776.873    24483791.1674
  24471879.502    -6734706.331 7  -5225823.46345  24471878.642    24471894.5154
  21140711.082   -22713489.999 9 -17442710.21647  21140711.250    21140720.0614
  21978516.666   -16632346.692 9 -12922928.31547  21978516.460    21978526.3154
  20976892.918   -22965342.398 9 -17686004.19348  20976892.410    20976901.8464
  23890006.427    -6381757.144 8  -4951981.68645  23890006.763    23890022.0114
 00  1 23  0 45  0.0000000  0  8 24 07 16 10 04 09 05 30
  20228727.752   -27036006.396 9 -21045204.53448  20228727.604    20228736.4874
  23992348.639    -7033302.332 8  -5468666.84045  23992347.993    23992361.2364
  24490113.532    -2166561.919 7  -1575266.73145  24490112.959    24490127.5184
  24452913.418    -6834372.721 7  -5303485.31745  24452912.501    24452928.2654
  21153262.609   -22647531.222 9 -17391313.78147  21153262.771    21153271.5894
  21990799.412   -16567800.245 9 -12872632.40047  21990799.217    21990809.0494
  20966025.669   -23022449.751 9 -17730503.31848  20966025.163    20966034.5634
  23871125.870    -6480974.487 8  -5029293.63245  23871126.114    23871141.2614
 00  1 23  0 45 30.0000000  0  8 24 07 16 10 04 09 05 30
  20226279.062   -27048873.962 9 -21055231.15448  20226278.919    20226287.8084
  24005270.468    -6965396.821 8  -5415753.38945  24005269.858    24005283.2724
  24496552.880    -2132721.597 7  -1548897.49445  24496552.250    24496566.8824
  24433933.627    -6934110.609 7  -5381202.90845  24433932.911    24433948.3754
  21165886.890   -22581190.188 9 -17339619.49047  21165887.051    21165895.8784
  22003161.301   -16502837.748 9 -12822012.29347  22003161.159    22003170.9924
  20955219.810   -23079234.348 9 -17774750.94848  20955219.304    20955228.6934
  23852254.463    -6580143.661 8  -5106568.04845  23852254.798    23852269.6634
 00  1 23  0 46  0.0000000  0  8 24 07 16 10 04 09 05 30
  20223935.573   -27061188.711 9 -21064827.00448  20223935.461    20223944.3514
  24018198.456    -6897459.819 8  -5362815.39045  24018197.858    24018211.1544
  24503096.705    -2098333.821 7  -1522101.70445  24503096.070    24503110.5494
  24414944.407    -7033897.803 7  -5458958.91345  24414943.707    24414959.1834
  21178585.597   -22514457.865 9 -17287620.28847  21178585.750    21178594.6194
  22015598.710   -16437479.005 9 -12771083.42147  22015598.528    22015608.3854
  20944474.780   -23135699.198 9 -17818749.42248  20944474.282    20944483.6614
  23833395.745    -6679245.696 8  -5183790.16045  23833396.163    23833410.8944
 00  1 23  0 46 30.0000000  0  8 24 07 16 10 04 09 05 30
  20221690.973   -27072983.861 9 -21074017.97348  20221690.845    20221699.7524
  24031128.791    -6829509.779 8  -5309867.25245  24031128.156    24031141.5424
  24509745.369    -2063393.712 7  -1494875.44145  24509744.807    24509759.4344
  24395947.484    -7133726.060 8  -5536746.93045  24395946.688    24395962.0654
  21191359.866   -22447328.657 9 -17235311.82647  21191360.017    21191368.8834
  22028108.407   -16371740.166 9 -12719858.37247  22028108.278    22028118.1354
  20933791.060   -23191842.011 9 -17862496.95648  20933790.569    20933799.9344
  23814553.325    -6778261.697 8  -5260945.21645  23814553.748    23814568.5194
 00  1 23  0 47  0.0000000  0  8 24 07 16 10 04 09 05 30
  20219541.840   -27084277.212 9 -21082817.93148  20219541.733    20219550.6304
  24044057.368    -6761568.408 7  -5256925.84745  24044056.716    24044070.3764
  24516494.823    -2027922.957 7  -1467235.72245  24516494.274    24516509.1904
  24376940.558    -7233607.033 7  -5614576.00545  24376939.846    24376955.1764
  21204208.710   -22379807.377 9 -17182697.85447  21204208.882    21204217.7714
  22040690.267   -16305622.398 9 -12668338.05647  22040690.128    22040700.0074
  20923168.559   -23247663.287 9 -17905993.94848  20923168.062    20923177.4094
  23795723.691    -6877211.172 8  -5338048.45445  23795724.093    23795738.7154
 00  1 23  0 47 30.0000000  0  8 24 07 16 10 04 09 05 30
  20217488.171   -27095069.084 9 -21091227.12648  20217488.064    20217496.9584
  24056984.420    -6693636.151 7  -5203991.53245  24056983.737    24056997.4754
  24523342.259    -1991940.237 7  -1439197.05245  24523341.674    24523356.4024
  24357924.804    -7333534.476 8  -5692441.30645  24357924.110    24357939.2904
  21217134.213   -22311883.720 9 -17129770.33547  21217134.373    21217143.2594
  22053341.148   -16239141.936 8 -12616535.11947  22053340.950    22053350.8574
  20912607.711   -23303160.433 9 -17949238.37248  20912607.213    20912616.5284
  23776904.359    -6976106.341 8  -5415109.37245  23776904.732    23776919.3394
 00  1 23  0 48  0.0000000  0  8 24 07 16 10 04 09 05 30
  20215529.738   -27105360.575 9 -21099246.41148  20215529.610    20215538.5044
  24069911.662    -6625702.827 7  -5151056.36645  24069911.107    24069924.6084
  24530287.125    -1955444.836 7  -1410758.93445  24530286.456    24530301.0094
  24338898.072    -7433520.346 8  -5770352.15945  24338897.303    24338912.4344
  21230136.541   -22243556.159 9 -17076528.08247  21230136.692    21230145.5784
  22066060.963   -16172298.899 9 -12564449.65947  22066060.764    22066070.7004
  20902110.147   -23358325.050 9 -17992223.69048  20902109.651    20902118.9444
  23758097.586    -7074935.612 8  -5492118.93945  23758097.972    23758112.5914
 00  1 23  0 48 30.0000000  0  8 24 07 16 10 04 09 05 30
  20213667.106   -27115148.383 9 -21106873.21648  20213666.980    20213675.8764
  24082843.186    -6557746.887 7  -5098103.60945  24082842.606    24082856.1034
  24537329.905    -1918434.052 7  -1381919.18845  24537329.190    24537343.5814
  24319855.290    -7533590.243 7  -5848328.49145  24319854.415    24319869.4904
  21243212.341   -22174842.460 9 -17022984.92847  21243212.480    21243221.4004
  22078853.529   -16105073.571 9 -12512066.30747  22078853.348    22078863.2904
  20891675.356   -23413159.802 9 -18034951.96848  20891674.845    20891684.1264
  23739301.255    -7173710.072 8  -5569085.83445  23739301.594    23739316.1644
 00  1 23  0 49  0.0000000  0  8 24 07 16 10 04 09 05 30
  20211902.730   -27124420.135 9 -21114097.90748  20211902.601    20211911.4884
  24095781.404    -6489754.997 7  -5045122.84345  24095780.898    24095794.2714
  24544473.137    -1880896.059 7  -1352668.66845  24544472.505    24544486.6434
  24300795.708    -7633747.855 8  -5926373.16445  24300794.810    24300809.9734
  21256357.208   -22105765.692 9 -16969158.86947  21256357.350    21256366.2274
  22091720.563   -16037457.136 8 -12459378.20147  22091720.400    22091730.3414
  20881302.536   -23467668.753 9 -18077426.38348  20881302.036    20881311.2914
  23720513.497    -7272439.064 8  -5646017.25245  23720513.791    23720528.4494
 00  1 23  0 49 30.0000000  0  8 24 07 16 10 04 09 05 30
  20210237.778   -27133169.242 9 -21120915.33948  20210237.664    20210246.5444
  24108726.239    -6421729.634 8  -4992116.00645  24108725.786    24108739.0634
  24551716.184    -1842832.468 7  -1323008.60645  24551715.613    24551729.4844
  24281722.276    -7733978.615 8  -6004474.85045  24281721.435    24281736.4144
  21269569.531   -22036334.337 9 -16915056.49047  21269569.663    21269578.5634
  22104659.267   -15969463.799 9 -12406396.40247  22104659.083    22104669.0354
  20870992.292   -23521849.095 9 -18119644.74048  20870991.773    20871000.9974
  23701738.225    -7371102.838 8  -5722897.86945  23701738.568    23701753.0464
 00  1 23  0 50  0.0000000  0  8 24 07 16 10 04 09 05 30
  20208674.109   -27141386.301 9 -21127318.19248  20208673.986    20208682.8454
  24121677.990    -6353667.714 7  -4939080.67545  24121677.381    24121690.7374
  24559059.285    -1804241.681 7  -1292937.76545  24559058.707    24559072.9564
  24262638.900    -7834262.052 7  -6082617.57045  24262638.066    24262652.7874
  21282845.443   -21966568.709 9 -16860693.64647  21282845.603    21282854.4804
  22117668.408   -15901100.361 9 -12353126.21047  22117668.247    22117678.1854
  20860744.023   -23575703.637 9 -18161609.23548  20860743.508    20860752.7124
  23682976.755    -7469694.063 8  -5799721.94045  23682977.037    23682991.4834
 00  1 23  0 50 30.0000000  0  8 24 07 16 10 04 09 05 30
  20207211.982   -27149069.517 9 -21133305.06048  20207211.868    20207220.7124
  24134635.910    -6285573.356 8  -4886020.08145  24134635.350    24134648.6224
  24566502.365    -1765127.887 7  -1262459.30045  24566501.695    24566516.0234
  24243549.307    -7934577.743 7  -6160785.45245  24243548.502    24243563.1694
  21296184.177   -21896473.027 9 -16806073.62447  21296184.338    21296193.2174
  22130745.127   -15832381.977 8 -12299579.43847  22130744.944    22130754.8604
  20850560.356   -23629218.876 9 -18203309.33948  20850559.848    20850569.0044
  23664227.917    -7568219.325 8  -5876494.61645  23664228.097    23664242.4724
 00  1 23  0 51  0.0000000  0  7 24 07 10 04 09 05 30
  20205853.333   -27156209.144 9 -21138868.35248  20205853.229    20205862.0444
  24147595.855    -6217468.433 7  -4832951.18045  24147595.237    24147608.4944
  24224456.972    -8034907.209 7  -6238964.04445  24224456.038    24224470.9124
  21309587.838   -21826036.335 9 -16751187.89347  21309587.979    21309596.8974
  22143886.928   -15763321.470 8 -12245766.07247  22143886.776    22143896.6814
  20840445.155   -23682374.335 9 -18244729.09848  20840444.631    20840453.7524
  23645494.269    -7666663.895 8  -5953204.42245  23645494.546    23645508.8044
 00  1 23  0 51 30.0000000  0  7 24 07 10 04 09 05 30
  20204599.124   -27162799.942 9 -21144003.99048  20204599.017    20204607.8134
  24160560.210    -6149339.975 8  -4779864.00845  24160559.592    24160572.8424
  24205365.822    -8135230.269 7  -6317137.66845  24205364.975    24205379.8484
  21323062.399   -21755226.940 9 -16696011.73247  21323062.561    21323071.4514
  22157093.936   -15693918.318 9 -12191685.71147  22157093.733    22157103.6714
  20830401.146   -23735155.845 9 -18285857.47048  20830400.604    20830409.6814
  23626779.808    -7765007.999 8  -6029835.94345  23626780.101    23626794.2484
 00  1 23  0 52  0.0000000  0  7 24 07 10 04 09 05 30
  20203446.809   -27168855.166 9 -21148722.30248  20203446.675    20203455.4624
  24173530.316    -6081181.223 8  -4726753.18645  24173529.684    24173542.9234
  24186274.672    -8235553.732 7  -6395311.58945  24186273.822    24186288.7554
  21336608.548   -21684041.537 9 -16640542.58647  21336608.683    21336617.5924
  22170369.223   -15624156.392 8 -12137325.78447  22170369.033    22170379.0024
  20820427.397   -23787568.038 9 -18326698.05448  20820426.859    20820435.9114
  23608081.878    -7863265.892 8  -6106400.27645  23608082.035    23608096.1474
 00  1 23  0 52 30.0000000  0  7 24 07 10 04 09 05 30
  20202391.765   -27174399.026 9 -21153042.15448  20202391.635    20202400.4184
  24186503.651    -6013005.573 8  -4673629.21645  24186503.122    24186516.1944
  24167178.423    -8335903.724 7  -6473506.18645  24167177.672    24167192.6854
  21350227.664   -21612472.427 9 -16584774.44347  21350227.815    21350236.7154
  22183715.460   -15554021.418 8 -12082675.17747  22183715.303    22183725.2864
  20810523.169   -23839614.767 9 -18367253.85248  20810522.635    20810531.6524
  23589398.724    -7961445.143 8  -6182903.31045  23589398.849    23589413.0374
 00  1 23  0 53  0.0000000  0  8 24 06 07 10 04 09 05 30
  20201429.049   -27179457.795 9 -21156984.01048  20201428.932    20201437.7054
  24860880.362    -4224602.527 7  -3277378.22045  24860880.091    24860897.6424
  24199476.308    -5944833.515 8  -4620508.05745  24199475.762    24199488.7574
  24148073.679    -8436298.330 7  -6551735.52045  24148072.827    24148087.9864
  21363915.063   -21540544.710 9 -16528726.86947  21363915.199    21363924.1054
  22197129.196   -15483531.833 8 -12027748.24247  22197129.027    22197139.0014
  20800681.667   -23891331.902 9 -18407552.81548  20800681.138    20800690.1554
  23570726.400    -8059567.599 8  -6259362.09945  23570726.546    23570740.6904
 00  1 23  0 53 30.0000000  0  8 24 06 07 10 04 09 05 30
  20200561.339   -27184017.788 9 -21160537.21248  20200561.212    20200569.9674
  24847296.828    -4295983.026 7  -3332999.16945  24847296.535    24847313.9394
  24212455.631    -5876625.864 8  -4567359.08745  24212455.007    24212467.8114
  24128966.125    -8536708.762 7  -6629977.20745  24128965.296    24128980.3664
  21377671.151   -21468255.968 9 -16472397.98147  21377671.306    21377680.2264
  22210613.883   -15412669.442 8 -11972530.81247  22210613.722    22210623.6604
  20790904.114   -23942712.892 9 -18447589.85248  20790903.577    20790912.5874
  23552066.113    -8157627.104 8  -6335771.81745  23552066.325    23552080.3834
 00  1 23  0 54  0.0000000  0  8 24 06 07 10 04 09 05 30
  20199790.977   -27188065.850 9 -21163691.50548  20199790.846    20199799.6044
  24833721.117    -4367323.788 7  -3388589.19745  24833720.823    24833738.1164
  24225438.878    -5808398.207 8  -4514194.62445  24225438.238    24225451.2714
  24109855.447    -8637135.567 7  -6708231.61345  24109854.456    24109869.5574
  21391494.423   -21395614.140 9 -16415793.94547  21391494.586    21391503.4804
  22224168.631   -15341438.557 9 -11917026.23447  22224168.488    22224178.4214
  20781191.760   -23993751.208 9 -18487359.86748  20781191.231    20781200.2494
  23533418.413    -8255620.111 8  -6412129.74745  23533418.694    23533432.5634
 00  1 23  0 54 30.0000000  0  8 24 06 07 10 04 09 05 30
  20199120.190   -27191590.668 9 -21166438.07148  20199120.070    20199128.8054
  24820150.341    -4438637.700 7  -3444158.27145  24820150.058    24820167.5034
  24238425.536    -5740152.868 8  -4461016.27145  24238424.937    24238437.5564
  24090743.849    -8737566.329 7  -6786489.11045  24090743.046    24090757.9394
  21405384.114   -21322623.196 9 -16358917.89847  21405384.291    21405393.1514
  22237787.435   -15269871.224 8 -11861259.49547  22237787.300    22237797.2514
  20771547.185   -24044433.204 9 -18526852.22748  20771546.658    20771555.6704
  23514785.710    -8353534.532 8  -6488426.43845  23514786.053    23514799.7934
 00  1 23  0 55  0.0000000  0  8 24 06 07 10 04 09 05 30
  20198551.753   -27194577.659 9 -21168765.55148  20198551.614    20198560.3294
  24806583.066    -4509932.818 7  -3499712.73445  24806582.900    24806600.2574
  24251417.698    -5671878.280 7  -4407815.22845  24251417.013    24251429.7274
  24071636.011    -8837977.874 7  -6864731.62245  24071635.204    24071649.9124
  21419341.861   -21249274.913 9 -16301763.38647  21419342.028    21419350.8534
  22251466.316   -15197988.430 8 -11805246.94047  22251466.150    22251476.0964
  20761970.635   -24094757.909 9 -18566066.17248  20761970.107    20761979.1124
  23496170.722    -8451356.113 8  -6564650.77645  23496171.070    23496184.7824
 00  1 23  0 55 30.0000000  0  8 24 06 07 10 04 09 05 30
  20198086.353   -27197023.251 9 -21170671.15248  20198086.216    20198094.9204
  24793021.899    -4581196.791 8  -3555242.91645  24793021.668    24793039.1254
  24264414.243    -5603580.088 7  -4354595.78545  24264413.697    24264426.2634
  24052529.351    -8938383.091 8  -6942969.18345  24052528.491    24052543.2254
  21433370.387   -21175554.578 9 -16244318.94347  21433370.536    21433379.3284
  22265204.524   -15125793.913 9 -11748991.48647  22265204.330    22265214.2684
  20752461.945   -24144725.797 9 -18605002.07848  20752461.430    20752470.4134
  23477574.741    -8549077.505 8  -6640797.04445  23477575.093    23477588.7454
 00  1 23  0 56  0.0000000  0  8 24 06 07 10 04 09 05 30
  20197722.576   -27198934.780 9 -21172160.60148  20197722.458    20197731.1334
  24779470.458    -4652410.071 7  -3610733.61145  24779470.250    24779487.4364
  24277415.922    -5535255.247 7  -4301355.54345  24277415.405    24277427.8934
  24033423.500    -9038784.681 8  -7021203.93345  24033422.618    24033437.2604
  21447471.740   -21101451.688 9 -16186576.40647  21447471.854    21447480.6354
  22279000.556   -15053295.155 8 -11692498.96247  22279000.379    22279010.3304
  20743022.058   -24194332.589 9 -18643656.61548  20743021.515    20743030.4574
  23459000.365    -8646685.656 8  -6716855.05645  23459000.642    23459014.1694
 00  1 23  0 56 30.0000000  0  8 24 06 07 10 04 09 05 30
  20197457.949   -27200325.411 9 -21173244.15648  20197457.811    20197466.4694
  24765928.554    -4723572.698 7  -3666184.78345  24765928.245    24765945.3954
  24290425.606    -5466889.021 7  -4248083.06645  24290425.008    24290437.6164
  24014318.697    -9139180.245 8  -7099433.97245  24014317.864    24014332.3624
  21461642.431   -21026983.953 9 -16128549.56847  21461642.574    21461651.3094
  22292854.407   -14980492.607 8 -11635769.72547  22292854.248    22292864.2334
  20733649.027   -24243587.783 9 -18682037.17748  20733648.494    20733657.4104
  23440446.779    -8744184.607 8  -6792827.96345  23440446.997    23440460.5624
 00  1 23  0 57  0.0000000  0  8 24 06 07 10 04 09 05 30
  20197290.782   -27201203.403 9 -21173928.24948  20197290.637    20197299.2874
  24752397.421    -4794678.933 7  -3721592.06745  24752397.152    24752413.9924
  24303442.126    -5398486.751 7  -4194782.50245  24303441.578    24303454.1244
  23995212.466    -9239583.003 8  -7177669.63045  23995211.701    23995226.0434
  21475878.809   -20952171.350 9 -16070254.00147  21475878.918    21475887.6444
  22306769.027   -14907370.761 9 -11578791.67747  22306768.895    22306778.8464
  20724337.800   -24292518.152 9 -18720164.62848  20724337.270    20724346.1544
  23421914.826    -8841569.797 8  -6868712.23245  23421915.006    23421928.5054
 00  1 23  0 57 30.0000000  0  8 24 06 07 10 04 09 05 30
  20197218.415   -27201583.462 9 -21174224.34748  20197218.307    20197226.9324
  24738877.609    -4865725.008 7  -3776952.43545  24738877.312    24738894.2434
  24316463.772    -5330056.590 7  -4141460.21245  24316463.173    24316475.7034
  23976102.016    -9340008.686 8  -7255923.16045  23976101.241    23976115.2794
  21490174.318   -20877047.922 9 -16011716.23547  21490174.462    21490183.1554
  22320746.398   -14833919.328 9 -11521556.81347  22320746.279    22320756.2054
  20715089.018   -24341120.457 9 -18758036.45348  20715088.483    20715097.3644
  23403404.377    -8938841.906 8  -6944508.37045  23403404.540    23403417.9774
 00  1 23  0 58  0.0000000  0  8 24 06 07 10 04 09 05 30
  20197238.325   -27201478.755 9 -21174142.69848  20197238.203    20197246.8264
  24725365.986    -4936728.419 8  -3832279.55445  24725365.716    24725382.6934
  24329490.931    -5261597.268 7  -4088115.18845  24329490.455    24329503.1554
  23956990.081    -9440442.035 8  -7334182.65545  23956989.302    23957003.2244
  21504522.313   -20801648.863 9 -15952963.68747  21504522.459    21504531.0864
  22334786.313   -14760139.339 9 -11464065.92347  22334786.169    22334796.0714
  20705905.837   -24389377.862 9 -18795639.52148  20705905.300    20705914.1844
  23384914.989    -9036003.519 8  -7020218.41046  23384915.121    23384928.4734
 00  1 23  0 58 30.0000000  0  8 24 06 07 10 04 09 05 30
  20197350.619   -27200888.293 9 -21173682.54048  20197350.485    20197359.0904
  24711858.629    -5007708.790 8  -3887588.77145  24711858.427    24711875.2454
  24342519.856    -5193128.884 7  -4034763.15545  24342519.394    24342532.2804
  23937874.402    -9540894.887 8  -7412457.36145  23937873.565    23937887.5354
  21518921.835   -20725978.758 9 -15893999.94947  21518921.960    21518930.5814
  22348890.239   -14686022.712 8 -11406312.72647  22348890.105    22348900.0194
  20696789.877   -24437281.964 9 -18832967.29448  20696789.341    20696798.2084
  23366448.350    -9133045.215 8  -7095835.00346  23366448.475    23366461.7334
 00  1 23  0 59  0.0000000  0  8 24 06 07 10 04 09 05 30
  20197555.770   -27199810.082 9 -21172842.31948  20197555.643    20197564.2384
  24698356.610    -5078661.543 8  -3942876.39045  24698356.473    24698373.0984
  24355550.774    -5124651.050 7  -3981403.67745  24355550.244    24355563.0954
  23918754.496    -9641369.261 8  -7490748.87745  23918753.712    23918767.6634
  21533375.224   -20650025.742 9 -15834815.76447  21533375.335    21533383.9424
  22363058.236   -14611569.594 8 -11348297.33047  22363058.087    22363068.0064
  20687744.836   -24484813.529 9 -18870004.78248  20687744.303    20687753.1454
  23348003.900    -9229970.013 8  -7171360.52046  23348004.114    23348017.2184
 00  1 23  0 59 30.0000000  0  8 24 06 07 10 04 09 05 30
  20197854.200   -27198241.591 9 -21171620.06048  20197854.077    20197862.6524
  24684858.830    -5149591.375 7  -3998146.15145  24684858.628    24684875.3144
  24368585.252    -5056154.504 7  -3928029.69245  24368584.730    24368597.6504
  23899633.291    -9741850.709 8  -7569045.87745  23899632.599    23899646.5134
  21547885.861   -20573771.776 9 -15775397.08347  21547885.979    21547894.5724
  22377286.085   -14536801.983 8 -11290036.87947  22377285.907    22377295.8274
  20678777.829   -24531935.295 9 -18906722.94048  20678777.271    20678786.0674
  23329578.062    -9326797.089 8  -7246809.86646  23329578.219    23329591.3354
 00  1 23  1  0  0.0000000  0  8 24 06 07 10 04 09 05 30
  20198251.091   -27196155.736 9 -21169994.66148  20198250.962    20198259.5074
  24671363.565    -5220508.378 7  -4053405.94845  24671363.481    24671380.0504
  24381623.056    -4987639.646 7  -3874641.34345  24381622.524    24381635.3864
  23880514.647    -9842319.837 8  -7647333.32045  23880513.855    23880527.6174
  21562460.241   -20497182.569 9 -15715717.17347  21562460.359    21562468.9874
  22391571.739   -14461730.372 8 -11231539.54147  22391571.567    22391581.4824
  20669889.306   -24578644.352 9 -18943119.50548  20669888.764    20669897.5354
  23311169.651    -9423532.830 8  -7322188.05246  23311169.844    23311182.8144
 00  1 23  1  0 30.0000000  0  8 24 06 07 10 04 09 05 30
  20198752.713   -27193519.341 9 -21167940.26948  20198752.585    20198761.1064
  24657874.739    -5291392.196 7  -4108639.84545  24657874.468    24657891.1314
  24394666.365    -4919096.100 7  -3821230.70745  24394665.835    24394678.8224
  23861398.346    -9942775.275 8  -7725610.08445  23861397.628    23861411.3804
  21577104.837   -20420224.587 9 -15655749.90747  21577104.971    21577113.6004
  22405915.247   -14386354.765 8 -11172805.31747  22405915.048    22405924.9574
  20661077.523   -24624950.231 9 -18979201.90048  20661076.994    20661085.7154
  23292780.473    -9520167.318 8  -7397487.32646  23292780.704    23292793.5504
 00  1 23  1  1  0.0000000  0  8 24 06 07 10 04 09 05 30
  20199361.299   -27190321.179 9 -21165448.13748  20199361.153    20199369.6784
  24644396.829    -5362218.260 7  -4163828.74045  24644396.570    24644413.0614
  24407720.495    -4850496.405 7  -3767776.29145  24407720.107    24407732.7804
  23842289.540   -10043191.975 8  -7803856.70145  23842288.828    23842302.5144
  21591821.144   -20342889.694 9 -15595488.94747  21591821.283    21591829.9464
  22420315.670   -14310680.240 8 -11113838.17947  22420315.458    22420325.3974
  20652343.019   -24670849.946 9 -19014967.80648  20652342.491    20652351.1874
  23274408.439    -9616711.523 8  -7472716.24746  23274408.703    23274421.4954
 00  1 23  1  1 30.0000000  0  8 24 06 07 10 04 09 05 30
  20200076.764   -27186561.188 9 -21162518.22048  20200076.608    20200085.1284
  24630931.115    -5432980.056 7  -4218967.53845  24630930.921    24630947.4294
  24420784.648    -4781844.173 7  -3714280.86845  24420784.183    24420796.4554
  23823189.365   -10143563.093 8  -7882067.77145  23823188.580    23823202.2744
  21606608.517   -20265181.547 9 -15534937.15647  21606608.606    21606617.3214
  22434774.272   -14234699.669 8 -11054632.56647  22434774.109    22434784.0274
  20643685.190   -24716346.907 9 -19050419.88548  20643684.645    20643693.3174
  23256056.258    -9713151.454 8  -7547863.92246  23256056.498    23256069.3054
 00  1 23  1  2  0.0000000  0  8 24 06 07 10 04 09 05 30
  20200896.981   -27182250.620 9 -21159159.27348  20200896.830    20200905.3324
  24617478.747    -5503671.361 7  -4274051.43145  24617478.605    24617495.0644
  24433857.326    -4713146.121 7  -3660749.85945  24433856.863    24433869.3554
  23804098.111   -10243887.579 8  -7960242.49945  23804097.307    23804110.9224
  21621463.408   -20187118.799 9 -15474109.04347  21621463.452    21621472.2024
  22449295.126   -14158392.115 8 -10995172.15647  22449294.976    22449304.8734
  20635100.664   -24761458.271 9 -19085571.49148  20635100.148    20635108.7824
  23237728.352    -9809463.897 8  -7622912.26146  23237728.576    23237741.3884
 00  1 23  1  2 30.0000000  0  8 24 06 07 10 04 09 05 30
  20201815.749   -27177422.332 9 -21155396.90748  20201815.584    20201824.0934
  24604043.221    -5574273.493 7  -4329065.75545  24604043.175    24604059.6384
  24446940.902    -4644391.321 7  -3607174.52545  24446940.405    24446952.8374
  23785014.563   -10344172.162 8  -8038386.11245  23785013.658    23785027.2254
  21636378.283   -20108740.251 9 -15413034.85247  21636378.367    21636387.1434
  22463877.328   -14081762.488 8 -10935460.78247  22463877.161    22463887.0474
  20626589.828   -24806182.643 9 -19120421.54748  20626589.309    20626597.9394
  23219426.427    -9905639.898 8  -7697854.30646  23219426.706    23219439.4434
 00  1 23  1  3  0.0000000  0  8 24 06 07 10 04 09 05 30
  20202825.393   -27172116.473 9 -21151262.40548  20202825.215    20202833.7114
  24590621.906    -5644802.064 7  -4384022.83145  24590621.847    24590638.2954
  24460032.468    -4575594.060 7  -3553566.13745  24460031.963    24460044.4614
  23765938.196   -10444418.385 8  -8116499.82145  23765937.304    23765950.7854
  21651347.162   -20030078.256 9 -15351739.78647  21651347.254    21651356.0294
  22478518.833   -14004821.205 8 -10875506.55247  22478518.655    22478528.5134
  20618154.972   -24850507.762 9 -19154960.49748  20618154.449    20618163.0574
  23201148.512   -10001689.911 8  -7772698.16346  23201148.709    23201161.3914
 00  1 23  1  3 30.0000000  0  8 24 06 07 10 04 09 05 30
  20203924.555   -27166340.076 9 -21146761.25348  20203924.384    20203932.8554
  24577209.774    -5715282.695 7  -4438942.52645  24577209.702    24577225.9854
  24473127.693    -4506778.203 7  -3499943.21945  24473127.207    24473139.3944
  23746868.975   -10544626.809 8  -8194584.06545  23746868.076    23746881.4194
  21666365.432   -19951156.772 9 -15290242.51447  21666365.547    21666374.2824
  22493218.344   -13927574.804 8 -10815314.57047  22493218.159    22493227.9714
  20609794.447   -24894442.110 9 -19189194.94948  20609793.917    20609802.5324
  23182895.995   -10097606.095 8  -7847437.75346  23182896.256    23182908.9034
 00  1 23  1  4  0.0000000  0  8 24 06 07 10 04 09 05 30
  20205113.445   -27160092.130 9 -21141892.65748  20205113.291    20205121.7344
  24563803.477    -5785732.325 7  -4493838.08145  24563803.343    24563819.4794
  24486227.081    -4437939.822 7  -3446302.69945  24486226.568    24486238.8594
  23727808.629   -10644788.038 8  -8272631.51445  23727807.750    23727821.1044
  21681432.482   -19871978.966 9 -15228545.50347  21681432.607    21681441.3074
  22507972.267   -13850042.450 8 -10754899.76447  22507972.105    22507981.8774
  20601508.099   -24937986.832 9 -19223125.79048  20601507.563    20601516.1564
  23164669.090   -10193388.065 8  -7922072.76846  23164669.304    23164681.8924
 00  1 23  1  4 30.0000000  0  8 24 06 07 10 04 09 05 30
  20206395.173   -27153356.271 9 -21136643.87348  20206395.004    20206403.4464
  24550400.936    -5856162.536 7  -4548718.49845  24550400.831    24550417.0114
  24499330.898    -4369078.888 8  -3392644.65845  24499330.356    24499342.4344
  23708756.854   -10744904.848 8  -8350644.34645  23708755.991    23708769.2204
  21696548.899   -19792541.481 9 -15166646.14847  21696549.052    21696557.7014
  22522778.158   -13772236.987 8 -10694272.15247  22522777.975    22522787.7504
  20593297.746   -24981132.027 9 -19256745.31048  20593297.207    20593305.7724
  23146465.572   -10289046.784 8  -7996611.75446  23146465.816    23146478.3344
 00  1 23  1  5  0.0000000  0  8 24 06 07 10 04 09 05 30
  20207773.523   -27146112.558 9 -21130999.35648  20207773.360    20207781.7934
  24536998.831    -5926590.246 7  -4603596.96545  24536998.590    24537014.7014
  24512437.909    -4300200.849 7  -3338973.26545  24512437.224    24512449.4134
  23689716.784   -10844959.888 8  -8428609.01445  23689715.911    23689729.0704
  21711719.787   -19712818.191 9 -15104524.09147  21711719.939    21711728.5284
  22537636.147   -13694157.588 8 -10633431.08047  22537635.979    22537645.8054
  20585165.310   -25023867.758 9 -19290045.77148  20585164.777    20585173.3054
  23128286.705   -10384576.037 8  -8071049.84146  23128286.980    23128299.4834
 00  1 23  1  5 30.0000000  0  8 24 06 07 10 04 09 05 30
  20209251.890   -27138343.396 9 -21124945.40548  20209251.746    20209260.1624
  24523598.066    -5997010.231 8  -4658469.41845  24523597.927    24523614.0284
  24525550.221    -4231293.492 7  -3285279.05545  24525549.615    24525561.7504
  23670691.246   -10944938.675 8  -8506514.25245  23670690.403    23670703.4274
  21726948.073   -19632792.859 9 -15042166.69047  21726948.236    21726956.8284
  22552546.757   -13615801.941 8 -10572374.75947  22552546.587    22552556.4364
  20577110.365   -25066196.468 9 -19323029.07148  20577109.833    20577118.3264
  23110135.454   -10479960.398 8  -8145375.05846  23110135.687    23110148.1824
 00  1 23  1  6  0.0000000  0  8 24 06 07 10 04 09 05 30
  20210828.229   -27130059.661 9 -21118490.49048  20210828.075    20210836.4824
  24510202.498    -6067404.019 7  -4713321.45745  24510202.250    24510218.3184
  24538670.970    -4162341.786 7  -3231550.27445  24538670.242    24538682.6254
  23651680.028   -11044841.868 8  -8584360.59045  23651679.184    23651692.2244
  21742235.403   -19552457.359 9 -14979567.59247  21742235.544    21742244.1684
  22567509.175   -13537173.828 8 -10511106.12746  22567508.989    22567518.9164
  20569134.381   -25108110.001 9 -19355688.86148  20569133.845    20569142.3074
  23092012.084   -10575198.432 8  -8219586.22346  23092012.303    23092024.7464
 00  1 23  1  6 30.0000000  0  8 24 06 07 10 04 09 05 30
  20212502.072   -27121263.229 9 -21111636.07548  20212501.946    20212510.3104
  24496814.676    -6137756.551 8  -4768141.38045  24496814.449    24496830.5224
  24551799.183    -4093351.334 7  -3177791.26345  24551798.434    24551810.7914
  23632682.379   -11144673.928 8  -8662151.48845  23632681.576    23632694.6134
  21757581.392   -19471813.986 9 -14916728.58847  21757581.470    21757590.1204
  22582523.053   -13458275.150 8 -10449626.65846  22582522.925    22582532.8434
  20561237.336   -25149608.972 9 -19388025.62948  20561236.812    20561245.2434
  23073915.410   -10670296.104 8  -8293688.02546  23073915.601    23073927.9524
 00  1 23  1  7  0.0000000  0  8 24 06 07 10 04 09 05 30
  20214269.504   -27111975.121 9 -21104398.54048  20214269.363    20214277.7244
  24483436.185    -6208059.179 7  -4822922.39145  24483436.000    24483452.1204
  24564935.844    -4024317.652 7  -3123998.49945  24564935.059    24564946.9904
  23613699.606   -11244427.849 8  -8739881.50245  23613698.897    23613711.8034
  21772985.675   -19390863.623 9 -14853650.37547  21772985.796    21772994.4704
  22597586.276   -13379117.612 8 -10387945.48646  22597586.127    22597596.0734
  20553418.067   -25190699.249 9 -19420043.93148  20553417.545    20553425.9504
  23055846.752   -10765246.238 8  -8367674.84146  23055846.980    23055859.2364
 00  1 23  1  7 30.0000000  0  8 24 06 07 10 04 09 05 30
  20216128.065   -27102208.115 9 -21096787.83448  20216127.946    20216136.2954
  24470067.549    -6278310.370 8  -4877663.33945  24470067.315    24470083.4954
  24578079.614    -3955246.668 7  -3070176.68644  24578078.811    24578090.6994
  23594728.903   -11344118.564 8  -8817562.28246  23594728.200    23594741.1024
  21788443.066   -19309634.323 9 -14790354.81247  21788443.205    21788451.8864
  22612699.442   -13299697.374 8 -10326059.60346  22612699.304    22612709.2794
  20545675.257   -25231387.611 9 -19451749.05548  20545674.735    20545683.1104
  23037805.634   -10860051.676 8  -8441548.91746  23037805.859    23037818.0224
 00  1 23  1  8  0.0000000  0  8 24 06 07 10 04 09 05 30
  20218078.596   -27091957.785 9 -21088800.51348  20218078.476    20218086.8004
  24456708.739    -6348510.391 8  -4932364.41745  24456708.503    24456724.4854
  24591228.120    -3886148.322 7  -3016333.63744  24591227.458    24591239.5094
  23575768.099   -11443757.457 8  -8895202.67246  23575767.336    23575780.2074
  21803951.012   -19228139.438 9 -14726852.30247  21803951.149    21803959.8674
  22627861.590   -13220019.562 8 -10263973.01146  22627861.477    22627871.5004
  20538006.755   -25271685.598 9 -19483149.99248  20538006.234    20538014.5624
  23019792.622   -10954709.612 8  -8515308.04546  23019792.840    23019804.9444
 00  1 23  1  8 30.0000000  0  7 24 06 10 04 09 05 30
  20220127.837   -27081188.754 9 -21080409.01648  20220127.697    20220136.0324
  24443361.540    -6418650.157 7  -4987018.53245  24443361.373    24443377.1214
  23556820.191   -11543327.971 8  -8972789.80646  23556819.434    23556832.3234
  21819513.347   -19146358.870 9 -14663127.17547  21819513.475    21819522.1764
  22643076.539   -13140064.496 8 -10201670.37546  22643076.395    22643086.3954
  20530417.269   -25311568.043 9 -19514227.12648  20530416.739    20530425.0584
  23001813.061   -11049191.493 8  -8588929.98646  23001813.267    23001825.2884
 00  1 23  1  9  0.0000000  0  7 24 06 10 04 09 05 30
  20222270.197   -27069930.109 9 -21071636.00048  20222270.064    20222278.4094
  24430021.900    -6488749.394 8  -5041641.04445  24430021.718    24430037.4124
  23537882.898   -11642843.024 8  -9050333.73146  23537882.124    23537894.9914
  21835124.773   -19064320.100 9 -14599200.85747  21835124.888    21835133.6384
  22658342.108   -13059843.254 8 -10139160.32646  22658341.986    22658351.9944
  20522904.195   -25351049.102 9 -19544991.49748  20522903.660    20522911.9544
  22983865.445   -11143505.845 8  -8662421.39146  22983865.661    22983877.6144
 00  1 23  1  9 30.0000000  0  7 24 06 10 04 09 05 30
  20224506.672   -27058177.126 9 -21062477.78348  20224506.536    20224514.9054
  24416691.731    -6558798.924 8  -5096224.81245  24416691.526    24416707.1974
  23518956.631   -11742299.906 8  -9127832.35046  23518955.836    23518968.7374
  21850785.127   -18982024.269 9 -14535074.23147  21850785.246    21850794.0694
  22673658.806   -12979353.715 8 -10076441.20546  22673658.673    22673668.6454
  20515466.722   -25390132.784 9 -19575446.21948  20515466.178    20515474.4534
  22965949.861   -11237651.829 8  -8735781.64146  22965950.114    22965961.9584
 00  1 23  1 10  0.0000000  0  7 24 06 10 04 09 05 30
  20226835.780   -27045937.595 9 -21052940.44248  20226835.623    20226843.9744
  24403370.072    -6628804.015 8  -5150773.93545  24403369.899    24403385.3004
  23500043.818   -11841686.365 8  -9205276.10946  23500042.959    23500055.8454
  21866496.983   -18899457.674 8 -14470736.61447  21866497.129    21866505.9614
  22689021.942   -12898619.995 8 -10013531.81446  22689021.807    22689031.8184
  20508105.255   -25428817.220 9 -19605589.84148  20508104.725    20508112.9594
  22948064.907   -11331637.037 8  -8809016.60846  22948065.086    22948076.9004
 00  1 23  1 10 30.0000000  0  7 24 06 10 04 09 05 30
  20229252.552   -27033237.137 9 -21043043.93448  20229252.410    20229260.7614
  24390055.464    -6698771.213 8  -5205293.49545  24390055.376    24390070.7294
  23481146.508   -11940990.885 8  -9282656.03046  23481145.771    23481158.6344
  21882260.254   -18816621.205 8 -14406188.69847  21882260.396    21882269.2374
  22704430.551   -12817647.359 8  -9950436.26146  22704430.440    22704440.4524
  20500824.024   -25467079.988 9 -19635404.89148  20500823.485    20500831.6924
  22930207.847   -11425475.567 8  -8882137.30446  22930208.037    22930219.7774
 00  1 23  1 11  0.0000000  0  7 24 06 10 04 09 05 30
  20231754.056   -27020091.540 9 -21032800.56248  20231753.898    20231762.2144
  24376746.701    -6768708.279 7  -5259789.58545  24376746.590    24376761.8554
  23462267.486   -12040200.026 8  -9359961.62846  23462266.701    23462279.5184
  21898072.481   -18733527.091 9 -14341440.02447  21898072.650    21898081.5204
  22719883.335   -12736442.640 8  -9887159.85446  22719883.132    22719893.2094
  20493622.556   -25504923.819 9 -19664893.49748  20493622.001    20493630.1764
  22912376.452   -11519179.006 8  -8955152.72246  22912376.582    22912388.2904
 00  1 23  1 11 30.0000000  0  7 24 06 10 04 09 05 30
  20234340.642   -27006498.750 9 -21022208.72548  20234340.488    20234348.8024
  24363438.666    -6838641.629 8  -5314282.74145  24363438.603    24363453.7184
  23443406.069   -12139316.461 8  -9437195.01145  23443405.268    23443418.0124
  21913933.887   -18650175.060 8 -14276490.37647  21913934.029    21913942.9234
  22735377.897   -12655018.096 8  -9823712.16646  22735377.696    22735387.8114
  20486501.687   -25542343.979 9 -19694051.97348  20486501.140    20486509.2774
  22894570.683   -11612747.886 8  -9028063.31546  22894570.859    22894582.4524
 00  1 23  1 12  0.0000000  0  7 24 06 10 04 09 05 30
  20237012.421   -26992458.313 9 -21011268.07348  20237012.248    20237020.5394
  24350128.317    -6908587.105 8  -5368785.36645  24350128.218    24350143.2934
  23424563.212   -12238335.157 8  -9514352.23445  23424562.453    23424575.1094
  21929843.036   -18566571.777 8 -14211344.93947  21929843.166    21929852.0884
  22750916.152   -12573363.743 8  -9760085.40046  22750915.959    22750926.1484
  20479466.681   -25579312.787 9 -19722858.74948  20479466.141    20479474.2544
  22876791.873   -11706175.066 8  -9100863.49246  22876792.077    22876803.5364
 00  1 23  1 12 30.0000000  0  7 24 06 10 04 09 05 30
  20239773.892   -26977946.481 9 -20999960.10348  20239773.726    20239782.0104
  24336819.825    -6978521.963 8  -5423279.68745  24336819.651    24336834.7724
  23405739.858   -12337251.895 8  -9591430.00045  23405739.074    23405751.6184
  21945799.402   -18482720.758 8 -14146006.46547  21945799.499    21945808.3744
  22766503.079   -12491453.787 8  -9696259.46446  22766502.918    22766513.1244
  20472518.260   -25615826.572 9 -19751310.96248  20472517.711    20472525.8004
  22859042.853   -11799446.144 8  -9173542.04446  22859042.974    22859054.3884
 00  1 23  1 13  0.0000000  0  7 24 06 10 04 09 05 30
  20242628.820   -26962943.666 9 -20988269.53848  20242628.650    20242636.9044
  24323516.187    -7048432.158 8  -5477754.81545  24323515.871    24323530.9664
  23386935.196   -12436069.917 8  -9668430.83745  23386934.472    23386946.9174
  21961805.042   -18398610.396 8 -14080465.87947  21961805.159    21961814.0024
  22782138.237   -12409290.884 8  -9632236.41546  22782138.064    22782148.2104
  20465654.624   -25651894.776 9 -19779415.96248  20465654.073    20465662.1484
  22841327.479   -11892540.107 8  -9246082.60046  22841327.608    22841338.9474
 00  1 23  1 13 30.0000000  0  7 24 06 10 04 09 05 30
  20245579.582   -26947436.974 9 -20976186.35448  20245579.427    20245587.6544
  24310220.118    -7118302.604 7  -5532198.97945  24310219.745    24310234.6714
  23368149.281   -12534789.800 8  -9745355.20145  23368148.558    23368160.8764
  21977861.146   -18314234.789 8 -14014718.61347  21977861.333    21977870.1224
  22797821.419   -12326875.555 8  -9568016.66846  22797821.217    22797831.3364
  20458875.029   -25687521.369 9 -19807176.85848  20458874.486    20458882.5394
  22823647.076   -11985449.958 8  -9318479.67546  22823647.218    22823658.5534
 00  1 23  1 14  0.0000000  0  7 24 06 10 04 09 05 30
  20248626.305   -26931426.032 9 -20963710.24548  20248626.138    20248634.3574
  24296937.689    -7188101.100 8  -5586587.09045  24296937.370    24296952.1504
  23349383.618   -12633403.566 8  -9822196.86945  23349382.829    23349395.0464
  21993967.166   -18229597.052 8 -13948767.10647  21993967.343    21993976.1214
  22813551.588   -12244212.755 8  -9503604.08046  22813551.387    22813561.5084
  20452177.356   -25722717.676 9 -19834602.46548  20452176.803    20452184.8324
  22806000.747   -12078181.605 8  -9390737.89846  22806000.885    22806012.1164
 00  1 23  1 14 30.0000000  0  7 24 06 10 04 09 05 30
  20251769.372   -26914908.882 9 -20950839.68848  20251769.212    20251777.4324
  24283670.267    -7257820.071 7  -5640913.26845  24283669.976    24283684.7974
  23330639.078   -12731905.982 8  -9898951.76245  23330638.266    23330650.3514
  22010123.008   -18144697.749 8 -13882611.77447  22010123.189    22010131.8924
  22829324.259   -12161326.703 8  -9439017.53146  22829324.058    22829334.1994
  20445555.293   -25757516.442 9 -19861718.29948  20445554.757    20445562.7704
  22788387.425   -12170739.257 8  -9462860.53046  22788387.609    22788398.7314
 00  1 23  1 15  0.0000000  0  7 24 06 10 04 09 05 30
  20255004.338   -26897908.740 9 -20937592.77348  20255004.173    20255012.3794
  24270414.367    -7327478.604 8  -5695192.33545  24270414.141    24270428.9034
  23311916.495   -12830292.856 8  -9975616.60545  23311915.637    23311927.6954
  22026326.233   -18059549.452 8 -13816262.43047  22026326.342    22026335.0704
  22845134.193   -12078244.807 8  -9374278.37546  22845133.993    22845144.1574
  20439007.602   -25791924.450 9 -19888529.64248  20439007.060    20439015.0654
  22770806.892   -12263124.455 8  -9534848.78446  22770807.119    22770818.1544
 00  1 23  1 15 30.0000000  0  7 24 06 10 04 09 05 30
  20258328.107   -26880441.876 9 -20923982.18348  20258327.951    20258336.1354
  24257168.754    -7397083.262 8  -5749429.45045  24257168.443    24257183.2084
  23293217.090   -12928558.287 8 -10052186.80346  23293216.192    23293228.1284
  22042571.558   -17974179.321 8 -13749740.22847  22042571.695    22042580.4164
  22860981.526   -11994965.996 8  -9309385.78146  22860981.402    22860991.6044
  20432535.385   -25825935.837 9 -19915031.93848  20432534.851    20432542.8354
  22753257.597   -12355345.990 8  -9606709.49746  22753257.808    22753268.8394
 00  1 23  1 16  0.0000000  0  7 24 06 10 04 09 05 30
  20261737.858   -26862523.488 9 -20910019.75648  20261737.691    20261745.8634
  24243931.296    -7466644.336 8  -5803632.60545  24243931.176    24243945.8554
  23274539.807   -13026707.226 8 -10128666.22846  23274538.902    23274550.7554
  22058857.136   -17888598.025 8 -13683053.49547  22058857.271    22058865.9744
  22876866.815   -11911488.134 8  -9244338.08046  22876866.685    22876876.8854
  20426139.456   -25859546.277 9 -19941221.80948  20426138.918    20426146.8764
  22735742.118   -12447389.714 8  -9678431.64546  22735742.304    22735753.3054
 00  1 23  1 16 30.0000000  0  7 24 06 10 04 09 05 30
  20265233.695   -26844152.519 9 -20895704.67048  20265233.531    20265241.6854
  24230697.094    -7536189.537 8  -5857823.40745  24230696.848    24230711.4014
  23255883.922   -13124743.348 8 -10205057.74146  23255883.098    23255894.9284
  22075180.553   -17802817.999 8 -13616211.89647  22075180.671    22075189.3684
  22892791.277   -11827805.066 8  -9179130.47746  22892791.060    22892801.2454
  20419821.494   -25892746.985 9 -19967092.41348  20419820.962    20419828.8934
  22718262.086   -12539246.361 8  -9750008.01346  22718262.354    22718273.3314
 00  1 23  1 17  0.0000000  0  7 24 06 10 04 09 05 30
  20268815.360   -26825330.788 9 -20881038.34348  20268815.181    20268823.3314
  24217463.883    -7605729.951 8  -5912010.45845  24217463.649    24217478.0704
  23237248.933   -13222670.117 8 -10281364.03746  23237248.069    23237259.8594
  22091542.896   -17716833.222 8 -13549210.76547  22091543.023    22091551.7154
  22908758.435   -11743897.280 8  -9113747.77946  22908758.197    22908768.3444
  20413587.225   -25925508.021 9 -19992620.41348  20413586.688    20413594.5944
  22700819.254   -12630907.948 8  -9821432.39946  22700819.530    22700830.4874
 00  1 23  1 17 30.0000000  0  7 24 06 10 04 09 05 30
  20272483.502   -26806054.142 9 -20866017.53848  20272483.342    20272491.4714
  24204232.712    -7675258.996 8  -5966188.68345  24204232.568    24204246.8884
  23218635.638   -13320482.987 8 -10357581.59846  23218634.725    23218646.5044
  22107945.963   -17630634.182 8 -13482042.68447  22107946.107    22107954.7784
  22924772.535   -11659742.773 8  -9048172.82546  22924772.300    22924782.4324
  20407440.459   -25957809.148 9 -20017790.04548  20407439.933    20407447.7864
  22683414.805   -12722368.052 8  -9892699.76946  22683415.059    22683426.0094
 00  1 23  1 18  0.0000000  0  7 24 06 10 04 09 05 30
  20276239.894   -26786313.868 9 -20850635.45948  20276239.741    20276247.8454
  24191001.692    -7744788.084 8  -6020366.92845  24191001.459    24191015.7184
  23200046.535   -13418168.398 8 -10433699.82746  23200045.593    23200057.3964
  22124391.242   -17544213.628 8 -13414701.99847  22124391.402    22124400.0204
  22940832.926   -11575344.696 8  -8982408.07046  22940832.732    22940842.8534
  20401380.129   -25989656.053 9 -20042605.75648  20401379.609    20401387.4314
  22666051.034   -12813614.514 8  -9963800.65646  22666051.240    22666062.1264
 00  1 23  1 18 30.0000000  0  7 24 06 10 04 09 05 30
  20280084.699   -26766109.418 9 -20834891.68648  20280084.530    20280092.5984
  24177772.160    -7814309.275 8  -6074539.03245  24177771.858    24177785.9444
  23181484.316   -13515712.095 8 -10509707.64846  23181483.393    23181495.2254
  22140880.062   -17457564.405 8 -13347183.11146  22140880.168    22140888.7944
  22956938.017   -11490711.836 8  -8916460.37446  22956937.843    22956947.9464
  20395409.377   -26021032.203 9 -20067054.63548  20395408.862    20395416.6624
  22648725.855   -12904658.222 8 -10034743.56846  22648726.024    22648736.8334
 00  1 23  1 19  0.0000000  0  7 24 06 10 04 09 05 30
  20284013.901   -26745461.227 9 -20818802.14948  20284013.730    20284021.7954
  24164548.263    -7883800.121 8  -6128687.47845  24164548.042    24164562.0444
  23162951.311   -13613103.059 8 -10585596.46346  23162950.313    23162962.0414
  22157413.083   -17370682.481 8 -13279482.91246  22157413.182    22157421.8474
  22973085.102   -11405858.198 8  -8850340.64346  22973084.944    22973095.0144
  20389528.634   -26051935.601 9 -20091135.13148  20389528.104    20389535.8924
  22631438.937   -12995500.536 8 -10105529.54346  22631439.111    22631449.8524
 00  1 23  1 19 30.0000000  0  7 24 06 10 04 09 05 30
  20288027.287   -26724370.536 9 -20802367.79948  20288027.121    20288035.1864
  24151330.993    -7953256.132 8  -6182808.77045  24151330.782    24151344.6704
  23144447.158   -13710341.904 8 -10661366.74446  23144446.233    23144457.8864
  22173987.690   -17283582.470 8 -13211612.76946  22173987.798    22173996.4274
  22989269.619   -11320807.830 8  -8784067.61746  22989269.500    22989279.5594
  20383735.348   -26082379.306 9 -20114857.40948  20383734.824    20383742.5904
  22614190.857   -13086138.696 8 -10176156.44846  22614191.072    22614201.7414
 00  1 23  1 20  0.0000000  0  7 24 06 10 04 09 05 30
  20292127.241   -26702824.812 9 -20785578.87048  20292127.083    20292135.1394
  24138119.883    -8022679.299 8  -6236904.48545  24138119.718    24138133.6574
  23125970.990   -13807434.127 8 -10737022.77246  23125970.044    23125981.6114
  22190603.772   -17196264.602 8 -13143572.87446  22190603.815    22190612.4594
  23005487.960   -11235579.816 8  -8717656.16746  23005487.823    23005497.9064
  20378027.733   -26112372.584 9 -20138228.68748  20378027.206    20378034.9654
  22596979.514   -13176583.771 8 -10246632.90946  22596979.747    22596990.3964
 00  1 23  1 20 30.0000000  0  7 24 06 10 04 09 05 30
  20296314.872   -26680818.462 9 -20768431.01748  20296314.714    20296322.7714
  24124919.055    -8092048.591 8  -6290958.19645  24124918.916    24124932.7544
  23107521.840   -13904384.179 8 -10812568.02246  23107520.937    23107532.3614
  22207264.024   -17108714.306 8 -13075351.86446  22207264.081    22207272.6924
  23021739.789   -11150175.507 8  -8651107.34846  23021739.671    23021749.8024
  20372408.496   -26141901.525 9 -20161238.14648  20372407.976    20372415.7344
  22579801.227   -13266855.465 8 -10316974.27846  22579801.449    22579812.0114
 00  1 23  1 21  0.0000000  0  7 24 06 10 04 09 05 30
  20300593.716   -26658332.813 9 -20750909.68848  20300593.552    20300601.6014
  24111728.374    -8161365.363 8  -6344971.00445  24111728.128    24111741.9874
  23089098.600   -14001197.974 8 -10888007.10346  23089097.721    23089109.0214
  22223969.263   -17020927.343 8 -13006946.44346  22223969.366    22223978.0024
  23038024.751   -11064597.560 8  -8584423.22046  23038024.558    23038034.7154
  20366875.866   -26170975.201 9 -20183892.86148  20366875.326    20366883.0804
  22562657.148   -13356947.007 8 -10387175.27146  22562657.398    22562667.9764
 00  1 23  1 21 30.0000000  0  7 24 06 10 04 09 05 30
  20304968.288   -26635344.115 9 -20732996.37248  20304968.123    20304976.1774
  24098546.306    -8230636.724 8  -6398948.40645  24098546.025    24098559.8874
  23070701.346   -14097875.340 8 -10963339.86946  23070700.447    23070711.6724
  22240721.024   -16932896.301 8 -12938350.83646  22240721.109    22240729.7664
  23054343.909   -10978839.906 8  -8517599.06446  23054343.650    23054353.8104
  20361430.105   -26199592.558 9 -20206192.01048  20361429.566    20361437.2944
  22545548.511   -13446852.500 8 -10457231.29646  22545548.752    22545559.3174
 00  1 23  1 22  0.0000000  0  7 24 06 10 04 09 05 30
  20309436.933   -26611861.177 9 -20714697.93848  20309436.750    20309444.7994
  24085375.135    -8299850.830 8  -6452881.19745  24085374.852    24085388.6974
  23052333.236   -14194399.195 8 -11038553.01446  23052332.343    23052343.5274
  22257520.075   -16844616.481 8 -12869561.35946  22257520.179    22257528.8344
  23070699.227   -10892892.016 8  -8450626.67146  23070698.987    23070709.1014
  20356073.651   -26227740.547 9 -20228125.41648  20356073.104    20356080.8144
  22528475.423   -13536571.011 8 -10527141.61546  22528475.711    22528486.2344
 00  1 23  1 22 30.0000000  0  7 24 06 10 04 09 05 30
  20313995.312   -26587906.718 9 -20696032.08748  20313995.124    20314003.1564
  24072215.871    -8369002.067 8  -6506764.99245  24072215.632    24072229.3474
  23033994.395   -14290768.811 8 -11113645.97446  23033993.589    23034004.6874
  22274363.721   -16756102.457 8 -12800589.38746  22274363.859    22274372.5134
  23087089.035   -10806763.251 8  -8383513.33346  23087088.801    23087098.8554
  20350807.600   -26255413.532 9 -20249688.69548  20350807.060    20350814.7344
  22511443.954   -13626071.133 8 -10596881.77746  22511444.272    22511454.6834
 00  1 23  1 23  0.0000000  0  7 24 06 10 04 09 05 30
  20318640.240   -26563497.316 9 -20677011.73848  20318640.048    20318648.0624
  24059065.610    -8438106.284 8  -6560612.14145  24059065.337    24059078.9934
  23015686.229   -14386977.694 8 -11188613.68846  23015685.433    23015696.5164
  22291246.769   -16667381.335 8 -12731456.04946  22291246.921    22291255.5824
  23103511.504   -10720462.329 8  -8316265.84846  23103511.272    23103521.3264
  20345630.264   -26282620.324 9 -20270888.71648  20345629.724    20345637.3704
  22494460.590   -13715318.380 8 -10666424.87746  22494460.899    22494471.2894
 00  1 23  1 23 30.0000000  0  7 24 06 10 04 09 05 30
  20323367.252   -26538656.595 9 -20657655.29348  20323367.056    20323375.0544
  24045921.988    -8507175.114 8  -6614431.72445  24045921.746    24045935.3074
  22997411.434   -14483011.224 8 -11263444.76146  22997410.675    22997421.6934
  22308164.483   -16578478.316 8 -12662180.96646  22308164.609    22308173.2644
  23119966.783   -10633989.179 8  -8248884.17646  23119966.550    23119976.6384
  20340541.772   -26309360.233 9 -20291724.93448  20340541.236    20340548.8474
  22477526.087   -13804309.280 8 -10735768.22946  22477526.333    22477536.6934
 00  1 23  1 24  0.0000000  0  7 24 06 10 04 09 05 30
  20328173.267   -26513400.374 9 -20637975.07848  20328173.089    20328181.0844
  24032785.109    -8576208.530 8  -6668223.69045  24032784.860    24032798.4384
  22979171.318   -14578862.668 8 -11338133.94346  22979170.572    22979181.5394
  22325113.976   -16489408.365 8 -12592775.80546  22325114.055    22325122.7534
  23136451.541   -10547361.349 8  -8181381.97446  23136451.308    23136461.3924
  20335543.677   -26335625.216 9 -20312191.07848  20335543.127    20335550.7204
  22460641.190   -13893039.259 8 -10804908.25546  22460641.452    22460651.7314
 00  1 23  1 24 30.0000000  0  7 24 06 10 04 09 05 30
  20333060.252   -26487718.779 9 -20617963.40548  20333060.096    20333068.0764
  24019652.402    -8645220.877 8  -6721999.25345  24019652.052    24019665.5764
  22960965.128   -14674535.985 8 -11412684.34446  22960964.356    22960975.2554
  22342095.525   -16400169.760 8 -12523239.22746  22342095.619    22342104.2704
  23152965.025   -10460582.292 8  -8113761.94646  23152964.756    23152974.9124
  20330634.229   -26361424.348 9 -20332294.22048  20330633.675    20330641.2364
  22443805.480   -13981510.780 8 -10873846.88046  22443805.777    22443815.9514
 00  1 23  1 25  0.0000000  0  7 24 06 10 04 09 05 30
  20338030.079   -26461601.968 9 -20597612.60448  20338029.925    20338037.8854
  24006521.660    -8714221.624 8  -6775765.74745  24006521.381    24006534.8624
  22942796.120   -14770014.156 8 -11487082.69246  22942795.334    22942806.1204
  22359110.445   -16310755.731 8 -12453565.96246  22359110.530    22359119.1624
  23169508.569   -10373645.191 8  -8046018.75646  23169508.313    23169518.4864
  20325812.637   -26386761.722 9 -20352037.55548  20325812.093    20325819.6174
  22427015.840   -14069740.369 8 -10942596.99746  22427016.120    22427026.1894
 00  1 23  1 25 30.0000000  0  7 24 06 10 04 09 05 30
  20343083.676   -26435045.054 9 -20576918.86148  20343083.516    20343091.4684
  23993394.498    -8783204.309 8  -6829518.19445  23993394.209    23993407.5954
  22924663.353   -14865301.609 8 -11561332.41946  22924662.507    22924673.2834
  22376160.749   -16221155.691 8 -12383747.73546  22376160.836    22376169.4314
  23186080.731   -10286557.606 8  -7978158.30746  23186080.451    23186090.7084
  20321080.250   -26411630.240 9 -20371415.54348  20321079.699    20321087.1984
  22410268.666   -14157746.517 8 -11011172.99546  22410268.954    22410278.9724
 00  1 23  1 26  0.0000000  0  7 24 06 10 04 09 05 30
  20348221.281   -26408046.538 9 -20555881.01948  20348221.120    20348229.0764
  23980273.474    -8852154.677 8  -6883245.43845  23980273.223    23980286.5174
  22906565.026   -14960408.047 8 -11635441.11546  22906564.166    22906574.9144
  22393249.598   -16131353.193 8 -12313771.77546  22393249.656    22393258.2884
  23202682.155   -10199316.513 8  -7910178.24246  23202681.878    23202692.1384
  20316436.557   -26436032.582 9 -20390430.28248  20316435.994    20316443.4814
  22393564.121   -14245529.114 8 -11079574.80846  22393564.358    22393574.2814
 00  1 23  1 26 30.0000000  0  7 24 06 10 04 09 05 30
  20353442.817   -26380607.077 9 -20534499.57848  20353442.675    20353450.6204
  23967156.946    -8921081.071 8  -6936954.02045  23967156.783    23967169.9734
  22888501.305   -15055332.172 8 -11709407.74346  22888500.501    22888511.2044
  22410374.811   -16041359.451 8 -12243646.78046  22410374.881    22410383.4804
  23219315.010   -10111909.800 8  -7842069.11846  23219314.803    23219325.0234
  20311879.868   -26459977.748 9 -20409088.77848  20311879.309    20311886.8024
  22376900.923   -14333094.172 8 -11147807.11546  22376901.114    22376910.9634
 00  1 23  1 27  0.0000000  0  7 24 06 10 04 09 05 30
  20358745.340   -26352742.047 9 -20512786.52348  20358745.174    20358753.1194
  23954047.446    -8989970.089 8  -6990633.48545  23954047.389    23954060.4254
  22870474.326   -15150063.533 8 -11783224.16946  22870473.521    22870484.1714
  22427533.437   -15951189.953 8 -12173384.81146  22427533.512    22427542.1704
  23235979.309   -10024338.292 8  -7773831.60046  23235979.116    23235989.3434
  20307411.656   -26483457.968 9 -20427384.98148  20307411.102    20307418.5854
  22360280.504   -14420434.056 8 -11215863.97046  22360280.750    22360290.5504
 00  1 23  1 27 30.0000000  0  7 24 06 10 04 09 05 30
  20364127.770   -26324456.832 9 -20490746.05648  20364127.628    20364135.5544
  23940947.635    -9058809.009 8  -7044273.92045  23940947.547    23940960.4894
  22852483.108   -15244606.708 8 -11856893.95046  22852482.316    22852493.0034
  22444723.415   -15860855.474 8 -12102994.29346  22444723.541    22444732.2304
  23252675.212    -9936600.880 8  -7705464.79646  23252674.988    23252685.2564
  20303032.576   -26506469.933 9 -20445316.30648  20303032.014    20303039.4764
  22343701.953   -14507554.106 8 -11283749.53146  22343702.227    22343711.9654
 00  1 23  1 28  0.0000000  0  7 24 06 10 04 09 05 30
  20369589.393   -26295755.675 9 -20468381.47748  20369589.247    20369597.1634
  23927856.892    -9127600.310 8  -7097877.26545  23927856.800    23927869.6304
  22834530.375   -15338947.885 8 -11930406.33546  22834529.604    22834540.2424
  22461942.992   -15770366.335 8 -12032483.24546  22461943.070    22461951.7364
  23269402.654    -9848697.519 8  -7636968.68046  23269402.468    23269412.6994
  20298742.758   -26529012.778 9 -20462882.08448  20298742.203    20298749.6424
  22327165.077   -14594455.507 8 -11351464.71846  22327165.265    22327174.9564
 00  1 23  1 28 30.0000000  0  7 24 06 10 04 09 05 30
  20375131.739   -26266630.332 9 -20445686.37048  20375131.590    20375139.4874
  23914774.049    -9196349.918 8  -7151448.13445  23914773.857    23914786.6664
  22816618.966   -15433072.704 8 -12003750.14146  22816618.124    22816628.6594
  22479189.986   -15679732.730 8 -11961859.64446  22479190.041    22479198.7474
  23286160.268    -9760636.059 8  -7568349.38046  23286160.067    23286170.1824
  20294545.547   -26551068.885 9 -20480068.59348  20294544.999    20294552.4204
  22310670.408   -14681134.617 8 -11419006.68846  22310670.615    22310680.2674
 00  1 23  1 29  0.0000000  0  7 24 06 10 04 09 05 30
  20380756.581   -26237071.638 9 -20422653.58048  20380756.406    20380764.2874
  23901700.398    -9265051.251 8  -7204981.39145  23901700.187    23901712.9484
  22798748.315   -15526982.618 8 -12076926.48546  22798747.526    22798757.9974
  22496469.116   -15588930.282 8 -11891104.46946  22496469.168    22496477.8794
  23302947.334    -9672419.654 8  -7499609.33246  23302947.076    23302957.2034
  20290442.658   -26572629.298 9 -20496868.84748  20290442.099    20290449.5154
  22294218.622   -14767588.602 8 -11486373.25146  22294218.824    22294228.4014
 00  1 23  1 29 30.0000000  0  7 24 06 10 04 09 05 30
  20386468.343   -26207055.785 9 -20399264.57348  20386468.172    20386476.0494
  23888634.005    -9333714.676 8  -7258485.11345  23888633.773    23888646.4644
  22780918.618   -15620677.740 8 -12149935.47046  22780917.779    22780928.2254
  22513783.040   -15497944.943 8 -11820206.78546  22513783.102    22513791.8454
  23319762.257    -9584056.451 8  -7430754.90946  23319762.005    23319772.1534
  20286434.748   -26593690.613 9 -20513280.20248  20286434.214    20286441.6134
  22277809.607   -14853817.718 8 -11553564.59646  22277809.804    22277819.3374
 00  1 23  1 30  0.0000000  0  7 24 06 10 04 09 05 30
  20392268.476   -26176575.697 9 -20375513.81948  20392268.306    20392276.1654
  23875573.483    -9402347.041 8  -7311964.64145  23875573.165    23875585.8364
  22763130.584   -15714153.748 8 -12222773.70346  22763129.764    22763140.2014
  22531134.143   -15406764.082 8 -11749156.75046  22531134.180    22531142.9504
  23336604.678    -9495549.135 8  -7361788.18446  23336604.445    23336614.5354
  20282523.465   -26614244.418 9 -20529296.08748  20282522.912    20282530.3104
  22261447.305   -14939801.351 8 -11620564.64046  22261447.491    22261456.9924
 00  1 23  1 30 30.0000000  0  7 24 06 10 04 09 05 30
  20398156.653   -26145633.119 9 -20351402.68448  20398156.470    20398164.2954
  23862519.878    -9470942.967 8  -7365415.78145  23862519.631    23862532.1804
  22745382.172   -15807421.349 8 -12295449.53646  22745381.371    22745391.8064
  22548524.967   -15315374.516 8 -11677944.08346  22548525.061    22548533.8174
  23353475.304    -9406893.365 8  -7292705.78846  23353475.125    23353485.2014
  20278708.783   -26634290.463 9 -20544916.32148  20278708.232    20278715.5834
  22245134.981   -15025522.466 8 -11687360.13446  22245135.154    22245144.6384
 00  1 23  1 31  0.0000000  0  7 24 06 10 04 09 05 30
  20404130.249   -26114241.457 9 -20326941.61448  20404130.065    20404137.8984
  23849473.242    -9539502.818 8  -7418838.82545  23849473.084    23849485.4564
  22727672.126   -15900487.460 8 -12367968.37346  22727671.361    22727681.7064
  22565953.703   -15223785.500 8 -11606575.97346  22565953.865    22565962.6494
  23370371.381    -9318104.068 8  -7223519.33246  23370371.199    23370381.1884
  20274985.045   -26653858.738 9 -20560164.26748  20274984.480    20274991.7884
  22228873.322   -15110977.018 8 -11753947.91146  22228873.511    22228882.9974
 00  1 23  1 31 30.0000000  0  7 24 06 10 04 09 05 30
  20410186.430   -26082415.885 9 -20302142.42448  20410186.262    20410194.0894
  23836435.694    -9608014.802 8  -7472224.57745  23836435.540    23836447.8074
  22710002.091   -15993343.735 8 -12440323.68946  22710001.243    22710011.5554
  22583416.554   -15132017.731 8 -11535068.57846  22583416.706    22583425.4374
  23387291.644    -9229186.979 8  -7154233.30446  23387291.495    23387301.5014
  20271351.344   -26672953.838 9 -20575043.50148  20271350.786    20271358.0564
  22212666.996   -15196141.148 8 -11820309.37346  22212667.201    22212676.6614
 00  1 23  1 32  0.0000000  0  7 24 06 10 04 09 05 30
  20416316.168   -26050203.696 9 -20277041.97748  20416315.999    20416323.8194
  23823404.792    -9676492.128 8  -7525583.31545  23823404.581    23823416.8054
  22692370.318   -16085998.554 8 -12512522.03546  22692369.450    22692379.7364
  22600908.523   -15040096.609 8 -11463441.67346  22600908.686    22600917.4074
  23404233.686    -9140156.039 8  -7084858.57046  23404233.506    23404243.5254
  20267804.135   -26691594.071 9 -20589568.29348  20267803.592    20267810.8484
  22196516.626   -15281011.161 8 -11886441.66846  22196516.792    22196526.2324
 00  1 23  1 32 30.0000000  0  7 24 06 10 04 09 05 30
  20422515.957   -26017623.461 9 -20251654.74948  20422515.816    20422523.6234
  23810377.488    -9744950.087 8  -7578926.95845  23810377.269    23810389.4464
  22674776.041   -16178455.645 8 -12584566.30946  22674775.240    22674785.4974
  22618426.039   -14948041.257 8 -11391710.17846  22618426.230    22618434.9184
  23421194.190    -9051028.498 8  -7015408.56946  23421193.975    23421204.0264
  20264341.555   -26709789.845 9 -20603746.76048  20264341.019    20264348.2814
  22180418.282   -15365607.557 8 -11952360.76546  22180418.466    22180427.8734
 00  1 23  1 33  0.0000000  0  7 24 06 10 04 09 05 30
  20428785.887   -25984674.652 9 -20225980.31948  20428785.716    20428793.5134
  23797351.918    -9813398.807 8  -7632263.40445  23797351.736    23797363.8574
  22657222.078   -16270701.307 8 -12656445.83946  22657221.313    22657231.4624
  22635965.702   -14855869.629 8 -11319888.06946  22635965.827    22635974.5274
  23438171.471    -8961812.509 8  -6945889.62846  23438171.272    23438181.3164
  20260963.947   -26727539.017 9 -20617577.22348  20260963.407    20260970.6734
  22164369.698   -15449943.002 8 -12018076.53647  22164369.886    22164379.2304
 00  1 23  1 33 30.0000000  0  7 24 06 10 04 09 05 30
  20435126.508   -25951354.402 9 -20200016.45648  20435126.346    20435134.1274
  23784325.663    -9881851.353 8  -7685602.82645  23784325.485    23784337.5544
  22639709.449   -16362730.078 8 -12728156.36746  22639708.646    22639718.7554
  22653529.587   -14763570.704 8 -11247966.75846  22653529.678    22653538.3384
  23455165.052    -8872510.739 8  -6876303.85246  23455164.857    23455174.8594
  20257677.427   -26744809.280 9 -20631034.51048  20257676.892    20257684.1614
  22148370.542   -15534018.439 8 -12083589.70347  22148370.732    22148380.0264
 00  1 23  1 34  0.0000000  0  7 24 06 10 04 09 05 30
  20441541.233   -25917644.538 9 -20173748.99548  20441541.066    20441548.8534
  23771298.790    -9950306.989 8  -7738944.64145  23771298.523    23771310.6774
  22622241.039   -16454526.511 8 -12799685.86446  22622240.190    22622250.1954
  22671120.034   -14671131.880 8 -11175936.41846  22671120.180    22671128.8424
  23472177.093    -8783112.105 8  -6806642.59146  23472176.870    23472186.8684
  20254486.611   -26761576.986 9 -20644100.19548  20254486.061    20254493.3214
  22132419.800   -15617839.691 8 -12148904.81747  22132419.985    22132429.2094
 00  1 23  1 34 30.0000000  0  7 24 06 10 04 09 05 30
  20448036.568   -25883511.134 9 -20147151.51248  20448036.399    20448044.1874
  23758276.911   -10018736.581 8  -7792266.17545  23758276.657    23758288.7494
  22604819.935   -16546073.968 8 -12871021.36246  22604819.130    22604829.0264
  22688737.318   -14578552.393 8 -11103796.46246  22688737.425    22688746.0684
  23489209.778    -8693605.016 8  -6736896.81446  23489209.548    23489219.5954
  20251396.825   -26777813.635 9 -20656752.07348  20251396.280    20251403.5234
  22116516.933   -15701409.475 8 -12214023.98447  22116517.124    22116526.2364
 00  1 23  1 35  0.0000000  0  7 24 06 10 04 09 05 30
  20454614.459   -25848943.701 9 -20120215.82048  20454614.295    20454622.0774
  23745264.627   -10087115.797 8  -7845548.44745  23745264.386    23745276.3094
  22587450.781   -16637348.757 8 -12942144.39346  22587449.954    22587459.7654
  22706382.261   -14485827.477 8 -11031543.22446  22706382.358    22706391.0044
  23506266.079    -8603973.132 8  -6667053.79346  23506265.941    23506275.9904
  20248411.024   -26793503.915 9 -20668978.21648  20248410.477    20248417.6964
  22100669.335   -15784688.875 8 -12278916.88547  22100669.485    22100678.5594
 00  1 23  1 35 30.0000000  0  7 24 06 10 04 09 05 30
  20461274.193   -25813946.511 9 -20092945.25348  20461274.025    20461281.7874
  23732263.609   -10155435.789 8  -7898784.55845  23732263.346    23732275.2484
  22570134.431   -16728345.818 8 -13013051.01846  22570133.622    22570143.3944
  22724055.816   -14392952.168 8 -10959172.79146  22724055.904    22724064.4674
  23523346.698    -8514213.943 8  -6597111.57746  23523346.526    23523356.5964
  20245529.950   -26808643.876 9 -20680775.54148  20245529.402    20245536.6044
  22084880.882   -15867657.036 8 -12343567.25547  22084881.055    22084890.0854
 00  1 23  1 36  0.0000000  0  7 24 06 10 04 09 05 30
  20468012.426   -25778536.788 9 -20065353.23848  20468012.250    20468019.9824
  23719277.548   -10223677.190 8  -7951959.44646  23719277.317    23719289.1194
  22552871.882   -16819060.082 8 -13083737.27846  22552871.083    22552880.8424
  22741756.552   -14299933.766 8 -10886690.83746  22741756.650    22741765.2074
  23540452.638    -8424321.679 8  -6527065.67246  23540452.484    23540462.5244
  20242750.363   -26823250.522 9 -20692157.29548  20242749.816    20242756.9864
  22069150.881   -15950318.120 8 -12407978.34747  22069151.035    22069160.0414
 00  1 23  1 36 30.0000000  0  7 24 06 10 04 09 05 30
  20474825.960   -25742731.203 9 -20037452.75648  20474825.813    20474833.5304
  23706304.128   -10291851.802 8  -8005082.28945  23706303.897    23706315.7284
  22535661.936   -16909498.317 8 -13154208.45846  22535661.087    22535670.8594
  22759482.684   -14206781.702 8 -10814104.70146  22759482.848    22759491.3904
  23557582.171    -8334305.592 8  -6456923.27046  23557581.955    23557592.0314
  20240068.288   -26837344.774 9 -20703139.78248  20240067.723    20240074.8794
  22053478.429   -16032676.698 8 -12472153.72447  22053478.585    22053487.5434
 00  1 23  1 37  0.0000000  0  7 24 06 10 04 09 05 30
  20481710.353   -25706553.335 9 -20009262.18748  20481710.197    20481717.9164
  23693336.619   -10359995.399 8  -8058180.98645  23693336.495    23693348.1464
  22518502.289   -16999671.929 8 -13224473.44046  22518501.476    22518511.2684
  22777235.896   -14113487.959 8 -10741408.18346  22777235.998    22777244.5454
  23574733.334    -8244176.259 8  -6386692.63046  23574733.091    23574743.0944
  20237477.491   -26850959.315 9 -20713748.47348  20237476.946    20237484.0884
  22037861.883   -16114741.355 8 -12536100.05747  22037862.096    22037871.0344
 00  1 23  1 37 30.0000000  0  7 24 06 10 04 09 05 30
  20488663.904   -25670012.174 9 -19980788.53248  20488663.743    20488671.4624
  23680373.479   -10428116.333 8  -8111262.02945  23680373.330    23680384.9474
  22501388.617   -17089604.166 8 -13294550.33346  22501387.794    22501397.5474
  22795014.678   -14020059.283 8 -10668606.54346  22795014.770    22795023.3714
  23591901.729    -8153955.849 8  -6316391.01646  23591901.487    23591911.4964
  20234973.673   -26864116.645 9 -20724000.89148  20234973.130    20234980.2454
  22022295.122   -16196544.486 8 -12599842.61447  22022295.362    22022304.2594
 00  1 23  1 38  0.0000000  0  7 24 06 10 04 09 05 30
  20495685.214   -25633114.906 9 -19952037.38448  20495685.043    20495692.7694
  23667412.214   -10496227.333 8  -8164335.32045  23667412.063    23667423.6054
  22484319.083   -17179304.135 8 -13364446.23846  22484318.321    22484328.0154
  22812815.732   -13926513.922 8 -10595713.97346  22812815.837    22812824.3974
  23609086.142    -8063650.832 8  -6246023.48446  23609085.999    23609095.9774
  20232556.026   -26876821.508 9 -20733900.73848  20232555.473    20232562.5644
  22006775.676   -16278098.705 8 -12663391.19647  22006775.946    22006784.8524
 00  1 23  1 38 30.0000000  0  7 24 06 10 04 09 05 30
  20502779.097   -25595836.021 9 -19922988.87148  20502778.932    20502786.6654
  23654449.573   -10564345.726 8  -8217414.38746  23654449.355    23654460.9004
  22467294.379   -17268768.990 8 -13434158.95246  22467293.597    22467303.2294
  22830637.014   -13832861.704 8 -10522738.16046  22830637.189    22830645.7424
  23626284.749    -7973271.696 8  -6175598.19446  23626284.544    23626294.5184
  20230225.516   -26889068.198 9 -20743443.56948  20230224.967    20230232.0494
  21991306.245   -16359390.341 8 -12726735.17247  21991306.526    21991315.3784
 00  1 23  1 39  0.0000000  0  7 24 06 10 04 09 05 30
  20509946.636   -25558170.092 9 -19893638.75848  20509946.470    20509954.2294
  23641488.178   -10632457.260 8  -8270488.12546  23641488.029    23641499.4864
  22450313.885   -17358001.473 8 -13503690.59146  22450313.102    22450322.6554
  22848480.428   -13739093.609 8 -10449672.03846  22848480.566    22848489.1154
  23643495.354    -7882828.834 8  -6105123.23046  23643495.199    23643505.1914
  20227985.288   -26900840.468 9 -20752616.72348  20227984.738    20227991.8264
  21975890.908   -16440398.088 8 -12789857.93247  21975891.147    21975899.9224
 00  1 23  1 39 30.0000000  0  7 24 06 10 04 09 05 30
  20517189.833   -25520106.822 9 -19863979.03348  20517189.685    20517197.4224
  23628532.147   -10700541.007 8  -8323540.21646  23628531.978    23628543.3224
  22433378.688   -17446996.172 8 -13573036.95346  22433377.926    22433387.3814
  22866344.275   -13645218.228 8 -10376522.29346  22866344.419    22866352.9084
  23660718.445    -7792321.110 8  -6034597.73746  23660718.266    23660728.2084
  20225841.279   -26912107.146 9 -20761395.91048  20225840.732    20225847.8064
  21960533.143   -16521103.485 8 -12852745.08847  21960533.329    21960542.0294
 00  1 23  1 40  0.0000000  0  7 24 06 10 04 09 05 30
  20524511.861   -25481629.184 9 -19833996.41348  20524511.696    20524519.4254
  23615581.319   -10768597.102 8  -8376570.76946  23615581.183    23615592.4684
  22416493.737   -17535726.769 8 -13642177.52046  22416492.935    22416502.3324
  22884230.435   -13551225.359 8 -10303281.04046  22884230.567    22884239.0834
  23677956.831    -7701733.062 8  -5964009.63046  23677956.592    23677966.5724
  20223798.764   -26922840.631 9 -20769759.62248  20223798.206    20223805.2694
  21945235.986   -16601489.910 8 -12915383.66847  21945236.179    21945244.8194
 00  1 23  1 40 30.0000000  0  7 24 06 10 04 09 05 30
  20531914.417   -25442728.468 9 -19803684.12448  20531914.262    20531921.9504
  23602639.991   -10836603.796 8  -8429562.84346  23602639.803    23602651.0804
  22399661.625   -17624179.440 8 -13711101.52046  22399660.818    22399670.1824
  22902143.476   -13457091.669 8 -10229930.04446  22902143.596    22902152.0414
  23695211.450    -7611059.331 8  -5893354.77046  23695211.237    23695221.2654
  20221858.728   -26933035.457 9 -20777703.59848  20221858.169    20221865.2114
  21930000.490   -16681552.224 9 -12977769.69047  21930000.697    21930009.2804
 00  1 23  1 41  0.0000000  0  7 24 06 10 04 09 05 30
  20539393.974   -25403423.059 9 -19773056.47948  20539393.834    20539401.4914
  23589709.835   -10904551.664 8  -8482509.08446  23589709.664    23589720.9254
  22382883.303   -17712349.523 8 -13779805.31746  22382882.533    22382891.7884
  22920083.472   -13362816.242 8 -10156468.63846  22920083.517    22920091.9254
  23712484.239    -7520290.314 8  -5822625.65446  23712484.049    23712494.0494
  20220021.337   -26942690.499 9 -20785226.95948  20220020.781    20220027.8214
  21914825.332   -16761297.525 8 -13039908.70047  21914825.532    21914834.0424
 00  1 23  1 41 30.0000000  0  7 24 06 10 04 09 05 30
  20546950.102   -25363715.168 9 -19742115.21248  20546949.953    20546957.5994
  23576787.272   -10972459.702 8  -8535424.28446  23576787.110    23576798.2974
  22366162.943   -17800214.913 8 -13848271.69246  22366162.158    22366171.3894
  22938047.500   -13268414.657 8 -10082908.90446  22938047.570    22938055.8814
  23729775.693    -7429423.154 8  -5751820.05246  23729775.479    23729785.5284
  20218285.157   -26951813.801 9 -20792335.98148  20218284.613    20218291.6694
  21899708.418   -16840736.815 9 -13101809.27447  21899708.627    21899717.0524
 00  1 23  1 42  0.0000000  0  7 24 06 10 04 09 05 30
  20554581.317   -25323612.920 9 -19710866.64648  20554581.160    20554588.8104
  23563871.756   -11040331.021 8  -8588310.88846  23563871.522    23563882.7044
  22349503.892   -17887758.043 8 -13916486.96346  22349503.141    22349512.3094
  22956034.506   -13173892.235 8 -10009255.01546  22956034.558    22956042.8284
  23747082.114    -7338477.126 8  -5680953.01446  23747081.887    23747091.9924
  20216646.198   -26960426.236 9 -20799046.92948  20216645.648    20216652.7054
  21884649.966   -16919868.748 8 -13163470.33847  21884650.182    21884658.5904
 00  1 23  1 42 30.0000000  0  7 24 06 10 04 09 05 30
  20562283.192   -25283139.045 9 -19679328.50348  20562283.018    20562290.6694
  23550962.098   -11108170.633 8  -8641172.77946  23550961.909    23550973.1544
  22332904.508   -17974987.837 8 -13984458.07246  22332903.743    22332912.8664
  22974042.285   -13079260.529 8  -9935515.98046  22974042.312    22974050.5464
  23764398.737    -7247477.469 8  -5610044.17946  23764398.469    23764408.6144
  20215100.929   -26968546.555 9 -20805374.40548  20215100.387    20215107.4204
  21869651.278   -16998686.718 9 -13224886.76247  21869651.495    21869659.8964
 00  1 23  1 43  0.0000000  0  7 24 06 10 04 09 05 30
  20570055.432   -25242295.424 9 -19647502.24948  20570055.247    20570062.9134
  23538054.650   -11175999.034 8  -8694025.90746  23538054.424    23538065.7284
  22316364.133   -18061907.633 8 -14052187.63046  22316363.343    22316372.4014
  22992067.660   -12984536.147 8  -9861704.74646  22992067.723    22992075.9384
  23781721.710    -7156444.172 8  -5539109.12146  23781721.517    23781731.7204
  20213648.827   -26976177.320 9 -20811320.40748  20213648.293    20213655.3074
  21854712.996   -17077187.354 9 -13286055.92147  21854713.177    21854721.5824
 00  1 23  1 43 30.0000000  0  7 24 06 10 04 09 05 30
  20577897.765   -25201083.310 9 -19615388.85948  20577897.588    20577905.2554
  23525150.372   -11243810.812 8  -8746866.09146  23525150.078    23525161.4054
  22299883.813   -18148511.734 8 -14119671.19246  22299883.023    22299892.0024
  23010110.851   -12889718.375 8  -9787820.72946  23010110.952    23010119.1164
  23799047.483    -7065396.855 8  -5468163.16046  23799047.172    23799057.4004
  20212290.779   -26983313.968 9 -20816881.38348  20212290.233    20212297.2154
  21839836.205   -17155364.727 8 -13346973.19947  21839836.386    21839844.7834
 00  1 23  1 44  0.0000000  0  7 24 06 10 04 09 05 30
  20585809.182   -25159508.245 9 -19582992.64048  20585809.011    20585816.6704
  23512252.378   -11311589.266 8  -8799680.30946  23512252.186    23512263.4194
  22283460.296   -18234817.487 8 -14186922.27746  22283459.482    22283468.3804
  23028173.093   -12794800.296 8  -9713858.54846  23028173.257    23028181.4204
  23816376.439    -6974332.361 8  -5397203.80345  23816376.225    23816386.3024
  20211028.768   -26989945.824 9 -20822049.01048  20211028.206    20211035.1814
  21825021.029   -17233218.359 8 -13407638.20747  21825021.212    21825029.6074
 00  1 23  1 44 30.0000000  0  7 24 06 10 04 09 05 30
  20593788.831   -25117574.795 9 -19550317.16148  20593788.657    20593796.3144
  23499361.006   -11379333.477 8  -8852467.83046  23499360.811    23499371.8954
  22267091.433   -18320835.951 8 -14253949.51646  22267090.584    22267099.4274
  23046255.514   -12699776.277 8  -9639813.83946  23046255.670    23046263.8324
  23833712.832    -6883228.984 8  -5326214.13745  23833712.634    23833722.7234
  20209866.819   -26996051.555 9 -20826806.67048  20209866.261    20209873.2534
  21810267.153   -17310749.636 9 -13468052.04047  21810267.356    21810275.7254
 00  1 23  1 45  0.0000000  0  7 24 06 10 04 09 05 30
  20601837.621   -25075277.922 9 -19517358.49548  20601837.425    20601845.0814
  23486476.867   -11447039.416 8  -8905225.52146  23486476.631    23486487.7124
  22250779.282   -18406555.929 8 -14320744.16546  22250778.477    22250787.2754
  23064358.308   -12604645.445 8  -9565685.90746  23064358.487    23064366.6114
  23851061.117    -6792062.648 8  -5255175.42345  23851060.894    23851071.0464
  20208809.583   -27001607.103 9 -20831135.61748  20208809.033    20208816.0254
  21795573.421   -17387964.951 9 -13528219.66147  21795573.649    21795581.9994
 00  1 23  1 45 30.0000000  0  7 24 06 10 04 09 05 30
  20609954.519   -25032623.012 9 -19484120.84148  20609954.326    20609961.9644
  23473602.735   -11514692.830 8  -8957942.29846  23473602.554    23473613.5094
  22234525.199   -18491971.199 8 -14387301.39346  22234524.419    22234533.1584
  23082482.120   -12509404.200 8  -9491471.92246  23082482.261    23082490.3974
  23868425.420    -6700812.452 8  -5184071.37145  23868425.283    23868435.4214
  20207859.574   -27006599.139 9 -20835025.45948  20207859.020    20207866.0194
  21780942.151   -17464852.347 9 -13588131.76047  21780942.367    21780950.6654
 00  1 23  1 46  0.0000000  0  7 24 06 10 04 09 05 30
  20618140.416   -24989605.500 9 -19450600.63748  20618140.249    20618147.8654
  23460738.305   -11582295.539 8  -9010619.54646  23460738.089    23460748.9674
  22218327.829   -18577088.403 8 -14453626.35346  22218327.032    22218335.7484
  23100626.771   -12414052.791 8  -9417172.11146  23100626.918    23100635.0754
  23885808.461    -6609464.149 8  -5112890.86345  23885808.309    23885818.4114
  20207016.887   -27011027.391 9 -20838475.98748  20207016.324    20207023.3194
  21766374.607   -17541404.620 9 -13647782.72247  21766374.813    21766383.0744
 00  1 23  1 46 30.0000000  0  7 24 06 10 04 09 05 30
  20626397.224   -24946215.402 9 -19416790.11148  20626397.043    20626404.6314
  23447882.835   -11649850.742 8  -9063259.78346  23447882.629    23447893.5554
  22202191.248   -18661886.291 8 -14519702.50546  22202190.464    22202199.1194
  23118791.297   -12318597.800 8  -9342791.55946  23118791.374    23118799.5714
  23903207.317    -6518032.640 8  -5041645.52246  23903207.134    23903217.2844
  20206280.533   -27014896.647 9 -20841490.93148  20206279.983    20206286.9424
  21751871.431   -17617618.438 9 -13707169.95247  21751871.673    21751879.8744
 00  1 23  1 47  0.0000000  0  7 24 06 10 04 09 05 30
  20634727.017   -24902441.809 9 -19382680.76648  20634726.856    20634734.3984
  23435037.208   -11717354.189 8  -9115859.68546  23435037.032    23435047.9324
  22186116.665   -18746358.154 8 -14585524.61346  22186115.872    22186124.5364
  23136974.661   -12223043.233 8  -9268333.43246  23136974.786    23136982.9894
  23920619.278    -6426531.962 8  -4970346.28246  23920619.080    23920629.2644
  20205648.961   -27018215.473 9 -20844076.97348  20205648.411    20205655.3294
  21737433.916   -17693487.523 9 -13766288.56347  21737434.158    21737442.3134
 00  1 23  1 47 30.0000000  0  7 24 06 10 04 09 05 30
  20643128.061   -24858294.021 9 -19348279.84548  20643127.880    20643135.4224
  23422201.990   -11784803.050 8  -9168417.05746  23422201.817    23422212.5994
  22170104.376   -18830502.622 8 -14651091.61346  22170103.587    22170112.2494
  23155178.062   -12127383.539 8  -9193793.40746  23155178.244    23155186.3664
  23938039.357    -6334988.615 8  -4899013.79346  23938039.160    23938049.3954
  20205116.843   -27021011.779 9 -20846255.85548  20205116.279    20205123.1644
  21723066.418   -17768988.564 9 -13825120.39247  21723066.644    21723074.7554
 00  1 23  1 48  0.0000000  0  7 24 06 10 04 09 05 30
  20651597.207   -24813788.114 9 -19313599.87048  20651597.037    20651604.5684
  23409374.205   -11852212.493 8  -9220943.68646  23409374.038    23409384.8724
  22154155.208   -18914315.620 8 -14716400.31846  22154154.418    22154163.0544
  23173399.149   -12031630.988 8  -9119181.05246  23173399.270    23173407.5404
  23955462.809    -6243428.513 8  -4827668.25346  23955462.529    23955472.6954
  20204677.690   -27023319.213 9 -20848053.79748  20204677.143    20204684.0194
  21708766.729   -17844133.584 9 -13883674.79647  21708766.934    21708774.9894
 00  1 23  1 48 30.0000000  0  7 24 06 10 04 09 05 30
  20660129.558   -24768950.152 9 -19278661.16148  20660129.400    20660136.9084
  23396549.758   -11919604.585 8  -9273456.79346  23396549.576    23396560.4524
  22138269.902   -18997793.125 8 -14781447.60546  22138269.086    22138277.6764
  23191634.837   -11935802.442 8  -9044509.46946  23191634.866    23191643.0874
  23972884.349    -6151877.554 8  -4756329.83146  23972884.138    23972894.2914
  20204328.894   -27025151.977 9 -20849481.86448  20204328.355    20204335.2304
  21694533.685   -17918928.107 9 -13941956.08047  21694533.867    21694541.9184
 00  1 23  1 49  0.0000000  0  7 24 06 10 04 09 05 30
  20668719.782   -24723807.989 9 -19243485.41648  20668719.603    20668727.0974
  23383727.028   -11986987.764 8  -9325962.94546  23383726.814    23383737.6784
  22122445.826   -19080948.587 8 -14846243.95546  22122445.010    22122453.6034
  23209883.794   -11839903.032 8  -8969782.68846  23209883.852    23209892.1794
  23990304.060    -6060336.120 8  -4684998.82746  23990303.868    23990314.0314
  20204067.880   -27026523.328 9 -20850550.38748  20204067.335    20204074.2134
  21680368.398   -17993366.576 9 -13999959.92447  21680368.574    21680376.6004
 00  1 23  1 49 30.0000000  0  7 24 06 10 04 09 05 30
  20677364.415   -24678379.851 9 -19208086.84048  20677364.259    20677371.7214
  23370903.667   -12054374.113 8  -9378471.58046  23370903.471    23370914.2434
  22106682.748   -19163783.560 8 -14910790.57346  22106681.943    22106690.5374
  23228143.050   -11743949.568 8  -8895013.75846  23228143.161    23228151.4664
  24007719.550    -5968816.928 8  -4613685.16346  24007719.432    24007729.5594
  20203892.792   -27027443.216 9 -20851267.12248  20203892.237    20203899.1024
  21666267.667   -18067465.655 9 -14057699.31147  21666267.865    21666275.8464
 00  1 23  1 50  0.0000000  0  7 24 06 10 04 09 05 30
  20686065.482   -24632655.266 9 -19172457.26148  20686065.315    20686072.7814
  23358078.557   -12121769.582 8  -9430987.31146  23358078.439    23358089.0454
  22090979.317   -19246305.034 8 -14975092.89946  22090978.534    22090987.1134
  23246409.544   -11647958.416 8  -8820215.43346  23246409.675    23246417.9974
  24025132.813    -5877309.764 8  -4542380.86846  24025132.717    24025142.7924
  20203809.415   -27027880.977 9 -20851608.17048  20203808.864    20203815.7124
  21652226.732   -18141250.668 9 -14115193.96747  21652226.935    21652234.8484
 00  1 23  1 50 30.0000000  0  7 24 06 10 04 09 05 30
  20694827.483   -24586610.565 9 -19136578.24748  20694827.299    20694834.7704
  23345254.526   -12189159.668 8  -9483498.84946  23345254.397    23345264.8994
  22075336.934   -19328506.317 8 -15039145.73447  22075336.123    22075344.6704
  23264685.901   -11551915.708 8  -8745376.92646  23264685.983    23264694.3884
  24042545.146    -5785807.138 8  -4471080.11545  24042545.043    24042555.1224
  20203825.979   -27027793.712 9 -20851540.10648  20203825.433    20203832.2654
  21638248.944   -18214704.076 9 -14172430.22747  21638249.152    21638256.9984
 00  1 23  1 51  0.0000000  0  7 24 06 10 04 09 05 30
  20703657.109   -24540210.183 9 -19100422.07848  20703656.937    20703664.3954
  23332434.848   -12256526.578 8  -9535992.32746  23332434.702    23332445.1234
  22059758.528   -19410371.087 8 -15102936.35247  22059757.678    22059766.1934
  23282974.936   -11455805.667 8  -8670485.92846  23282975.042    23282983.4804
  24059962.149    -5694280.354 8  -4399760.53145  24059962.045    24059972.0424
  20203946.475   -27027160.409 9 -20851046.55748  20203945.929    20203952.7424
  21624336.227   -18287815.245 9 -14229399.81247  21624336.433    21624344.2184
 00  1 23  1 51 30.0000000  0  7 24 06 10 04 09 05 30
  20712558.615   -24493432.249 9 -19063971.71448  20712558.434    20712565.9124
  23319621.662   -12323859.178 8  -9588459.08146  23319621.522    23319631.9314
  22044248.731   -19491875.200 8 -15166445.93847  22044247.865    22044256.3614
  23301277.602   -11359624.493 8  -8595539.53846  23301277.711    23301286.1704
  24077385.493    -5602720.478 8  -4328415.17245  24077385.283    24077395.2844
  20204175.005   -27025959.109 9 -20850110.41848  20204174.461    20204181.2554
  21610489.499   -18360579.837 9 -14286099.33547  21610489.699    21610497.4384
 00  1 23  1 52  0.0000000  0  7 24 06 10 04 09 05 30
  20721534.531   -24446263.288 9 -19027216.64948  20721534.350    20721541.8214
  23306816.803   -12391148.174 8  -9640891.88846  23306816.637    23306827.0464
  22028810.517   -19573002.953 8 -15229662.25047  22028809.682    22028818.1544
  23319596.311   -11263358.716 8  -8520527.20546  23319596.379    23319604.9614
  24094817.054    -5511116.952 8  -4257035.80045  24094816.856    24094826.8604
  20204512.857   -27024183.503 9 -20848726.76748  20204512.307    20204519.0784
  21596713.242   -18432974.111 9 -14342510.29847  21596713.417    21596721.1134
 00  1 23  1 52 30.0000000  0  7 24 06 10 04 09 05 30
  20730582.509   -24398715.780 9 -18990166.61148  20730582.327    20730589.8224
  23294021.821   -12458385.228 8  -9693284.20046  23294021.645    23294032.0414
  22013447.683   -19653734.780 8 -15292570.05447  22013446.858    22013455.2944
  23337931.453   -11167006.660 8  -8445447.61946  23337931.546    23337940.0564
  24112255.613    -5419476.524 8  -4185627.67745  24112255.453    24112265.3714
  20204954.149   -27021864.324 9 -20846919.55748  20204953.602    20204960.3454
  21583009.724   -18504985.736 9 -14398623.09647  21583009.923    21583017.5894
 00  1 23  1 53  0.0000000  0  7 24 06 10 04 09 05 30
  20739697.735   -24350814.635 9 -18952841.02048  20739697.566    20739705.0634
  23281235.672   -12525576.038 8  -9745640.51046  23281235.516    23281245.8834
  21998159.478   -19734074.159 8 -15355172.05647  21998158.682    21998167.0814
  23356278.798   -11070590.197 8  -8370317.88646  23356279.015    23356287.4424
  24129699.385    -5327808.538 7  -4114198.07845  24129699.196    24129709.1874
  20205491.490   -27019040.252 9 -20844718.92648  20205490.950    20205497.6794
  21569374.440   -18576639.214 9 -14454456.82147  21569374.633    21569382.2504
 00  1 23  1 53 30.0000000  0  7 24 06 10 04 09 05 30
  20748873.458   -24302595.812 9 -18915267.88548  20748873.284    20748880.7884
  23268457.136   -12592727.351 8  -9797966.07246  23268456.923    23268467.2664
  21982942.351   -19814040.166 8 -15417483.11647  21982941.547    21982949.9044
  23374635.188   -10974127.225 8  -8295151.85545  23374635.336    23374643.7604
  24147141.786    -5236147.980 7  -4042774.27445  24147141.581    24147151.6264
  20206122.773   -27015722.544 9 -20842133.64848  20206122.223    20206128.9494
  21555805.186   -18647945.258 9 -14510019.82547  21555805.407    21555812.9914
 00  1 23  1 54  0.0000000  0  7 24 06 10 04 09 05 30
  20758106.905   -24254073.575 9 -18877458.32948  20758106.722    20758114.2334
  23255683.475   -12659852.308 8  -9850271.08746  23255683.316    23255693.6594
  21967792.801   -19893651.012 8 -15479517.43147  21967792.004    21967800.3354
  23393000.819   -10877615.029 8  -8219947.49145  23393000.963    23393009.4164
  24164581.157    -5144502.604 7  -3971362.30545  24164580.989    24164591.1674
  20206847.514   -27011913.865 9 -20839165.79648  20206846.951    20206853.6684
  21542302.610   -18718901.284 9 -14565310.08347  21542302.814    21542310.3644
 00  1 23  1 54 30.0000000  0  7 24 06 10 04 09 05 30
  20767395.007   -24205264.183 9 -18839425.01548  20767394.812    20767402.3224
  23242914.160   -12726954.976 8  -9902558.74646  23242913.956    23242924.2244
  21952708.105   -19972921.330 8 -15541286.39947  21952707.277    21952715.6044
  23411374.879   -10781058.989 8  -8144708.96945  23411374.953    23411383.3174
  24182018.093    -5052870.787 7  -3899960.90745  24182017.967    24182028.1034
  20207668.021   -27007601.854 9 -20835805.73948  20207667.463    20207674.1514
  21528865.569   -18789512.758 9 -14620331.87247  21528865.787    21528873.2644
 00  1 23  1 55  0.0000000  0  7 24 06 10 04 09 05 30
  20776738.915   -24156161.492 9 -18801163.16048  20776738.733    20776746.2494
  23230149.023   -12794035.648 8  -9954829.28046  23230148.863    23230159.0104
  21937684.169   -20051872.124 8 -15602806.39747  21937683.368    21937691.6744
  23429758.594   -10684452.021 8  -8069430.79845  23429758.616    23429767.0754
  24199452.476    -4961252.683 7  -3828570.18945  24199452.298    24199462.4244
  20208591.064   -27002751.117 9 -20832025.90248  20208590.504    20208597.1594
  21515497.886   -18859759.940 9 -14675069.80947  21515498.081    21515505.5014
 00  1 23  1 55 30.0000000  0  7 24 06 10 04 09 05 30
  20786141.876   -24106748.595 9 -18762659.58548  20786141.694    20786149.1824
  23217390.345   -12861082.510 8 -10007073.45346  23217390.176    23217400.2724
  21922723.109   -20130492.671 8 -15664069.05447  21922722.315    21922730.6084
  23448155.702   -10587774.772 8  -7994097.89545  23448155.719    23448164.0654
  24216884.393    -4869647.314 8  -3757189.39945  24216884.250    24216894.2844
  20209622.624   -26997329.966 9 -20827801.58248  20209622.070    20209628.6844
  21502205.964   -18929608.762 9 -14729497.34147  21502206.173    21502213.5484
 00  1 23  1 56  0.0000000  0  7 24 06 10 04 09 05 30
  20795607.170   -24057008.069 9 -18723900.72348  20795606.981    20795614.4734
  23204640.288   -12928083.808 8 -10059282.15546  23204640.142    23204650.1664
  21907829.453   -20208758.856 8 -15725055.59347  21907828.656    21907836.9324
  23466567.725   -10491018.515 8  -7918703.41945  23466567.793    23466576.1794
  24234316.642    -4778040.775 8  -3685807.68445  24234316.392    24234326.4454
  20210763.074   -26991336.752 9 -20823131.49848  20210762.510    20210769.1354
  21488994.149   -18999036.905 9 -14783597.07847  21488994.349    21489001.6904
 00  1 23  1 56 30.0000000  0  7 24 06 10 04 09 05 30
  20805136.740   -24006929.666 9 -18684878.57848  20805136.554    20805144.0304
  23191901.495   -12995026.135 8 -10111444.88746  23191901.331    23191911.2864
  21893006.009   -20286656.177 8 -15785754.70847  21893005.208    21893013.4554
  23484992.493   -10394195.887 8  -7843257.18545  23484992.498    23485000.8184
  24251747.665    -4686440.442 8  -3614430.79145  24251747.455    24251757.4024
  20212012.290   -26984771.811 9 -20818015.91648  20212011.745    20212018.3364
  21475862.082   -19068046.066 9 -14837370.34947  21475862.240    21475869.5584
 00  1 23  1 57  0.0000000  0  7 24 06 10 04 09 05 30
  20814731.964   -23956506.185 9 -18645587.53748  20814731.791    20814739.2694
  23179175.669   -13061900.114 8 -10163554.35246  23179175.571    23179185.4854
  21878258.059   -20364156.658 8 -15846144.59647  21878257.278    21878265.4904
  23503429.759   -10297307.192 8  -7767759.46245  23503429.764    23503438.0774
  24269175.081    -4594858.356 8  -3543068.12445  24269174.910    24269184.9664
  20213369.015   -26977641.891 9 -20812460.08448  20213368.466    20213375.0614
  21462810.849   -19136630.248 9 -14890812.46747  21462811.005    21462818.2804
 00  1 23  1 57 30.0000000  0  7 24 06 10 04 09 05 30
  20824392.004   -23905742.278 9 -18606031.23148  20824391.824    20824399.3194
  23166461.197   -13128714.564 8 -10215617.43646  23166461.083    23166471.0134
  21863589.454   -20441240.216 8 -15906209.61447  21863588.673    21863596.8534
  23521877.783   -10200362.171 8  -7692217.81045  23521877.793    23521886.1084
  24286598.081    -4503300.357 8  -3471724.22045  24286597.868    24286607.8754
  20214830.280   -26969962.677 9 -20806476.23548  20214829.725    20214836.3104
  21449834.137   -19204822.861 9 -14943949.46947  21449834.319    21449841.5414
 00  1 23  1 58  0.0000000  0  7 24 06 10 04 09 05 30
  20834114.351   -23854651.015 9 -18566219.84448  20834114.173    20834121.6594
  23153756.696   -13195476.301 8 -10267639.45346  23153756.598    23153766.5154
  21849000.478   -20517905.251 8 -15965948.50347  21848999.742    21849007.8914
  23540336.094   -10103362.872 8  -7616633.91345  23540336.184    23540344.4694
  24304019.213    -4411751.805 8  -3400387.69345  24304018.987    24304029.0934
  20216395.468   -26961737.611 9 -20800067.04748  20216394.911    20216401.4654
  21436929.082   -19272638.753 9 -14996792.92447  21436929.273    21436936.4574
 00  1 23  1 58 30.0000000  0  7 24 06 10 04 09 05 30
  20843896.745   -23803244.200 9 -18526162.56548  20843896.561    20843904.0524
  23141062.529   -13262184.499 8 -10319619.74046  23141062.396    23141072.2744
  21834489.444   -20594160.835 8 -16025368.34947  21834488.678    21834496.8154
  23558804.539   -10006310.050 8  -7541008.29545  23558804.629    23558812.9574
  24321435.701    -4320228.077 8  -3329070.51345  24321435.380    24321445.5194
  20218063.984   -26952969.333 9 -20793234.58148  20218063.406    20218069.9744
  21424093.276   -19340090.994 9 -15049353.00747  21424093.459    21424100.6464
 00  1 23  1 59  0.0000000  0  7 24 06 10 04 09 05 30
  20853736.902   -23751533.665 9 -18485868.62448  20853736.718    20853744.2184
  23128376.732   -13328848.654 8 -10371565.71046  23128376.538    23128386.4084
  21820055.437   -20670011.721 8 -16084472.84147  21820054.681    21820062.7684
  23577284.038    -9909199.739 8  -7465337.86545  23577284.146    23577292.4204
  24338845.053    -4228741.830 8  -3257782.53545  24338844.728    24338854.7294
  20219834.206   -26943666.445 9 -20785985.54348  20219833.641    20219840.2144
  21411328.283   -19407171.119 9 -15101623.13547  21411328.456    21411335.6464
 00  1 23  1 59 30.0000000  0  7 24 06 10 04 09 05 30
  20863634.567   -23699521.016 9 -18445339.26648  20863634.367    20863641.8574
  23115696.411   -13395483.833 8 -10423489.09346  23115696.247    23115706.0554
  21805695.129   -20745475.440 8 -16143275.64547  21805694.342    21805702.3754
  23595774.010    -9812034.189 8  -7389624.45445  23595774.085    23595782.4104
  24356247.886    -4137289.030 8  -3186520.62645  24356247.601    24356257.6314
  20221705.480   -26933832.573 9 -20778322.75148  20221704.905    20221711.4964
  21398636.554   -19473866.120 9 -15153593.15947  21398636.722    21398643.9054
 00  1 23  2  0  0.0000000  0  7 24 06 10 04 09 05 30
  20873586.832   -23647221.589 9 -18404586.44948  20873586.647    20873594.1274
  23103021.913   -13462088.109 8 -10475388.38146  23103021.771    23103031.5634
  21791407.264   -20820558.442 8 -16201781.79147  21791406.453    21791414.4614
  23614272.112    -9714825.784 8  -7313877.57345  23614272.189    23614280.4664
  24373643.651    -4045873.503 8  -3115287.76145  24373643.378    24373653.4424
  20223674.683   -26923484.254 9 -20770259.09848  20223674.122    20223680.6994
  21386024.451   -19540142.563 9 -15205237.03547  21386024.653    21386031.8194
 00  1 23  2  0 30.0000000  0  7 24 06 10 04 09 05 30
  20883593.619   -23594635.826 9 -18363610.50548  20883593.449    20883600.8924
  23090352.615   -13528665.463 8 -10527266.69246  23090352.392    23090362.2334
  21777191.726   -20895261.283 8 -16259991.70847  21777190.905    21777198.9194
  23632774.580    -9617594.064 8  -7238112.54745  23632774.730    23632783.0954
  24391028.772    -3954513.862 8  -3044098.44645  24391028.482    24391038.6144
  20225740.773   -26912626.512 9 -20761798.48748  20225740.231    20225746.8034
  21373493.057   -19605994.922 9 -15256550.45647  21373493.279    21373500.4364
 00  1 23  2  1  0.0000000  0  7 24 06 10 04 09 05 30
  20893654.598   -23541765.147 9 -18322412.55348  20893654.404    20893661.8174
  23077685.893   -13595228.995 8 -10579134.22646  23077685.711    23077695.5124
  21763050.074   -20969575.827 8 -16317899.05547  21763049.245    21763057.2574
  23651280.978    -9520342.331 8  -7162331.95145  23651281.049    23651289.4384
  24408406.925    -3863191.064 8  -2972937.84645  24408406.611    24408416.7604
  20227906.578   -26901244.953 9 -20752929.71148  20227906.032    20227912.6004
  21361044.184   -19671413.554 9 -15307525.90447  21361044.427    21361051.5344
 00  1 23  2  1 30.0000000  0  7 24 06 10 04 09 05 30
  20903767.577   -23488621.163 9 -18281001.63548  20903767.383    20903774.7734
  23065024.751   -13661763.387 8 -10630979.05446  23065024.576    23065034.3314
  21748983.770   -21043494.433 8 -16375497.88047  21748982.943    21748990.9324
  23669790.801    -9423072.582 8  -7086537.32945  23669790.855    23669799.2094
  24425780.443    -3771892.494 8  -2901796.12945  24425780.213    24425790.2934
  20230172.296   -26889338.324 9 -20743651.79048  20230171.734    20230178.2984
  21348677.241   -19736401.951 9 -15358166.10647  21348677.468    21348684.5384
 00  1 23  2  2  0.0000000  0  7 24 06 10 04 09 05 30
  20913931.597   -23435208.641 9 -18239381.47047  20913931.407    20913938.7904
  23052370.538   -13728260.912 8 -10682795.14146  23052370.437    23052380.1704
  21734995.515   -21117002.835 8 -16432777.06947  21734994.696    21735002.6724
  23688302.280    -9325793.696 8  -7010735.56145  23688302.360    23688310.6854
  24443146.140    -3680635.568 7  -2830686.85145  24443145.882    24443155.9554
  20232536.942   -26876911.889 9 -20733968.83048  20232536.387    20232542.9514
  21336388.881   -19800977.205 9 -15408484.37747  21336389.116    21336396.1474
 00  1 23  2  2 30.0000000  0  7 24 06 10 04 09 05 30
  20924148.752   -23381516.845 9 -18197543.68847  20924148.573    20924155.9564
  23039721.479   -13794731.334 8 -10734590.11546  23039721.343    23039731.0784
  21721086.079   -21190097.073 8 -16489733.52347  21721085.236    21721093.2164
  23706817.607    -9228494.889 8  -6934918.21345  23706817.652    23706825.9914
  24460501.832    -3589430.683 7  -2759618.14945  24460501.566    24460511.7434
  20235001.783   -26863958.962 9 -20723875.61948  20235001.220    20235007.7674
  21324175.807   -19865156.824 9 -15458494.36447  21324176.060    21324183.0844
 00  1 23  2  3  0.0000000  0  7 24 06 10 04 09 05 30
  20934419.929   -23327541.514 9 -18155484.96947  20934419.743    20934427.1114
  23027078.921   -13861167.486 8 -10786358.37746  23027078.805    23027088.5604
  21707256.104   -21262773.676 9 -16546364.55147  21707255.270    21707263.2564
  23725337.766    -9131170.563 8  -6859080.97745  23725337.850    23725346.1184
  24477845.788    -3498287.988 7  -2688597.90845  24477845.550    24477855.6484
  20237565.019   -26850488.988 9 -20713379.51248  20237564.466    20237571.0044
  21312039.883   -19928931.231 9 -15508188.60647  21312040.132    21312047.1324
 00  1 23  2  3 30.0000000  0  7 24 06 10 04 09 05 30
  20944745.976   -23273277.634 9 -18113201.40947  20944745.784    20944753.1344
  23014444.328   -13927562.429 8 -10838094.52946  23014444.152    23014453.8884
  21693505.567   -21335032.771 8 -16602670.25747  21693504.739    21693512.7254
  23743859.939    -9033835.223 8  -6783235.16045  23743860.088    23743868.3944
  24495174.100    -3407227.108 7  -2617641.39945  24495173.874    24495183.9674
  20240224.059   -26836515.641 9 -20702491.17048  20240223.495    20240230.0144
  21299979.818   -19992307.017 9 -15557572.23947  21299980.041    21299986.9864
 00  1 23  2  4  0.0000000  0  7 24 06 10 04 09 05 30
  20955129.936   -23218709.419 9 -18070680.70747  20955129.775    20955137.0874
  23001814.967   -13993929.345 8 -10889808.85346  23001814.785    23001824.4984
  21679834.756   -21406873.019 8 -16658649.58247  21679833.934    21679841.8984
  23762384.274    -8936488.656 8  -6707380.64145  23762384.393    23762392.7414
  24512485.959    -3316253.056 7  -2546752.57745  24512485.650    24512495.7244
  20242981.532   -26822024.874 9 -20691199.64248  20242980.966    20242987.4974
  21287995.848   -20055282.876 9 -15606644.23747  21287996.077    21288003.0114
 00  1 23  2  4 30.0000000  0  7 24 06 10 04 09 05 30
  20965571.585   -23163837.973 9 -18027923.71447  20965571.417    20965578.7154
  22989192.293   -14060261.360 8 -10941495.96646  22989192.094    22989201.7974
  21666243.366   -21478296.195 9 -16714303.92047  21666242.513    21666250.4544
  23780911.943    -8839125.422 8  -6631513.04645  23780911.987    23780920.2584
  24529784.015    -3225351.044 7  -2475919.88845  24529783.744    24529793.8594
  20245842.652   -26806989.497 9 -20679483.74548  20245842.085    20245848.6114
  21276091.612   -20117839.672 9 -15655389.70347  21276091.838    21276098.7644
 00  1 23  2  5  0.0000000  0  7 24 06 10 04 09 05 30
  20976070.808   -23108664.174 9 -17984931.11947  20976070.658    20976077.9184
  22976579.423   -14126541.778 8 -10993142.88946  22976579.225    22976588.8654
  21652733.814   -21549288.937 8 -16769622.86047  21652732.985    21652740.8654
  23799441.718    -8741750.159 8  -6555636.16645  23799441.779    23799449.9904
  24547071.529    -3134504.186 7  -2405130.18045  24547071.246    24547081.4174
  20248811.394   -26791388.556 9 -20667327.15048  20248810.840    20248817.3874
  21264270.809   -20179958.115 9 -15703793.60047  21264271.022    21264277.9194
 00  1 23  2  5 30.0000000  0  7 24 06 10 04 09 05 30
  20986627.937   -23053186.156 9 -17941701.46347  20986627.760    20986635.0224
  22963975.162   -14192777.084 8 -11044754.64546  22963974.951    22963984.5044
  21639308.693   -21619838.005 9 -16824596.07447  21639307.869    21639315.7264
  23817976.266    -8644350.365 8  -6479740.16345  23817976.289    23817984.4714
  24564352.622    -3043691.516 7  -2334367.10545  24564352.362    24564362.5384
  20251891.408   -26775202.714 9 -20654714.78448  20251890.848    20251897.4144
  21252533.242   -20241639.080 9 -15751856.60247  21252533.457    21252540.3304
 00  1 23  2  6  0.0000000  0  7 24 06 10 04 09 05 30
  20997241.393   -22997411.920 9 -17898240.99147  20997241.222    20997248.4504
  22951379.571   -14258966.927 8 -11096330.98246  22951379.361    22951388.8214
  21625970.321   -21689931.238 8 -16879214.10047  21625969.503    21625977.3164
  23836518.238    -8546911.596 8  -6403813.81645  23836518.212    23836526.3054
  24581628.381    -2952907.330 7  -2263626.23945  24581627.993    24581638.2544
  20255082.416   -26758433.638 9 -20641647.94948  20255081.879    20255088.4404
  21240882.306   -20302864.971 9 -15799565.00747  21240882.493    21240889.3564
 00  1 23  2  6 30.0000000  0  7 24 06 10 04 09 05 30
  21007907.358   -22941361.905 9 -17854565.63447  21007907.178    21007914.4224
  22938792.513   -14325111.835 8 -11147872.31446  22938792.325    22938801.6934
  21612718.868   -21759567.967 9 -16933476.40947  21612718.017    21612725.7934
  23855066.693    -8449438.668 8  -6327860.76745  23855066.691    23855074.7474
  24598898.857    -2862149.945 7  -2192906.25145  24598898.587    24598908.8134
  20258381.924   -26741094.473 9 -20628136.89448  20258381.374    20258387.9314
  21229317.795   -20363636.449 9 -15846919.32447  21229317.999    21229324.8134
 00  1 23  2  7  0.0000000  0  7 24 06 10 04 09 05 30
  21018624.671   -22885042.014 9 -17810679.97947  21018624.489    21018631.7094
  22926213.183   -14391216.088 8 -11199381.96646  22926212.964    22926222.2794
  21599554.005   -21828749.703 9 -16987384.17247  21599553.121    21599560.8644
  23873621.589    -8351931.744 8  -6251881.23745  23873621.606    23873629.6824
  24616163.259    -2771424.768 7  -2122211.35045  24616163.115    24616173.3254
  20261784.929   -26723211.657 9 -20614202.21148  20261784.369    20261790.9084
  21217836.422   -20423970.943 9 -15893933.12747  21217836.627    21217843.4374
 00  1 23  2  7 30.0000000  0  7 24 06 10 04 09 05 30
  21029389.706   -22828471.383 9 -17766598.94347  21029389.517    21029396.7374
  22913639.726   -14457289.260 8 -11250867.41346  22913639.547    22913648.8524
  21586473.122   -21897489.854 9 -17040947.84847  21586472.236    21586479.9774
  23892181.027    -8254400.834 8  -6175882.96845  23892181.157    23892189.0604
  24633417.300    -2680755.056 7  -2051559.68245  24633417.110    24633427.2594
  20265286.062   -26704812.914 9 -20599865.50848  20265285.525    20265292.0374
  21206434.854   -20483886.111 9 -15940620.18647  21206435.061    21206441.8424
 00  1 23  2  8  0.0000000  0  7 24 06 10 04 09 05 30
  21040200.300   -22771661.135 9 -17722331.19447  21040200.123    21040207.3544
  22901072.027   -14523332.201 8 -11302329.30246  22901071.907    22901081.1484
  21573473.093   -21965804.823 9 -17094180.21047  21573472.226    21573479.9694
  23910741.054    -8156866.690 8  -6099882.18345  23910741.049    23910749.0144
  24650655.526    -2590168.036 7  -1980972.43145  24650655.207    24650665.4354
  20268883.672   -26685907.363 9 -20585133.88948  20268883.134    20268889.6314
  21195113.364   -20543380.615 9 -15986979.44847  21195113.568    21195120.3114
 00  1 23  2  8 30.0000000  0  7 24 06 10 04 09 05 30
  21051058.571   -22714600.491 9 -17677868.33947  21051058.396    21051065.6354
  22888510.632   -14589342.273 8 -11353765.58046  22888510.504    22888519.7104
  21560553.724   -22033696.297 9 -17147082.57847  21560552.880    21560560.6004
  23929299.992    -8059338.320 8  -6023885.92945  23929300.101    23929307.9174
  24667875.361    -2499677.285 8  -1910460.20845  24667875.175    24667885.2374
  20272580.394   -26666481.047 9 -20569996.47748  20272579.845    20272586.3044
  21183870.936   -20602459.690 9 -16033015.00047  21183871.131    21183877.8364
 00  1 23  2  9  0.0000000  0  7 24 06 10 04 09 05 30
  21061968.302   -22657269.363 9 -17633194.70647  21061968.123    21061975.3784
  22875957.115   -14655311.195 8 -11405169.78846  22875956.955    22875966.1014
  21547718.119   -22101147.657 9 -17199642.01047  21547717.236    21547724.9204
  23947857.272    -7961818.785 8  -5947896.54545  23947857.433    23947865.2394
  24685073.599    -2409299.898 7  -1840036.32945  24685073.419    24685083.5164
  20276376.763   -26646530.858 9 -20554450.85148  20276376.227    20276382.6694
  21172710.396   -20661108.359 9 -16078715.17247  21172710.598    21172717.2954
 00  1 23  2  9 30.0000000  0  7 24 06 10 04 09 05 30
  21072931.577   -22599656.718 9 -17588301.70347  21072931.403    21072938.6714
  22863412.200   -14721234.693 8 -11456538.60046  22863412.009    22863421.1014
  21534967.538   -22168152.150 9 -17251853.22947  21534966.693    21534974.3174
  23966413.398    -7864305.802 8  -5871912.25445  23966413.457    23966421.3824
  24702249.158    -2319042.112 8  -1769705.62945  24702248.939    24702259.1594
  20280276.083   -26626040.001 9 -20538483.92148  20280275.527    20280281.9724
  21161637.177   -20719298.115 9 -16124057.74347  21161637.364    21161644.0584
 00  1 23  2 10  0.0000000  0  7 24 06 10 04 09 05 30
  21083950.343   -22541752.641 9 -17543181.61747  21083950.155    21083957.4444
  22850878.711   -14787098.318 8 -11507860.76146  22850878.486    22850887.5384
  21522303.926   -22234699.595 9 -17303708.29947  21522303.070    21522310.6784
  23984970.806    -7766785.003 8  -5795921.90645  23984970.970    23984978.8564
  24719404.708    -2228889.513 7  -1699456.92745  24719404.472    24719414.7294
  20284281.691   -26604990.376 9 -20522081.58548  20284281.154    20284287.5674
  21150654.808   -20777010.576 9 -16169028.40747  21150654.996    21150661.6564
 00  1 23  2 10 30.0000000  0  7 24 06 10 04 09 05 30
  21095023.971   -22483560.326 9 -17497836.92947  21095023.779    21095031.0634
  22838358.276   -14852893.247 8 -11559129.37946  22838358.034    22838367.0464
  21509729.671   -22300777.429 9 -17355197.44547  21509728.834    21509736.4124
  24003531.159    -7669249.412 8  -5719920.02645  24003531.222    24003539.1234
  24736543.356    -2138825.547 8  -1629277.26245  24736543.128    24736553.2794
  20288392.061   -26583390.296 9 -20505250.31948  20288391.499    20288397.8924
  21139763.067   -20834247.080 9 -16213628.18347  21139763.236    21139769.8574
 00  1 23  2 11  0.0000000  0  7 24 06 10 04 09 05 30
  21106148.779   -22425098.942 9 -17452282.57647  21106148.578    21106155.8644
  22825849.268   -14918627.987 8 -11610351.10646  22825849.024    22825857.9694
  21497243.097   -22366394.538 9 -17406327.58247  21497242.249    21497249.8304
  24022093.922    -7571700.992 8  -5643908.12045  24022093.891    24022101.8344
  24753666.353    -2048843.285 8  -1559161.29245  24753666.233    24753676.3474
  20292604.857   -26561251.872 9 -20487999.57048  20292604.292    20292610.6674
  21128962.160   -20891006.108 9 -16257855.91147  21128962.304    21128968.8904
 00  1 23  2 11 30.0000000  0  7 24 06 10 04 09 05 30
  21117319.578   -22366395.611 9 -17406539.69047  21117319.384    21117326.6734
  22813349.567   -14984313.666 8 -11661534.60446  22813349.357    22813358.2504
  21484841.359   -22431565.764 9 -17457110.27047  21484840.525    21484848.0744
  24040658.829    -7474141.003 8  -5567887.17945  24040658.818    24040666.6054
  24770777.266    -1958925.128 7  -1489095.27945  24770777.158    24770787.3894
  20296920.119   -26538574.916 9 -20470329.19048  20296919.545    20296925.8894
  21118250.640   -20947295.124 9 -16301717.38847  21118250.789    21118257.3394
 00  1 23  2 12  0.0000000  0  7 24 06 10 04 09 05 30
  21128535.011   -22307457.756 9 -17360614.06347  21128534.830    21128542.1234
  22800857.362   -15049960.088 8 -11712687.52346  22800857.165    22800866.0334
  21472525.121   -22496287.850 9 -17507542.98647  21472524.281    21472531.8084
  24059222.913    -7376585.512 7  -5491869.76045  24059222.927    24059230.7584
  24787875.724    -1869072.100 7  -1419080.01145  24787875.601    24787885.8444
  20301335.990   -26515369.398 9 -20452246.94448  20301335.428    20301341.7454
  21107624.464   -21003135.600 9 -16345229.35547  21107624.626    21107631.1544
 00  1 23  2 12 30.0000000  0  7 24 06 10 04 09 05 30
  21139794.177   -22248290.457 9 -17314509.65747  21139793.995    21139801.2974
  22788369.635   -15115582.851 8 -11763822.01646  22788369.490    22788378.3484
  21460295.221   -22560556.271 9 -17557622.19647  21460294.377    21460301.8344
  24077783.797    -7279046.583 8  -5415865.28545  24077783.887    24077791.5444
  24804960.108    -1779293.197 7  -1349122.50845  24804959.953    24804970.2794
  20305852.119   -26491636.725 9 -20433753.93048  20305851.552    20305857.8704
  21097082.913   -21058531.383 9 -16388394.81747  21097083.083    21097089.5964
 00  1 23  2 13  0.0000000  0  7 24 06 10 04 09 05 30
  21151096.273   -22188897.569 9 -17268229.46247  21151096.091    21151103.3994
  22775887.043   -15181179.011 8 -11814935.78846  22775886.852    22775895.6194
  21448153.556   -22624360.704 9 -17607339.85447  21448152.703    21448160.1474
  24096342.284    -7181520.821 7  -5339871.03645  24096342.230    24096350.0374
  24822027.724    -1689602.270 7  -1279233.56745  24822027.588    24822037.9114
  20310471.938   -26467359.337 9 -20414836.45748  20310471.363    20310477.6864
  21086625.555   -21113484.676 9 -16431215.47647  21086625.743    21086632.2424
 00  1 23  2 13 30.0000000  0  7 24 06 10 04 09 05 30
  21162442.202   -22129274.148 9 -17221769.63547  21162442.006    21162449.3254
  22763413.390   -15246727.927 8 -11866012.76446  22763413.167    22763421.9064
  21436102.248   -22687690.260 9 -17656687.48147  21436101.416    21436108.8684
  24114897.933    -7084009.205 8  -5263887.78045  24114897.934    24114905.6594
  24839077.459    -1600005.661 7  -1209418.11345  24839077.365    24839087.6734
  20315193.613   -26442546.472 9 -20395501.73548  20315193.055    20315199.3704
  21076251.957   -21167998.019 9 -16473693.31847  21076252.144    21076258.5994
 00  1 23  2 14  0.0000000  0  7 24 06 10 04 09 05 30
  21173833.001   -22069415.108 9 -17175126.20947  21173832.831    21173840.1214
  22750949.545   -15312225.081 8 -11917049.38946  22750949.346    22750958.0904
  21424143.193   -22750535.339 9 -17705657.59547  21424142.355    21424149.7714
  24133449.880    -6986517.413 7  -5187920.03345  24133449.840    24133457.7014
  24856103.709    -1510532.852 7  -1139699.13345  24856103.638    24856113.9734
  20320014.076   -26417214.839 9 -20375762.77348  20320013.497    20320019.8134
  21065961.086   -21222076.698 9 -16515832.46747  21065961.259    21065967.6564
 00  1 23  2 14 30.0000000  0  7 24 06 10 04 09 05 30
  21185265.232   -22009338.414 9 -17128313.17747  21185265.036    21185272.3184
  22738495.479   -15377670.797 8 -11968045.93246  22738495.317    22738504.0334
  21412276.705   -22812893.894 9 -17754248.59347  21412275.880    21412283.2874
  24151997.820    -6889046.415 7  -5111968.53945  24151997.761    24152005.6134
  24873102.811    -1421202.515 7  -1070091.15345  24873102.659    24873112.8944
  20324930.536   -26391378.426 9 -20355630.47548  20324929.964    20324936.2994
  21055755.419   -21275707.402 9 -16557622.54547  21055755.594    21055761.9664
 00  1 23  2 15  0.0000000  0  7 24 06 10 04 09 05 30
  21196740.960   -21949032.990 9 -17081321.91847  21196740.762    21196748.0354
  22726049.719   -15443073.280 8 -12019008.78746  22726049.534    22726058.2444
  21400502.144   -22874769.034 9 -17802462.90747  21400501.331    21400508.7534
  24170540.298    -6791604.332 8  -5036039.53545  24170540.383    24170548.1064
  24890073.473    -1332021.441 7  -1000599.51145  24890073.310    24890083.6474
  20329940.765   -26365049.214 9 -20335114.17648  20329940.215    20329946.5614
  21045636.022   -21328885.049 9 -16599059.59547  21045636.189    21045642.5424
 00  1 23  2 15 30.0000000  0  7 24 06 10 04 09 05 30
  21208262.512   -21888486.822 9 -17034143.06947  21208262.335    21208269.5854
  22713608.938   -15508449.445 8 -12069951.12746  22713608.736    22713617.4364
  21388817.369   -22936172.692 9 -17850309.83247  21388816.571    21388823.9724
  24189075.613    -6694200.532 7  -4960140.35345  24189075.632    24189083.3014
  24907016.775    -1242983.994 7   -931219.76945  24907016.641    24907026.7924
  20335043.380   -26338234.666 9 -20314219.69448  20335042.813    20335049.1594
  21035607.357   -21381585.486 9 -16640124.79247  21035607.542    21035613.8934
 00  1 23  2 16  0.0000000  0  7 24 06 10 04 09 05 30
  21219830.572   -21827696.157 9 -16986773.69247  21219830.367    21219837.6194
  22701171.134   -15573810.182 8 -12120881.42946  22701170.937    22701179.5724
  21377223.042   -22997101.174 9 -17897786.49447  21377222.197    21377229.5844
  24207605.494    -6596824.997 7  -4884263.15645  24207605.502    24207613.1254
  24923934.502    -1154080.668 7   -861944.55145  24923934.369    24923944.6134
  20340244.173   -26310904.394 9 -20292923.34848  20340243.603    20340249.9334
  21025672.925   -21433791.052 9 -16680804.37347  21025673.090    21025679.4374
 00  1 23  2 16 30.0000000  0  7 24 06 10 04 09 05 30
  21231447.822   -21766646.909 9 -16939202.81447  21231447.645    21231454.8744
  22688737.464   -15639149.436 8 -12171794.98346  22688737.234    22688745.8014
  21365719.661   -23057551.455 9 -17944890.53447  21365718.841    21365726.1974
  24226131.635    -6499468.525 7  -4808400.78445  24226131.828    24226139.2354
  24940830.054    -1065295.244 7   -792761.18845  24940829.582    24940840.0524
  20345549.247   -26283025.810 9 -20271199.75248  20345548.680    20345555.0134
  21015836.083   -21485483.552 9 -16721084.16247  21015836.259    21015842.5924
 00  1 23  2 17  0.0000000  0  7 24 06 10 04 09 05 30
  21243118.415   -21705317.330 9 -16891413.49847  21243118.245    21243125.4474
  22676311.761   -15704446.334 8 -12222675.52546  22676311.527    22676320.0554
  21354309.329   -23117512.791 9 -17991613.58547  21354308.500    21354315.8294
  24244658.423    -6402109.419 8  -4732536.42245  24244658.612    24244665.9804
  24957707.936     -976601.326 7   -723649.13745  24957707.629    24957718.0244
  20350964.260   -26254569.542 9 -20249026.01648  20350963.701    20350970.0304
  21006096.081   -21536667.220 9 -16760967.45647  21006096.252    21006102.5684
 00  1 23  2 17 30.0000000  0  7 24 06 10 04 09 05 30
  21254837.942   -21643730.720 9 -16843423.89547  21254837.762    21254844.9524
  22663899.388   -15769672.972 8 -12273501.31046  22663899.169    22663907.7004
  21342993.632   -23176976.714 9 -18037949.03247  21342992.824    21343000.1614
  24263187.784    -6304736.251 7  -4656661.05545  24263187.786    24263195.3824
  24974568.867     -887996.734 7   -654606.69645  24974568.656    24974579.0464
  20356491.525   -26225523.559 9 -20226392.75248  20356490.955    20356497.2764
  20996450.735   -21587353.617 9 -16800463.26147  20996450.890    20996457.2044
 00  1 23  2 18  0.0000000  0  6 24 06 10 04 05 30
  21266607.889   -21581879.141 9 -16795227.83047  21266607.714    21266614.8764
  22651507.274   -15834793.522 8 -12324244.42346  22651507.018    22651515.5264
  21331781.063   -23235898.845 9 -18083862.30347  21331780.246    21331787.6064
  24281722.768    -6207333.656 8  -4580762.71945  24281722.803    24281730.3434
  20362135.148   -26195866.012 9 -20203282.94648  20362134.578    20362140.8894
  20986901.109   -21637536.881 9 -16839567.01947  20986901.291    20986907.5734
 00  1 23  2 18 30.0000000  0  6 24 06 10 04 05 30
  21278427.615   -21519765.967 9 -16746827.92347  21278427.441    21278434.5794
  22639135.060   -15899808.798 8 -12374905.52346  22639134.893    22639143.3134
  21320672.994   -23294271.815 9 -18129347.65847  21320672.156    21320679.5364
  24300260.550    -6109916.485 8  -4504853.10145  24300260.540    24300267.8344
  20367891.031   -26165618.723 9 -20179713.60148  20367890.443    20367896.7384
  20977445.315   -21687227.010 9 -16878286.51647  20977445.477    20977451.7284
 00  1 23  2 19  0.0000000  0  6 24 06 10 04 05 30
  21290285.012   -21457454.909 9 -16698273.82647  21290284.833    21290291.9774
  22626776.810   -15964751.231 8 -12425509.85346  22626776.649    22626785.0304
  21309663.115   -23352128.999 9 -18174431.10447  21309662.248    21309669.5954
  24318792.092    -6012532.548 7  -4428969.25545  24318792.061    24318799.2674
  20373748.130   -26134839.183 9 -20155729.51848  20373747.548    20373753.8524
  20968076.252   -21736461.523 9 -16916650.98447  20968076.403    20968082.6214
 00  1 23  2 19 30.0000000  0  6 24 06 10 04 05 30
  21302172.387   -21394986.181 9 -16649596.87447  21302172.213    21302179.3444
  22614424.844   -16029660.884 8 -12476088.65146  22614424.660    22614432.9994
  21298745.121   -23409503.022 9 -18219138.06847  21298744.266    21298751.5694
  24337308.556    -5915226.740 7  -4353146.34345  24337308.493    24337315.8854
  20379697.641   -26103574.209 9 -20131367.18048  20379697.059    20379703.3694
  20958792.841   -21785245.521 9 -16954664.40747  20958793.040    20958799.2444
 00  1 23  2 20  0.0000000  0  6 24 06 10 04 05 30
  21314091.187   -21332352.231 9 -16600791.16847  21314091.002    21314098.1244
  22602076.084   -16094553.521 8 -12526654.19646  22602075.898    22602084.1574
  21287918.153   -23466398.975 9 -18263472.50247  21287917.302    21287924.5464
  24355807.680    -5818012.321 7  -4277394.67345  24355807.725    24355815.0034
  20385736.153   -26071841.462 9 -20106640.34348  20385735.579    20385741.8694
  20949597.553   -21833566.791 9 -16992317.26147  20949597.745    20949603.9064
 00  1 23  2 20 30.0000000  0  6 24 06 10 04 05 30
  21326042.394   -21269548.076 9 -16551852.83647  21326042.198    21326049.3314
  22589731.734   -16159422.718 8 -12577201.48246  22589731.574    22589739.8174
  21277181.263   -23522821.503 9 -18307438.03847  21277180.405    21277187.6434
  24374293.359    -5720869.228 8  -4201698.52145  24374293.299    24374300.4104
  20391865.273   -26039632.753 9 -20081542.62548  20391864.696    20391870.9824
  20940493.222   -21881410.103 9 -17029597.67747  20940493.408    20940499.5494
 00  1 23  2 21  0.0000000  0  6 24 06 10 04 05 30
  21338027.481   -21206566.030 9 -16502775.90547  21338027.281    21338034.4094
  22577391.355   -16224271.142 8 -12627732.58646  22577391.188    22577399.4174
  21266535.832   -23578763.138 9 -18351028.85247  21266534.984    21266542.2204
  24392768.127    -5623783.009 7  -4126046.81445  24392768.028    24392775.0284
  20398087.294   -26006935.477 9 -20056064.20148  20398086.738    20398093.0434
  20931481.597   -21928766.125 9 -17066498.38547  20931481.777    20931487.9024
 00  1 23  2 21 30.0000000  0  6 24 06 10 04 05 30
  21350052.192   -21143375.638 9 -16453536.62147  21350052.026    21350059.1394
  22565056.573   -16289090.225 8 -12678240.83046  22565056.387    22565064.6074
  21255985.746   -23634203.908 9 -18394229.37847  21255984.888    21255992.1224
  24411235.220    -5526736.336 8  -4050425.90745  24411235.302    24411242.1664
  20404404.809   -25973736.685 9 -20030194.97848  20404404.265    20404410.5464
  20922563.280   -21975632.096 9 -17103017.23647  20922563.461    20922569.5414
 00  1 23  2 22  0.0000000  0  6 24 06 10 04 05 30
  21362116.665   -21079976.322 9 -16404134.53547  21362116.485    21362123.6034
  22552729.226   -16353870.293 8 -12728718.66946  22552729.031    22552737.2324
  21245533.819   -23689128.920 9 -18437028.01147  21245532.944    21245540.1674
  24429695.891    -5429724.531 7  -3974832.02445  24429695.944    24429702.6274
  20410820.680   -25940020.984 9 -20003922.97548  20410820.113    20410826.3874
  20913736.967   -22022014.411 9 -17139159.21447  20913737.151    20913743.2054
 00  1 23  2 22 30.0000000  0  6 24 06 10 04 05 30
  21374220.804   -21016368.446 9 -16354569.93247  21374220.625    21374227.7454
  22540407.854   -16418619.209 8 -12779172.23846  22540407.611    22540415.8044
  21235181.096   -23743532.615 9 -18479420.42647  21235180.231    21235187.4114
  24448151.076    -5332741.692 7  -3899260.77445  24448151.028    24448157.7994
  20417337.256   -25905776.107 9 -19977238.63248  20417336.682    20417342.9474
  20905003.237   -22067910.192 9 -17174922.08347  20905003.417    20905009.4394
 00  1 23  2 23  0.0000000  0  6 24 06 10 04 05 30
  21386368.258   -20952533.174 9 -16304828.14047  21386368.046    21386375.1634
  22528094.465   -16483325.991 8 -12829592.98146  22528094.225    22528102.3994
  21224930.055   -23797401.794 9 -18521396.33747  21224929.197    21224936.3614
  24466601.632    -5235782.263 7  -3823707.75145  24466601.554    24466608.3754
  20423954.514   -25871002.098 9 -19950141.97748  20423953.931    20423960.2034
  20896363.789   -22113310.477 9 -17210298.84547  20896363.968    20896369.9914
 00  1 23  2 23 30.0000000  0  6 24 06 10 04 05 30
  21398558.243   -20888474.255 9 -16254912.07747  21398558.037    21398565.1374
  22515792.966   -16547970.332 8 -12879965.05946  22515792.741    22515800.8734
  21214779.145   -23850744.672 9 -18562962.14247  21214778.305    21214785.4594
  24485046.189    -5138854.227 7  -3748179.32945  24485046.216    24485053.0314
  20430672.810   -25835697.001 9 -19922631.48648  20430672.230    20430678.5004
  20887822.073   -22158197.152 9 -17245275.39447  20887822.252    20887828.2774
 00  1 23  2 24  0.0000000  0  6 24 06 10 04 05 30
  21410792.123   -20824184.549 9 -16204816.17147  21410791.937    21410799.0174
  22503503.371   -16612551.918 8 -12930288.23546  22503503.199    22503511.2664
  21204727.903   -23903564.050 9 -18604120.02347  21204727.053    21204734.1834
  24503487.127    -5041946.152 7  -3672666.43945  24503487.059    24503493.9184
  20437497.040   -25799835.157 9 -19894687.16148  20437496.506    20437502.7544
  20879383.462   -22202542.117 9 -17279829.83147  20879383.644    20879389.6504
 00  1 23  2 24 30.0000000  0  6 24 06 10 04 05 30
  21423075.372   -20759635.727 9 -16154518.35347  21423075.144    21423082.2084
  22491229.548   -16677050.617 8 -12980546.80846  22491229.336    22491237.4164
  21194780.549   -23955837.573 9 -18644852.55947  21194779.679    21194786.7814
  24521929.886    -4945027.315 7  -3597144.95345  24521929.792    24521936.7864
  20444431.210   -25763395.774 9 -19866292.81048  20444430.655    20444436.9044
  20871052.490   -22246321.230 9 -17313943.34647  20871052.691    20871058.6844
 00  1 23  2 25  0.0000000  0  6 24 06 10 04 05 30
  21435407.989   -20694827.282 9 -16104018.23747  21435407.766    21435414.8124
  22478976.135   -16741442.045 8 -13030721.79946  22478975.919    22478983.9774
  21184938.106   -24007559.702 9 -18685155.43847  21184937.233    21184944.3084
  24540374.666    -4848098.882 7  -3521616.32845  24540374.542    24540381.8254
  20451474.814   -25726381.359 9 -19837450.38548  20451474.249    20451480.5084
  20862829.793   -22289531.526 9 -17347613.63047  20862830.003    20862835.9694
 00  1 23  2 25 30.0000000  0  6 24 06 10 04 05 30
  21447785.209   -20629784.448 9 -16053335.48047  21447784.978    21447792.0194
  22466741.111   -16805736.736 8 -13080821.41246  22466740.919    22466748.9484
  21175200.287   -24058731.672 9 -18725029.62247  21175199.435    21175206.5114
  24558818.724    -4751174.587 7  -3446090.76245  24558818.564    24558825.7054
  20458630.043   -25688780.214 9 -19808150.76848  20458629.466    20458635.7284
  20854714.536   -22332177.196 9 -17380843.94647  20854714.732    20854720.6794
 00  1 23  2 26  0.0000000  0  7 24 17 06 10 04 05 30
  21460202.434   -20564530.942 9 -16002488.56747  21460202.251    21460209.3064
  25075711.625    -2795906.323 7  -2158957.62845  25075710.857    25075723.3034
  22454520.627   -16869955.012 8 -13130861.47746  22454520.469    22454528.4494
  21165567.129   -24109353.951 9 -18764475.47547  21165566.284    21165573.3484
  24577259.216    -4654267.959 7  -3370578.85645  24577259.247    24577266.2124
  20465893.239   -25650611.801 9 -19778409.12348  20465892.667    20465898.9274
  20846698.716   -22374300.259 9 -17413667.03547  20846698.911    20846704.8174
 00  1 23  2 26 30.0000000  0  7 24 17 06 10 04 05 30
  21472648.332   -20499127.125 9 -15951524.53447  21472648.155    21472655.2004
  25058319.564    -2887300.763 7  -2230173.89145  25058318.958    25058331.2334
  22442308.768   -16934128.446 8 -13180866.60946  22442308.563    22442316.5314
  21156031.523   -24159463.529 9 -18803521.82647  21156030.695    21156037.7474
  24595684.817    -4557440.535 7  -3295128.74045  24595684.852    24595691.7074
  20473250.933   -25611946.712 9 -19748280.46248  20473250.354    20473256.5964
  20838771.480   -22415958.019 9 -17446127.55347  20838771.679    20838777.5324
 00  1 23  2 27  0.0000000  0  7 24 17 06 10 04 05 30
  21485124.773   -20433562.796 9 -15900435.41647  21485124.608    21485131.6604
  25040950.315    -2978576.150 7  -2301297.39745  25040949.562    25040961.7954
  22430108.501   -16998240.573 8 -13230823.96746  22430108.299    22430116.2794
  21146595.692   -24209048.771 9 -18842159.60447  21146594.877    21146601.8924
  24614094.683    -4460695.322 7  -3219742.66345  24614094.737    24614101.4574
  20480705.860   -25572770.845 9 -19717753.78848  20480705.283    20480711.5184
  20830936.119   -22457132.882 9 -17478211.78447  20830936.323    20830942.1294
 00  1 23  2 27 30.0000000  0  7 24 17 06 10 04 05 30
  21497631.710   -20367838.255 9 -15849221.46647  21497631.529    21497638.6034
  25023606.837    -3069715.567 7  -2372314.95845  25023606.159    25023618.3694
  22417919.777   -17062292.117 8 -13280734.12546  22417919.567    22417927.5224
  21137260.148   -24258107.137 9 -18880386.83247  21137259.310    21137266.3064
  24632490.096    -4364026.674 8  -3144416.27845  24632490.132    24632496.5924
  20488259.573   -25533075.736 9 -19686822.51248  20488258.974    20488265.2094
  20823195.089   -22497812.141 9 -17509909.83347  20823195.262    20823201.0494
 00  1 23  2 28  0.0000000  0  6 24 17 06 10 05 30
  21510174.945   -20301923.035 9 -15797858.92747  21510174.776    21510181.8494
  25006295.084    -3160688.271 8  -2443202.63845  25006294.362    25006306.7134
  22405747.274   -17126258.446 8 -13330577.88246  22405747.064    22405755.0274
  21128028.611   -24306618.943 9 -18918188.16847  21128027.781    21128034.7544
  20495911.414   -25492865.003 9 -19655489.45448  20495910.816    20495917.0334
  20815554.467   -22537963.508 9 -17541196.54047  20815554.631    20815560.4064
 00  1 23  2 28 30.0000000  0  6 24 17 06 10 05 30
  21522749.701   -20235842.157 9 -15746367.30047  21522749.521    21522756.5964
  24989007.697    -3251533.418 8  -2513990.91945  24989007.150    24989019.0414
  22393584.231   -17190175.056 8 -13380382.89746  22393584.015    22393591.9484
  21118893.933   -24354621.699 9 -18955592.84547  21118893.095    21118900.0444
  20503653.883   -25452177.872 9 -19623785.17248  20503653.306    20503659.5084
  20808012.574   -22577596.229 9 -17572079.10847  20808012.723    20808018.4954
 00  1 23  2 29  0.0000000  0  6 24 17 06 10 05 30
  21535357.374   -20169588.312 9 -15694740.89147  21535357.193    21535364.2474
  24971742.557    -3342261.029 8  -2584687.65245  24971742.123    24971753.7324
  22381430.456   -17254042.826 8 -13430149.84947  22381430.279    22381438.2014
  21109856.022   -24402116.118 9 -18992601.41347  21109855.162    21109862.1144
  20511488.317   -25411007.507 9 -19591704.34948  20511487.723    20511493.9564
  20800569.466   -22616709.854 9 -17602557.19047  20800569.615    20800575.3624
 00  1 23  2 29 30.0000000  0  6 24 17 06 10 05 30
  21547998.840   -20103156.981 9 -15642976.19147  21547998.641    21548005.6924
  24954500.802    -3432866.695 7  -2655289.35945  24954500.388    24954511.9654
  22369287.438   -17317854.240 8 -13479872.89547  22369287.255    22369295.1444
  21100918.665   -24449081.933 9 -19029198.07947  21100917.809    21100924.7634
  20519415.594   -25369349.157 9 -19559243.28048  20519414.995    20519421.2634
  20793227.874   -22655289.861 9 -17632619.46847  20793228.058    20793233.7664
 00  1 23  2 30  0.0000000  0  6 24 17 06 10 05 30
  21560675.213   -20036542.364 9 -15591068.66047  21560674.985    21560682.0244
  24937280.094    -3523361.062 7  -2725804.34645  24937279.831    24937291.1244
  22357155.417   -17381607.791 8 -13529550.84847  22357155.234    22357163.0914
  21092083.900   -24495508.854 9 -19065374.83447  21092083.045    21092089.9634
  20527435.401   -25327204.579 9 -19526403.33048  20527434.803    20527441.0714
  20785988.399   -22693333.166 9 -17662263.53747  20785988.590    20785994.2764
 00  1 23  2 30 30.0000000  0  6 24 17 06 10 05 30
  21573386.030   -19969746.422 9 -15539019.83847  21573385.826    21573392.8474
  24920081.884    -3613738.536 7  -2796228.25145  24920081.277    24920092.7904
  22345036.293   -17445293.856 8 -13579176.21647  22345036.113    22345043.9554
  21083353.447   -24541387.471 9 -19101124.33847  21083352.589    21083359.4494
  20535550.961   -25284557.051 9 -19493171.47748  20535550.354    20535556.6064
  20778849.404   -22730848.503 9 -17691496.20548  20778849.582    20778855.2844
 00  1 23  2 31  0.0000000  0  6 24 17 06 10 05 30
  21586129.288   -19902779.962 9 -15486838.13847  21586129.084    21586136.0934
  24902906.852    -3703993.158 7  -2866556.42145  24902906.307    24902917.8484
  22332929.891   -17508913.115 8 -13628749.52947  22332929.705    22332937.4714
  21074729.140   -24586708.138 9 -19136439.08047  21074728.289    21074735.1484
  20543764.421   -25241394.807 9 -19459538.54748  20543763.818    20543770.0494
  20771812.432   -22767827.780 9 -17720311.16648  20771812.603    20771818.2914
 00  1 23  2 31 30.0000000  0  6 24 17 06 10 05 30
  21598905.991   -19835637.909 9 -15434519.62647  21598905.799    21598912.7904
  24885760.171    -3794099.530 7  -2936769.08445  24885759.518    24885771.1644
  22320836.619   -17572463.258 8 -13678268.98047  22320836.447    22320844.1274
  21066214.123   -24631454.683 9 -19171306.45347  21066213.264    21066220.1244
  20552077.889   -25197707.231 9 -19425496.26948  20552077.293    20552083.4964
  20764881.958   -22804247.284 9 -17748689.94548  20764882.121    20764887.8014
 00  1 23  2 32  0.0000000  0  6 24 17 06 10 05 30
  21611716.208   -19768319.752 9 -15382063.89347  21611716.010    21611722.9714
  24868642.916    -3884050.197 7  -3006860.41045  24868642.387    24868654.0254
  22308758.453   -17635934.141 8 -13727726.67647  22308758.289    22308765.8864
  21057809.045   -24675623.045 9 -19205723.29747  21057808.213    21057815.0984
  20560492.339   -25153488.766 9 -19391040.30648  20560491.758    20560497.9894
  20758058.087   -22840106.653 9 -17776632.25448  20758058.275    20758063.9374
 00  1 23  2 32 30.0000000  0  6 24 17 06 10 05 30
  21624557.387   -19700838.557 9 -15329481.11547  21624557.221    21624564.1644
  24851557.867    -3973832.043 7  -3076820.18845  24851557.274    24851569.0614
  22296693.575   -17699335.145 8 -13777129.92247  22296693.381    22296700.9354
  21049516.921   -24719198.212 9 -19239677.91147  21049516.093    21049522.9754
  20569007.376   -25108741.637 9 -19356172.40248  20569006.803    20569013.0814
  20751339.459   -22875413.015 9 -17804143.64848  20751339.647    20751345.2674
 00  1 23  2 33  0.0000000  0  6 24 17 06 10 05 30
  21637427.448   -19633205.860 9 -15276780.27747  21637427.271    21637434.2344
  24834505.446    -4063442.300 7  -3146646.25345  24834504.930    24834516.6904
  22284640.098   -17762675.887 8 -13826486.21447  22284639.915    22284647.4184
  21041338.360   -24762176.421 9 -19273167.36847  21041337.525    21041344.4274
  20577621.635   -25063473.293 9 -19320898.35848  20577621.069    20577627.3424
  20744726.320   -22910165.093 9 -17831223.13148  20744726.505    20744732.1114
 00  1 23  2 33 30.0000000  0  6 24 17 06 10 05 30
  21650325.440   -19565426.362 9 -15223965.06147  21650325.272    21650332.2424
  24817486.684    -4152876.299 7  -3216334.95345  24817486.152    24817497.7414
  22272597.949   -17825956.843 8 -13875795.93047  22272597.802    22272605.2964
  21033272.598   -24804561.748 9 -19306194.83747  21033271.769    21033278.6664
  20586332.602   -25017696.928 9 -19285228.45148  20586332.019    20586338.2844
  20738215.252   -22944380.793 9 -17857884.65948  20738215.422    20738221.0304
 00  1 23  2 34  0.0000000  0  6 24 17 06 10 05 30
  21663250.660   -19497503.771 9 -15171038.32747  21663250.454    21663257.4424
  24800500.182    -4242140.417 7  -3285891.28645  24800499.562    24800511.1614
  22260566.735   -17889180.695 8 -13925061.15247  22260566.581    22260574.0614
  21025318.764   -24846359.124 9 -19338764.16547  21025317.965    21025324.8364
  20595138.507   -24971421.466 9 -19249169.64148  20595137.933    20595144.2034
  20731803.931   -22978072.276 9 -17884137.70648  20731804.111    20731809.7044
 00  1 23  2 34 30.0000000  0  6 24 17 06 10 05 30
  21676202.226   -19429442.802 9 -15118003.76847  21676202.008    21676208.9764
  24783542.923    -4331250.986 7  -3355327.94845  24783542.271    24783553.9384
  22248543.972   -17952360.291 8 -13974291.89647  22248543.824    22248551.2264
  21017472.600   -24887590.710 9 -19370892.61647  21017471.787    21017478.6834
  20604036.563   -24924661.742 9 -19212733.48448  20604035.993    20604042.2794
  20725490.146   -23011251.052 9 -17909991.24248  20725490.332    20725495.9234
 00  1 23  2 35  0.0000000  0  6 24 17 06 10 05 30
  21689181.006   -19361238.816 9 -15064857.77947  21689180.793    21689187.7704
  24766611.248    -4420227.719 7  -3424660.31945  24766610.702    24766622.1444
  22236529.271   -18015497.704 8 -14023489.77947  22236529.122    22236536.4414
  21009726.472   -24928296.622 9 -19402611.45247  21009725.650    21009732.5544
  20613026.158   -24877421.230 9 -19175922.68848  20613025.579    20613031.8644
  20719274.362   -23043915.030 9 -17935443.63448  20719274.545    20719280.1124
 00  1 23  2 35 30.0000000  0  6 24 17 06 10 05 30
  21702184.417   -19292905.309 9 -15011610.86447  21702184.211    21702191.1724
  24749698.342    -4509106.318 7  -3493916.20045  24749697.671    24749709.0634
  22224517.599   -18078619.140 8 -14072675.21247  22224517.447    22224524.7294
  21002072.113   -24968520.378 9 -19433954.58247  21002071.279    21002078.1664
  20622101.873   -24829728.136 9 -19138759.23548  20622101.276    20622107.5584
  20713151.448   -23076090.826 9 -17960515.62448  20713151.634    20713157.1844
 00  1 23  2 36  0.0000000  0  6 24 17 06 10 05 30
  21715224.673   -19224378.225 9 -14958213.09847  21715224.463    21715231.3934
  24732811.711    -4597845.299 7  -3563063.26545  24732810.991    24732822.4934
  22212521.539   -18141658.709 8 -14121796.86247  22212521.362    22212528.6144
  20994517.954   -25008217.478 9 -19464887.32547  20994517.138    20994524.0084
  20631275.554   -24781520.139 9 -19101194.55148  20631274.975    20631281.2234
  20707132.779   -23107718.994 9 -17985160.88948  20707132.960    20707138.5344
 00  1 23  2 36 30.0000000  0  6 24 17 06 10 05 30
  21728302.324   -19155654.609 9 -14904662.18947  21728302.109    21728308.9924
  24715951.324    -4686446.270 7  -3632102.79145  24715950.744    24715962.2194
  22200543.737   -18204602.311 8 -14170843.73647  22200543.524    22200550.7294
  20987065.600   -25047379.674 9 -19495403.26647  20987064.777    20987071.6324
  20640551.149   -24732776.641 9 -19063212.59848  20640550.554    20640556.7704
  20701220.165   -23138789.576 9 -18009371.67548  20701220.354    20701225.9124
 00  1 23  2 37  0.0000000  0  6 24 17 06 10 05 30
  21741416.968   -19086736.788 9 -14850959.96247  21741416.760    21741423.5914
  24699119.678    -4774896.367 7  -3701024.71745  24699119.166    24699130.5524
  22188585.273   -18267444.190 8 -14219811.33147  22188585.062    22188592.2304
  20979718.749   -25085987.442 9 -19525487.18147  20979717.914    20979724.7404
  20649928.030   -24683500.867 9 -19024815.88748  20649927.433    20649933.6274
  20695415.434   -23169293.573 9 -18033140.96948  20695415.602    20695421.1614
 00  1 23  2 37 30.0000000  0  6 24 17 06 10 05 30
  21754566.035   -19017637.986 9 -14797116.70747  21754565.787    21754572.6024
  24682314.412    -4863207.754 8  -3769838.55045  24682313.890    24682325.2104
  22176646.437   -18330182.587 8 -14268698.29547  22176646.247    22176653.4134
  20972480.173   -25124026.144 9 -19555127.67047  20972479.345    20972486.1344
  20659404.470   -24633701.816 9 -18986011.42448  20659403.882    20659410.0744
  20689714.812   -23199250.072 9 -18056483.64048  20689715.009    20689720.5614
 00  1 23  2 38  0.0000000  0  6 24 17 06 10 05 30
  21767745.065   -18948381.463 9 -14743150.55947  21767744.854    21767751.6574
  24665534.482    -4951385.976 7  -3838548.59945  24665533.947    24665545.3434
  22164725.121   -18392829.284 8 -14317513.80647  22164724.910    22164732.0304
  20965353.053   -25161479.244 9 -19584311.84547  20965352.219    20965358.9884
  20668979.460   -24583384.902 9 -18946803.43448  20668978.884    20668985.0664
  20684119.202   -23228655.058 9 -18079396.56248  20684119.382    20684124.9464
 00  1 23  2 38 30.0000000  0  6 24 17 06 10 05 30
  21780953.457   -18878970.886 9 -14689064.38247  21780953.230    21780960.0004
  24648783.215    -5039413.539 8  -3907141.24745  24648782.613    24648794.0784
  22152818.614   -18455397.885 8 -14366268.46447  22152818.403    22152825.5034
  20958341.153   -25198326.949 9 -19613024.28247  20958340.303    20958347.0524
  20678651.214   -24532559.422 9 -18907199.15548  20678650.638    20678656.8234
  20678629.959   -23257500.911 9 -18101873.79748  20678630.152    20678635.6914
 00  1 23  2 39  0.0000000  0  6 24 17 06 10 05 30
  21794189.465   -18809414.832 9 -14634864.82847  21794189.267    21794196.0604
  24632061.103    -5127288.255 7  -3975614.77545  24632060.440    24632071.8724
  22140924.342   -18517902.045 8 -14414972.90047  22140924.147    22140931.2374
  20951443.218   -25234575.696 9 -19641269.99647  20951442.368    20951449.0794
  20688416.761   -24481241.170 9 -18867210.89448  20688416.177    20688422.3664
  20673247.381   -23285786.473 9 -18123914.44448  20673247.569    20673253.0784
 00  1 23  2 39 30.0000000  0  6 24 17 06 10 05 30
  21807452.497   -18739716.729 9 -14580554.58647  21807452.305    21807459.1124
  24615368.691    -5215006.557 7  -4043966.41245  24615368.025    24615379.4404
  22129042.847   -18580339.260 9 -14463625.16747  22129042.653    22129049.6994
  20944659.043   -25270226.435 9 -19669049.73147  20944658.215    20944664.8624
  20698277.684   -24429421.685 9 -18826832.05948  20698277.091    20698283.2794
  20667972.878   -23313504.155 9 -18145512.58548  20667973.050    20667978.5374
 00  1 23  2 40  0.0000000  0  6 24 17 06 10 05 30
  21820742.511   -18669877.065 9 -14526134.04447  21820742.315    21820749.1314
  24598710.276    -5302545.865 8  -4112178.54845  24598709.618    24598720.9644
  22117173.679   -18642711.802 9 -14512227.04147  22117173.500    22117180.4684
  20937989.024   -25305277.466 9 -19696362.17047  20937988.162    20937994.7964
  20708232.263   -24377109.968 9 -18786069.67248  20708231.670    20708237.8604
  20662811.338   -23340627.951 9 -18166647.96248  20662811.523    20662816.9894
 00  1 23  2 40 30.0000000  0  6 24 17 06 10 05 30
  21834058.429   -18599901.309 9 -14471607.45847  21834058.236    21834065.0574
  24582088.246    -5389894.013 8  -4180241.73545  24582087.606    24582098.8594
  22105320.221   -18705001.821 8 -14560764.60447  22105320.036    22105326.9724
  20931432.355   -25339732.880 9 -19723210.49047  20931431.512    20931438.0954
  20718279.498   -24324311.153 9 -18744927.73148  20718278.904    20718285.0954
  20657762.081   -23367161.550 9 -18187323.44448  20657762.259    20657767.7384
 00  1 23  2 41  0.0000000  0  6 24 17 06 10 05 30
  21847397.991   -18529801.442 9 -14416984.16747  21847397.771    21847404.5914
  24565500.855    -5477060.337 8  -4248163.21945  24565500.249    24565511.2004
  22093483.548   -18767203.606 8 -14609233.40747  22093483.380    22093490.2704
  20924988.162   -25373597.242 9 -19749598.25547  20924987.313    20924993.8584
  20728417.969   -24271032.839 9 -18703412.15848  20728417.415    20728423.6144
  20652821.969   -23393121.468 9 -18207551.90348  20652822.179    20652827.6534
 00  1 23  2 41 30.0000000  0  6 24 17 06 10 05 30
  21860759.521   -18459586.216 9 -14362270.97747  21860759.271    21860766.1014
  24548946.679    -5564051.793 8  -4315948.44645  24548946.099    24548956.9544
  22081663.082   -18829320.444 8 -14657636.01347  22081662.903    22081669.7494
  20918657.015   -25406867.490 9 -19775523.07147  20918656.166    20918662.6734
  20738643.406   -24217297.959 9 -18661540.81048  20738642.846    20738649.0534
  20647987.655   -23418525.965 9 -18227347.56048  20647987.836    20647993.3084
 00  1 23  2 42  0.0000000  0  6 24 17 06 10 05 30
  21874141.128   -18389265.070 9 -14307475.25047  21874140.917    21874147.7174
  24532422.884    -5650884.304 8  -4383609.79745  24532422.218    24532432.8864
  22069855.596   -18891368.918 8 -14705985.34847  22069855.367    22069862.2054
  20912436.551   -25439556.214 9 -19800994.75447  20912435.692    20912442.1764
  20748953.836   -24163116.219 9 -18619321.26148  20748953.278    20748959.4854
  20643256.136   -23443390.183 9 -18246722.22348  20643256.321    20643261.7644
 00  1 23  2 42 30.0000000  0  6 24 17 06 10 05 30
  21887543.495   -18318835.252 9 -14252594.85547  21887543.279    21887550.0654
  24515925.864    -5737575.310 8  -4451160.89745  24515925.209    24515935.9034
  22058061.129   -18953348.856 8 -14754281.28247  22058060.892    22058067.7274
  20906325.113   -25471671.850 9 -19826019.88147  20906324.263    20906330.7084
  20759350.092   -24108483.543 9 -18576750.33748  20759349.502    20759355.7084
  20638623.814   -23467733.155 9 -18265690.71948  20638623.988    20638629.4324
 00  1 23  2 43  0.0000000  0  6 24 17 06 10 05 30
  21900969.006   -18248283.604 9 -14197619.51647  21900968.755    21900975.5624
  24499453.225    -5824138.084 8  -4518612.07145  24499452.543    24499463.1494
  22046276.259   -19015278.183 8 -14802537.79047  22046276.021    22046282.8594
  20900319.738   -25503229.986 9 -19850610.59147  20900318.890    20900325.3274
  20769831.308   -24053404.282 9 -18533831.43048  20769830.725    20769836.9524
  20634090.051   -23491557.918 9 -18284255.41548  20634090.237    20634095.6804
 00  1 23  2 43 30.0000000  0  6 24 17 06 10 05 30
  21914418.293   -18177606.979 8 -14142546.78747  21914418.024    21914424.8394
  24483005.711    -5910569.109 7  -4585960.60345  24483005.010    24483015.5624
  22034501.974   -19077151.804 8 -14850750.88947  22034501.772    22034508.5884
  20894418.202   -25534242.620 9 -19874776.23647  20894417.366    20894423.7924
  20780398.778   -23997871.819 9 -18490559.37648  20780398.180    20780404.4204
  20629660.033   -23514837.538 9 -18302395.32248  20629660.223    20629665.6554
 00  1 23  2 44  0.0000000  0  6 24 17 06 10 05 30
  21927893.024   -18106796.606 9 -14087369.84447  21927892.796    21927899.6024
  24466584.982    -5996859.365 7  -4653199.42245  24466584.307    24466594.6574
  22022742.221   -19138949.122 8 -14898904.53047  22022742.003    22022748.8224
  20888621.523   -25564704.245 9 -19898512.52747  20888620.679    20888627.0594
  20791057.597   -23941859.422 9 -18446913.34748  20791056.991    20791063.2534
  20625337.684   -23537551.374 9 -18320094.35948  20625337.896    20625343.3124
 00  1 23  2 44 30.0000000  0  6 24 17 06 10 05 30
  21941393.989   -18035848.418 8 -14032085.52247  21941393.769    21941400.5544
  24450193.819    -6082993.808 7  -4720316.85745  24450193.234    24450203.4984
  22010999.669   -19200656.369 9 -14946987.99147  22010999.462    22011006.2504
  20882934.513   -25594589.598 9 -19921799.77647  20882933.666    20882940.0174
  20801808.079   -23885365.299 9 -18402891.94748  20801807.498    20801813.7194
  20621124.950   -23559689.111 9 -18337344.49248  20621125.132    20621130.5374
 00  1 23  2 45  0.0000000  0  6 24 17 06 10 05 30
  21954918.272   -17964777.460 8 -13976705.53647  21954918.067    21954924.8694
  24433833.852    -6168964.279 7  -4787306.52145  24433833.310    24433843.5824
  21999274.644   -19262271.341 8 -14994999.55147  21999274.429    21999281.2104
  20877361.424   -25623876.133 9 -19944620.40947  20877360.584    20877366.9474
  20812649.845   -23828391.460 9 -18358496.73848  20812649.263    20812655.4474
  20617024.772   -23581235.544 9 -18354133.86648  20617024.941    20617030.3254
 00  1 23  2 45 30.0000000  0  6 24 17 06 10 05 30
  21968466.380   -17893581.510 8 -13921228.14347  21968466.157    21968472.9464
  24417506.177    -6254765.672 7  -4854164.45745  24417505.583    24417515.8084
  21987571.631   -19323770.696 8 -15042921.02947  21987571.401    21987578.1584
  20871906.787   -25652540.278 9 -19966956.06247  20871905.950    20871912.3074
  20823585.898   -23770922.233 9 -18313715.51448  20823585.272    20823591.4534
  20613039.617   -23602177.622 9 -18370452.31948  20613039.780    20613045.1504
 00  1 23  2 46  0.0000000  0  6 24 17 06 10 05 30
  21982039.530   -17822253.638 8 -13865647.95547  21982039.341    21982046.1444
  24401211.536    -6340394.491 7  -4920887.93145  24401210.823    24401220.9024
  21975888.959   -19385163.170 9 -15090759.22647  21975888.739    21975895.4434
  20866575.344   -25680557.273 9 -19988787.44847  20866574.481    20866580.8294
  20834616.629   -23712955.179 9 -18268546.38048  20834616.045    20834622.2034
  20609167.802   -23622523.751 9 -18386306.39848  20609167.970    20609173.3484
 00  1 23  2 46 30.0000000  0  6 24 17 06 10 05 30
  21995637.528   -17750795.702 8 -13809966.41747  21995637.327    21995644.0974
  24384951.054    -6425842.897 7  -4987470.86045  24384950.411    24384960.3014
  21964225.120   -19446456.619 9 -15138520.26147  21964224.894    21964231.5764
  20861367.206   -25707925.995 9 -20010113.67847  20861366.347    20861372.6904
  20845741.654   -23654492.816 9 -18222991.28848  20845741.074    20845747.2174
  20605411.426   -23642263.448 9 -18401687.93748  20605411.600    20605416.9894
 00  1 23  2 47  0.0000000  0  6 24 17 06 10 05 30
  22009262.382   -17679196.497 8 -13754174.81347  22009262.205    22009268.9894
  24368725.416    -6511108.099 8  -5053911.03345  24368724.804    24368734.5554
  21952581.306   -19507644.832 9 -15186199.30047  21952581.105    21952587.8004
  20856279.325   -25734662.793 9 -20030947.50247  20856278.489    20856284.8304
  20856963.041   -23595524.038 9 -18177041.58748  20856962.455    20856968.5884
  20601772.254   -23661387.255 9 -18416589.56748  20601772.420    20601777.7924
 00  1 23  2 47 30.0000000  0  6 24 17 06 10 05 30
  22022915.567   -17607448.772 8 -13698267.46847  22022915.373    22022922.1224
  24352536.318    -6596181.038 8  -5120201.41645  24352535.691    24352545.4664
  21940956.483   -19568733.220 9 -15233800.56147  21940956.292    21940962.9574
  20851310.063   -25760776.161 9 -20051295.54147  20851309.229    20851315.5714
  20868281.515   -23536045.072 9 -18130694.33848  20868280.940    20868287.0714
  20598248.061   -23679906.663 9 -18431020.23548  20598248.230    20598253.6024
 00  1 23  2 48  0.0000000  0  6 24 17 06 10 05 30
  22036593.121   -17535572.720 8 -13642260.12047  22036592.914    22036599.6344
  24336384.786    -6681056.641 8  -5186338.03945  24336384.183    24336393.9444
  21929346.506   -19629743.717 9 -15281341.13647  21929346.300    21929352.9444
  20846458.079   -25786273.226 9 -20071163.33747  20846457.248    20846463.5714
  20879692.673   -23476079.120 9 -18083967.61548  20879692.090    20879698.2164
  20594837.720   -23697828.011 9 -18444984.88548  20594837.900    20594843.2404
 00  1 23  2 48 30.0000000  0  6 24 17 06 10 05 30
  22050294.509   -17463571.455 8 -13586155.21347  22050294.309    22050301.0184
  24320269.259    -6765743.287 8  -5252327.42545  24320268.620    24320278.3794
  21917753.308   -19690666.170 9 -15328813.11047  21917753.085    21917759.6864
  20841720.578   -25811168.931 9 -20090562.54147  20841719.728    20841726.0434
  20891194.412   -23415636.982 9 -18036869.84048  20891193.847    20891199.9624
  20591540.789   -23715153.400 9 -18458485.15448  20591540.963    20591546.3044
 00  1 23  2 49  0.0000000  0  6 24 17 06 10 05 30
  22064018.479   -17391451.606 8 -13529957.89347  22064018.248    22064024.9464
  24304188.274    -6850248.082 8  -5318175.11945  24304187.571    24304197.4534
  21906176.921   -19751500.253 9 -15376216.23147  21906176.709    21906183.2694
  20837095.994   -25835470.951 9 -20109499.12847  20837095.129    20837101.4594
  20902781.868   -23354744.490 9 -17989421.13348  20902781.296    20902787.3994
  20588352.454   -23731907.997 9 -18471540.64848  20588352.630    20588357.9714
 00  1 23  2 49 30.0000000  0  6 24 17 06 10 05 30
  22077760.648   -17319235.969 8 -13473685.94547  22077760.444    22077767.0924
  24288139.068    -6934586.720 8  -5383893.34445  24288138.332    24288148.2154
  21894616.143   -19812252.331 9 -15423555.45347  21894615.943    21894622.4514
  20832583.410   -25859184.613 9 -20127977.25647  20832582.553    20832588.9004
  20914449.121   -23293432.716 9 -17941645.71648  20914448.548    20914454.6604
  20585267.139   -23748121.274 9 -18484174.33648  20585267.326    20585272.6704
 00  1 23  2 50  0.0000000  0  6 24 17 06 10 05 30
  22091518.918   -17246935.868 8 -13417348.17847  22091518.680    22091525.3404
  24272117.054    -7018781.921 8  -5449499.83245  24272116.344    24272126.2474
  21883072.533   -19872914.145 9 -15470824.33747  21883072.314    21883078.8004
  20828179.452   -25882327.308 9 -20146010.47747  20828178.602    20828184.9184
  20926194.218   -23231711.794 9 -17893551.49048  20926193.648    20926199.7444
  20582284.349   -23763795.819 9 -18496388.23448  20582284.531    20582289.8814
 00  1 23  2 50 30.0000000  0  6 24 17 06 10 05 30
  22105293.819   -17174548.013 8 -13360942.03247  22105293.604    22105300.2734
  24256121.088    -7102840.081 8  -5514999.53145  24256120.448    24256130.3094
  21871547.840   -19933476.354 9 -15518015.60447  21871547.653    21871554.1144
  20823882.594   -25904907.320 9 -20163605.24347  20823881.757    20823888.0514
  20938019.405   -23169570.045 9 -17845129.34348  20938018.811    20938024.9214
  20579401.809   -23778943.535 9 -18508191.61148  20579401.987    20579407.3134
 00  1 23  2 51  0.0000000  0  6 24 17 06 10 05 30
  22119080.737   -17102096.856 8 -13304486.55747  22119080.549    22119087.2324
  24240151.191    -7186761.216 8  -5580392.45945  24240150.593    24240160.4994
  21860040.606   -19993947.150 9 -15565135.63847  21860040.419    21860046.8394
  20819692.849   -25926924.596 9 -20180761.51447  20819692.007    20819698.2764
  20949927.128   -23106994.514 9 -17796369.18948  20949926.548    20949932.6364
  20576619.152   -23793566.571 9 -18519586.15048  20576619.313    20576624.6324
 00  1 23  2 51 30.0000000  0  6 24 17 06 10 05 30
  22132880.710   -17029577.519 8 -13247977.95247  22132880.506    22132887.1914
  24224207.173    -7270547.774 8  -5645680.52945  24224206.560    24224216.2404
  21848550.887   -20054325.755 9 -15612183.84047  21848550.693    21848557.0834
  20815612.835   -25948364.959 9 -20197468.24847  20815612.002    20815618.2494
  20961922.326   -23043959.500 9 -17747250.99547  20961921.724    20961927.8164
  20573941.318   -23807638.501 9 -18530551.25848  20573941.497    20573946.7774
 00  1 23  2 52  0.0000000  0  6 24 17 06 10 05 30
  22146696.748   -16956973.707 8 -13191403.52147  22146696.561    22146703.2504
  24208294.105    -7354170.910 8  -5710841.25345  24208293.497    24208303.0704
  21837080.138   -20114604.929 9 -15659154.56047  21837079.924    21837086.2964
  20811646.599   -25969207.626 9 -20213709.24347  20811645.758    20811651.9884
  20974009.849   -22980439.064 9 -17697754.54947  20974009.246    20974015.3384
  20571377.048   -23821113.866 9 -18541051.51048  20571377.202    20571382.4384
 00  1 23  2 52 30.0000000  0  6 24 17 06 10 05 30
  22160530.278   -16884277.574 8 -13134757.14747  22160530.124    22160536.8244
  24192418.536    -7437596.841 8  -5775848.32445  24192417.968    24192427.4994
  21825628.134   -20174785.454 9 -15706048.40647  21825627.922    21825634.2504
  20807799.380   -25989424.720 9 -20229462.78047  20807798.541    20807804.7884
  20986190.382   -22916429.724 9 -17647877.14047  20986189.813    20986195.8914
  20568930.334   -23833971.233 9 -18551070.20748  20568930.486    20568935.7024
 00  1 23  2 53  0.0000000  0  6 24 17 06 10 05 30
  22174383.212   -16811479.778 8 -13078031.55747  22174383.064    22174389.7424
  24176583.806    -7520808.265 8  -5840688.23545  24176583.190    24176592.6274
  21814196.581   -20234858.219 9 -15752858.29147  21814196.356    21814202.6804
  20804074.438   -26008999.019 9 -20244715.44147  20804073.600    20804079.8424
  20998461.964   -22851942.161 9 -17597627.08747  20998461.398    20998467.4864
  20566605.528   -23846188.060 9 -18560589.77848  20566605.685    20566610.8664
 00  1 23  2 53 30.0000000  0  6 24 17 06 10 05 30
  22188258.367   -16738565.483 8 -13021215.20047  22188258.169    22188264.8704
  24160791.603    -7603795.856 8  -5905353.73645  24160791.032    24160800.4384
  21802784.660   -20294827.896 9 -15799587.83247  21802784.457    21802790.7614
  20800472.740   -26027926.043 9 -20259463.73147  20800471.883    20800478.0954
  21010820.908   -22786995.438 9 -17547019.24747  21010820.342    21010826.4194
  20564402.367   -23857765.584 9 -18569611.19248  20564402.521    20564407.6984
 00  1 23  2 54  0.0000000  0  6 24 17 06 10 05 30
  22202153.914   -16665543.672 8 -12964315.06247  22202153.729    22202160.4394
  24145041.460    -7686562.504 8  -5969847.09045  24145040.887    24145050.3254
  21791392.353   -20354694.602 9 -15846237.13847  21791392.153    21791398.4434
  20796994.259   -26046205.463 9 -20273707.40347  20796993.391    20796999.6044
  21023263.786   -22721607.861 9 -17496067.88747  21023263.208    21023269.2534
  20562318.887   -23868714.153 9 -18578142.50948  20562319.063    20562324.2324
 00  1 23  2 54 30.0000000  0  6 24 17 06 10 05 30
  22216070.211   -16592412.843 8 -12907329.98247  22216070.045    22216076.7714
  24129328.506    -7769134.236 8  -6034188.54245  24129327.854    24129337.2934
  21780019.348   -20414459.810 9 -15892807.34547  21780019.166    21780025.4364
  20793637.787   -26063843.517 9 -20287451.30847  20793636.925    20793643.1504
  21035789.083   -22655786.872 9 -17444778.80347  21035788.497    21035794.5354
  20560351.320   -23879053.667 9 -18586199.24048  20560351.485    20560356.6554
 00  1 23  2 55  0.0000000  0  6 24 17 06 10 05 30
  22230007.986   -16519169.464 8 -12850257.20947  22230007.806    22230014.5054
  24113648.740    -7851531.889 8  -6098394.36845  24113648.009    24113657.3344
  21768667.314   -20474114.911 9 -15939291.75247  21768667.105    21768673.4114
  20790401.589   -26080849.784 9 -20300702.91547  20790400.735    20790406.9564
  21048399.029   -22589521.144 9 -17393143.17447  21048398.447    21048404.5044
  20558498.458   -23888790.516 9 -18593786.36148  20558498.618    20558503.7794
 00  1 23  2 55 30.0000000  0  6 24 17 06 10 05 30
  22243967.031   -16445814.339 8 -12793097.37447  22243966.812    22243973.4834
  24097998.526    -7933773.560 8  -6162478.65945  24097997.843    24098007.1294
  21757336.997   -20533655.742 9 -15985687.11747  21757336.799    21757343.0964
  20787285.150   -26097226.626 9 -20313464.05447  20787284.283    20787290.4984
  21061097.119   -22522792.157 9 -17341146.56447  21061096.546    21061102.6104
  20556760.199   -23897925.001 9 -18600904.10948  20556760.371    20556765.5074
 00  1 23  2 56  0.0000000  0  6 24 17 06 10 05 30
  22257948.777   -16372339.948 8 -12735844.60547  22257948.553    22257955.2204
  24082378.519    -8015856.292 8  -6226439.08545  24082377.917    24082387.1594
  21746034.485   -20593050.549 9 -16031968.69447  21746034.284    21746040.5724
  20784289.753   -26112967.223 9 -20325729.41847  20784288.896    20784295.1284
  21073885.920   -22455586.704 9 -17288778.67747  21073885.343    21073891.4064
  20555139.295   -23906442.809 9 -18607541.33248  20555139.463    20555144.5834
 00  1 23  2 56 30.0000000  0  6 24 17 06 10 05 30
  22271952.612   -16298749.142 8 -12678501.10047  22271952.428    22271959.0464
  24066791.651    -8097765.039 8  -6290263.94845  24066791.097    24066800.3724
  21734760.492   -20652295.540 9 -16078133.53347  21734760.259    21734766.5234
  20781413.999   -26128079.287 9 -20337505.01947  20781413.127    20781419.3584
  21086766.206   -22387900.306 9 -17236036.03247  21086765.636    21086771.7084
  20553634.392   -23914350.889 9 -18613703.44448  20553634.565    20553639.6614
 00  1 23  2 57  0.0000000  0  6 24 17 06 10 05 30
  22285975.973   -16225055.646 8 -12621077.57747  22285975.800    22285982.3854
  24051239.443    -8179492.098 8  -6353947.25345  24051238.835    24051248.1454
  21723515.971   -20711385.490 9 -16124177.55747  21723515.763    21723521.9754
  20778656.482   -26142570.016 9 -20348796.46447  20778655.616    20778661.8284
  21099735.663   -22319745.330 9 -17182928.26047  21099735.077    21099741.1894
  20552243.828   -23921658.222 9 -18619397.44348  20552243.988    20552249.0984
 00  1 23  2 57 30.0000000  0  6 24 17 06 10 05 30
  22300016.909   -16151269.873 8 -12563582.15847  22300016.750    22300023.2924
  24035722.507    -8261033.554 8  -6417485.91245  24035721.906    24035731.1134
  21712297.979   -20770335.932 9 -16170112.87947  21712297.769    21712303.9554
  20776016.596   -26156442.622 9 -20359606.25547  20776015.744    20776021.9364
  21112788.403   -22251152.554 9 -17129479.34347  21112787.801    21112793.9504
  20550964.846   -23928379.145 9 -18624634.50148  20550965.023    20550970.1274
 00  1 23  2 58  0.0000000  0  6 24 17 06 10 05 30
  22314072.250   -16077408.721 8 -12506028.00846  22314072.070    22314078.5994
  24020242.899    -8342379.142 8  -6480871.95345  24020242.363    24020251.4714
  21701102.976   -20829165.785 9 -16215954.23447  21701102.769    21701108.9394
  20773490.675   -26169716.233 9 -20369949.29347  20773489.812    20773495.9804
  21125919.902   -22182146.205 9 -17075708.16847  21125919.280    21125925.4564
  20549794.623   -23934528.838 9 -18629426.44848  20549794.773    20549799.8854
 00  1 23  2 58 30.0000000  0  6 24 17 06 10 05 30
  22328138.460   -16003490.225 8 -12448429.17946  22328138.262    22328144.7664
  24004798.163    -8423541.019 8  -6544114.84645  24004797.674    24004806.7224
  21689923.846   -20887912.466 9 -16261730.78447  21689923.628    21689929.7414
  20771074.293   -26182414.295 9 -20379843.85447  20771073.435    20771079.5974
  21139128.220   -22112735.981 9 -17021622.28447  21139127.607    21139133.8054
  20548729.652   -23940125.179 9 -18633787.20948  20548729.800    20548734.9214
 00  1 23  2 59  0.0000000  0  6 24 17 06 10 05 30
  22342214.516   -15929520.087 8 -12390790.10246  22342214.347    22342220.8054
  23989385.544    -8504534.374 8  -6607226.42745  23989384.995    23989394.0854
  21678757.629   -20946590.896 9 -16307454.15547  21678757.419    21678763.5114
  20768766.296   -26194542.761 9 -20389294.57347  20768765.443    20768771.6054
  21152411.818   -22042930.071 9 -16967228.07347  21152411.220    21152417.4604
  20547769.941   -23945168.444 9 -18637717.00548  20547770.085    20547775.1934
 00  1 23  2 59 30.0000000  0  6 24 17 06 10 05 30
  22356298.527   -15855508.005 8 -12333118.34146  22356298.327    22356304.8544
  23974005.232    -8585357.996 8  -6670205.73945  23974004.712    23974013.7584
  21667602.303   -21005212.067 9 -16353132.91147  21667602.101    21667608.1754
  20766567.205   -26206098.924 9 -20398299.33747  20766566.345    20766572.5104
  21165771.384   -21972725.143 9 -16912522.93547  21165770.792    21165776.9794
  20546915.576   -23949657.794 9 -18641215.17948  20546915.736    20546920.8474
 00  1 23  3  0  0.0000000  0  6 24 17 06 10 05 30
  22370389.400   -15781460.032 8 -12275418.61346  22370389.182    22370395.6744
  23958657.764    -8666009.466 8  -6733050.91545  23958657.177    23958666.1524
  21656457.787   -21063776.769 9 -16398767.66347  21656457.586    21656463.6574
  20764476.208   -26217087.158 9 -20406861.56347  20764475.353    20764481.5024
  21179208.569   -21902112.128 9 -16857499.81047  21179207.989    21179214.1624
  20546167.118   -23953590.736 9 -18644279.78748  20546167.304    20546172.4334
 00  1 23  3  0 30.0000000  0  6 24 17 06 10 05 30
  22384487.200   -15707375.733 8 -12217690.58146  22384486.952    22384493.4594
  23943340.707    -8746500.578 8  -6795771.13645  23943340.121    23943349.1104
  21645325.839   -21122275.223 9 -16444350.79847  21645325.623    21645331.6814
  20762498.279   -26227481.245 9 -20414960.81947  20762497.402    20762503.5244
  21192722.791   -21831094.504 9 -16802161.40747  21192722.184    21192728.3334
  20545525.600   -23956961.898 9 -18646906.64848  20545525.779    20545530.8924
 00  1 23  3  1  0.0000000  0  6 24 17 06 10 05 30
  22398594.329   -15633242.010 8 -12159924.04346  22398594.116    22398600.6224
  23928055.617    -8826823.672 8  -6858360.44545  23928055.022    23928064.0184
  21634212.439   -21180676.371 9 -16489858.11647  21634212.207    21634218.2594
  20760638.493   -26237254.146 9 -20422576.03647  20760637.640    20760643.7384
  21206312.746   -21759678.793 9 -16746512.80847  21206312.136    21206318.2954
  20544994.573   -23959752.306 9 -18649080.97248  20544994.756    20544999.8824
 00  1 23  3  1 30.0000000  0  6 24 17 06 10 05 30
  22412715.317   -15559035.621 8 -12102100.86846  22412715.130    22412721.6564
  23912804.044    -8906970.657 8  -6920812.52945  23912803.461    23912812.4014
  21623121.257   -21238960.527 9 -16535274.27247  21623121.035    21623127.0704
  20758898.941   -26246395.542 9 -20429699.16847  20758898.064    20758904.1744
  21219978.084   -21687866.902 9 -16690555.49747  21219977.495    21219983.6244
  20544576.160   -23961951.047 9 -18650794.25848  20544576.326    20544581.4454
 00  1 23  3  2  0.0000000  0  6 24 17 06 10 05 30
  22426852.199   -15484745.708 8 -12044212.62146  22426852.024    22426858.5844
  23897585.803    -8986942.769 8  -6983128.36545  23897585.206    23897594.0314
  21612054.772   -21297115.032 9 -16580589.39647  21612054.546    21612060.5794
  20757280.277   -26254901.530 9 -20436327.18247  20757279.424    20757285.5404
  21233716.949   -21615668.648 9 -16634297.12347  21233716.364    21233722.5284
  20544271.405   -23963552.564 9 -18652042.17248  20544271.577    20544276.6994
 00  1 23  3  2 30.0000000  0  6 24 17 06 10 05 30
  22441007.114   -15410361.181 8 -11986250.63246  22441006.954    22441013.4834
  23882400.271    -9066742.236 8  -7045309.66245  23882399.709    23882408.5904
  21601016.568   -21355120.706 9 -16625788.55047  21601016.338    21601022.3434
  20755785.183   -26262758.113 9 -20442449.16247  20755784.310    20755790.4154
  21247529.975   -21543080.734 9 -16577735.12247  21247529.391    21247535.5494
  20544083.866   -23964538.107 9 -18652810.10648  20544084.017    20544089.1314
 00  1 23  3  3  0.0000000  0  6 24 17 06 10 05 30
  22455181.623   -15335873.623 8 -11928208.37346  22455181.451    22455187.9784
  23867251.897    -9146346.626 8  -7107338.95645  23867251.456    23867260.2234
  21590008.005   -21412970.463 9 -16670866.20947  21590007.819    21590013.8334
  20754411.262   -26269977.852 9 -20448074.90047  20754410.411    20754416.4944
  21261419.368   -21470091.686 9 -16520860.54347  21261418.796    21261424.9404
  20544015.004   -23964899.920 9 -18653092.02148  20544015.164    20544020.2574
 00  1 23  3  3 30.0000000  0  6 24 17 06 10 05 30
  22469371.241   -15261306.678 8 -11870104.25946  22469371.068    22469377.5754
  23852142.559    -9225746.686 8  -7169209.02945  23852142.065    23852150.7684
  21579025.735   -21470682.661 9 -16715836.68647  21579025.502    21579031.5144
  20753157.232   -26276567.790 9 -20453209.88847  20753156.379    20753162.4294
  21275386.353   -21396694.674 9 -16463668.07647  21275385.757    21275391.8944
  20544062.393   -23964650.951 9 -18652898.00048  20544062.562    20544067.6214
 00  1 23  3  4  0.0000000  0  6 24 17 06 10 05 30
  22483570.896   -15186687.168 8 -11811959.16546  22483570.688    22483577.2184
  23837072.097    -9304942.489 8  -7230919.91545  23837071.479    23837080.1814
  21568069.595   -21528257.100 9 -16760699.81547  21568069.366    21568075.3884
  20752024.483   -26282520.492 9 -20457848.32847  20752023.633    20752029.6404
  21289431.523   -21322886.967 9 -16406155.58147  21289430.934    21289437.0734
  20544226.202   -23963790.006 9 -18652227.11148  20544226.378    20544231.3954
 00  1 23  3  4 30.0000000  0  6 24 17 06 10 05 30
  22497780.329   -15112015.866 8 -11753773.71946  22497780.131    22497786.6294
  23822042.274    -9383923.821 8  -7292463.68045  23822041.704    23822050.4034
  21557140.980   -21585686.990 9 -16805450.31547  21557140.762    21557146.7714
  20751014.248   -26287829.258 9 -20461985.00047  20751013.382    20751019.3754
  21303559.735   -21248642.639 9 -16348302.86847  21303559.133    21303565.2754
  20544509.557   -23962300.902 9 -18651066.74948  20544509.712    20544514.7574
 00  1 23  3  5  0.0000000  0  6 24 17 06 10 05 30
  22511999.684   -15037292.836 8 -11695547.96246  22511999.467    22512006.0004
  23807054.899    -9462682.342 8  -7353833.81445  23807054.409    23807063.0654
  21546241.220   -21642965.373 9 -16850082.75847  21546241.018    21546246.9934
  20750125.803   -26292497.944 9 -20465622.91247  20750124.928    20750130.8974
  21317770.855   -21173962.543 9 -16290110.59347  21317770.295    21317776.4534
  20544911.217   -23960190.198 9 -18649422.02148  20544911.364    20544916.4074
 00  1 23  3  5 30.0000000  0  6 24 17 06 10 05 30
  22526229.981   -14962511.955 8 -11637277.13546  22526229.776    22526236.3104
  23792106.213    -9541238.123 8  -7415045.96245  23792105.618    23792114.3204
  21535371.678   -21700085.043 9 -16894591.53247  21535371.463    21535377.4184
  20749358.956   -26296527.513 9 -20468762.80747  20749358.128    20749364.0664
  21332065.206   -21098845.247 9 -16231577.64447  21332064.659    21332070.7984
  20545432.688   -23957449.769 9 -18647286.60048  20545432.833    20545437.8704
 00  1 23  3  6  0.0000000  0  6 24 17 06 10 05 30
  22540475.906   -14887649.127 8 -11578942.44846  22540475.673    22540482.2234
  23777194.736    -9619598.205 8  -7476105.59245  23777194.071    23777202.7754
  21524535.444   -21757029.681 9 -16938963.91647  21524535.205    21524541.1354
  20748713.504   -26299919.187 9 -20471405.63947  20748712.685    20748718.6314
  21346444.055   -21023283.891 9 -16172698.67047  21346443.495    21346449.6464
  20546078.626   -23954055.167 9 -18644641.43348  20546078.776    20546083.8054
 00  1 23  3  6 30.0000000  0  6 24 17 06 10 05 30
  22554742.026   -14812680.318 8 -11520525.17646  22554741.767    22554748.3434
  23762321.003    -9697759.674 8  -7537010.47845  23762320.358    23762329.0244
  21513732.237   -21813800.703 9 -16983201.02347  21513732.003    21513737.9124
  20748187.975   -26302680.999 9 -20473557.66747  20748187.129    20748193.1024
  21360908.501   -20947272.777 9 -16113469.23947  21360907.901    21360914.0564
  20546848.073   -23950011.602 9 -18641490.57648  20546848.223    20546853.2344
 00  1 23  3  7  0.0000000  0  6 24 17 06 10 05 30
  22569027.128   -14737611.719 8 -11462030.14046  22569026.878    22569033.3864
  23747483.144    -9775733.045 8  -7597768.79645  23747482.440    23747491.0144
  21502957.961   -21870419.582 9 -17027319.57147  21502957.732    21502963.6084
  20747780.829   -26304820.464 9 -20475224.74847  20747779.971    20747785.9354
  21375454.115   -20870835.092 9 -16053907.41147  21375453.541    21375459.6874
  20547736.454   -23945343.036 9 -18637852.70548  20547736.608    20547741.6004
 00  1 23  3  7 30.0000000  0  6 24 17 06 10 05 30
  22583327.782   -14662461.283 8 -11403471.36146  22583327.538    22583334.0604
  23732679.175    -9853527.831 8  -7658387.95346  23732678.489    23732687.0624
  21492207.638   -21926912.736 9 -17071340.15747  21492207.424    21492213.2834
  20747491.946   -26306338.400 9 -20476407.51947  20747491.091    20747497.0544
  21390080.424   -20793973.371 9 -15994015.17047  21390079.866    21390086.0014
  20548740.924   -23940064.604 9 -18633739.60848  20548741.062    20548746.0274
 00  1 23  3  8  0.0000000  0  6 24 17 06 10 05 30
  22597640.626   -14587246.602 8 -11344862.52946  22597640.409    22597646.9234
  23717910.222    -9931138.154 8  -7718863.36846  23717909.613    23717918.1604
  21481477.355   -21983300.751 9 -17115278.82347  21481477.143    21481482.9764
  20747321.133   -26307235.841 9 -20477106.79047  20747320.269    20747326.2224
  21404784.803   -20716701.583 9 -15933803.39547  21404784.226    21404790.3464
  20549855.212   -23934208.832 9 -18629176.63348  20549855.341    20549860.3284
 00  1 23  3  8 30.0000000  0  6 24 17 06 10 05 30
  22611960.973   -14511992.549 8 -11286223.03346  22611960.745    22611967.3144
  23703175.391   -10008569.279 8  -7779199.16646  23703174.814    23703183.3644
  21470763.409   -22039602.685 9 -17159150.40747  21470763.190    21470769.0344
  20747264.796   -26307531.588 9 -20477337.21147  20747263.958    20747269.9324
  21419559.973   -20639057.453 9 -15873301.48847  21419559.407    21419565.5294
  20551071.055   -23927819.196 9 -18624197.66348  20551071.200    20551076.1984
 00  1 23  3  9  0.0000000  0  6 24 17 06 10 05 30
  22626282.872   -14436730.390 8 -11227577.18246  22626282.670    22626289.2884
  23688472.488   -10085833.104 8  -7839404.57846  23688471.872    23688480.3484
  21460065.089   -22095822.350 9 -17202957.88247  21460064.886    21460070.7414
  20747318.803   -26307247.587 9 -20477115.87947  20747317.971    20747323.9534
  21434400.671   -20561069.376 9 -15812531.56647  21434400.093    21434406.1854
  20552387.867   -23920899.188 9 -18618805.41348  20552388.018    20552393.0164
 00  1 23  3  9 30.0000000  0  6 24 17 06 10 05 30
  22640606.160   -14361461.126 8 -11168925.79546  22640605.915    22640612.5464
  23673802.198   -10162925.317 8  -7899476.28346  23673801.559    23673809.9884
  21449386.215   -22151940.058 9 -17246685.91147  21449385.989    21449391.8514
  20747480.948   -26306395.372 9 -20476451.78647  20747480.099    20747486.0644
  21449304.520   -20482749.159 9 -15751502.83147  21449303.936    21449310.0334
  20553808.241   -23913434.920 9 -18612989.05848  20553808.395    20553813.3714
 00  1 23  3 10  0.0000000  0  6 24 17 06 10 05 30
  22654932.520   -14286174.902 8 -11110261.19346  22654932.317    22654939.0234
  23659166.326   -10239836.977 8  -7959407.29646  23659165.681    23659174.0104
  21438730.762   -22207934.645 9 -17290318.00847  21438730.516    21438736.3644
  20747751.394   -26304974.071 9 -20475344.25347  20747750.551    20747756.5224
  21464267.951   -20404115.705 9 -15690230.02247  21464267.387    21464273.4514
  20555334.812   -23905412.821 9 -18606738.03648  20555334.968    20555339.9354
 00  1 23  3 10 30.0000000  0  6 24 17 06 10 05 30
  22669263.549   -14210864.962 8 -11051578.10546  22669263.356    22669270.0264
  23644564.045   -10316571.977 8  -8019200.65646  23644563.429    23644571.6674
  21428103.234   -22263782.630 9 -17333835.87247  21428102.993    21428108.8214
  20748131.455   -26302976.670 9 -20473787.81247  20748130.608    20748136.5564
  21479290.911   -20325169.805 9 -15628713.74747  21479290.337    21479296.3824
  20556971.871   -23896809.793 9 -18600034.34148  20556972.005    20556976.9784
 00  1 23  3 11  0.0000000  0  6 24 17 06 10 05 30
  22683601.851   -14135516.428 8 -10992864.95346  22683601.650    22683608.3624
  23629995.852   -10393127.921 8  -8078854.48346  23629995.245    23630003.4174
  21417507.082   -22319465.468 9 -17377225.04447  21417506.859    21417512.6684
  20748629.261   -26300360.684 9 -20471749.35247  20748628.404    20748634.3724
  21494379.590   -20245878.324 9 -15566928.18447  21494378.991    21494385.0354
  20558725.753   -23887592.760 9 -18592852.19648  20558725.900    20558730.8564
 00  1 23  3 11 30.0000000  0  6 24 17 06 10 05 30
  22697951.581   -14060107.882 8 -10934105.03446  22697951.385    22697958.0924
  23615465.772   -10469483.090 8  -8138351.85746  23615465.184    23615473.3884
  21406942.790   -22374981.074 9 -17420483.91347  21406942.552    21406948.3524
  20749252.985   -26297082.724 9 -20469195.07147  20749252.142    20749258.1074
  21509539.335   -20166213.310 9 -15504851.55747  21509538.746    21509544.7724
  20560597.979   -23877753.744 9 -18585185.39448  20560598.134    20560603.0894
 00  1 23  3 12  0.0000000  0  6 24 17 06 10 05 30
  22712313.107   -13984637.479 8 -10875296.90546  22712312.943    22712319.6544
  23600973.632   -10545639.067 8  -8197694.03346  23600973.027    23600981.2514
  21396411.505   -22430322.855 9 -17463607.33047  21396411.293    21396417.0844
  20750005.384   -26293128.622 9 -20466113.93347  20750004.551    20750010.4704
  21524774.605   -20086151.562 9 -15442465.78947  21524774.009    21524780.0534
  20562588.235   -23867294.698 9 -18577035.45448  20562588.396    20562593.3334
 00  1 23  3 12 30.0000000  0  6 24 17 06 10 05 30
  22726686.823   -13909103.073 8 -10816438.90746  22726686.642    22726693.3664
  23586517.705   -10621605.031 8  -8256888.14646  23586517.084    23586525.2484
  21385913.476   -22485490.149 9 -17506594.78047  21385913.251    21385919.0384
  20750886.186   -26288500.087 9 -20462507.25447  20750885.331    20750891.2454
  21540089.863   -20005669.288 9 -15379752.33647  21540089.277    21540095.3294
  20564697.560   -23856209.847 9 -18568397.87248  20564697.726    20564702.6444
 00  1 23  3 13  0.0000000  0  6 24 17 06 10 05 30
  22741073.325   -13833501.494 8 -10757528.58646  22741073.123    22741079.8454
  23572101.488   -10697362.214 8  -8315919.56546  23572100.845    23572109.0274
  21375447.938   -22540486.407 9 -17549448.95547  21375447.726    21375453.5004
  20751894.304   -26283202.240 9 -20458379.03847  20751893.453    20751899.3474
  21555486.596   -19924758.929 9 -15316705.31847  21555486.038    21555492.1064
  20566927.582   -23844490.852 9 -18559266.15748  20566927.742    20566932.6424
 00  1 23  3 13 30.0000000  0  6 24 17 06 10 05 30
  22755471.644   -13757837.619 8 -10698569.71946  22755471.465    22755478.1304
  23557726.235   -10772903.835 8  -8374783.02946  23557725.636    23557733.8124
  21365015.099   -22595311.049 9 -17592169.40247  21365014.898    21365020.6514
  20753021.923   -26277276.576 9 -20453761.61747  20753021.082    20753026.9584
  21570959.642   -19843447.573 9 -15253345.82747  21570959.086    21570965.1144
  20569273.857   -23832160.982 9 -18549658.43348  20569274.018    20569278.9204
 00  1 23  3 14  0.0000000  0  6 24 17 06 10 05 30
  22769879.758   -13682122.562 8 -10639571.00046  22769879.581    22769886.2054
  23543388.218   -10848249.915 8  -8433494.12546  23543387.712    23543395.7994
  21354615.193   -22649962.848 9 -17634755.18147  21354615.008    21354620.7254
  20754261.956   -26270760.137 9 -20448683.84847  20754261.114    20754266.9564
  21586502.967   -19761767.416 9 -15189698.96347  21586502.335    21586508.3764
  20571734.965   -23819227.705 9 -18539580.52848  20571735.114    20571740.0304
 00  1 23  3 14 30.0000000  0  6 24 17 06 10 05 30
  22784296.888   -13606359.992 8 -10580535.21346  22784296.730    22784303.3284
  23529089.116   -10923391.656 8  -8492045.99246  23529088.601    23529096.6144
  21344243.476   -22704466.545 9 -17677225.54947  21344243.288    21344248.9894
  20755614.103   -26263654.319 9 -20443146.82447  20755613.238    20755619.0704
  21602109.936   -19679752.234 9 -15125791.03647  21602109.311    21602115.3554
  20574309.943   -23805695.801 9 -18529036.15948  20574310.102    20574315.0504
 00  1 23  3 15  0.0000000  0  6 24 17 06 10 05 30
  22798720.719   -13530562.173 8 -10521471.95446  22798720.534    22798727.1094
  23514830.510   -10998320.769 8  -8550432.19146  23514829.972    23514837.9254
  21333896.784   -22758838.765 9 -17719593.47747  21333896.581    21333902.2784
  20757078.455   -26255959.043 9 -20437150.48347  20757077.594    20757083.4024
  21617776.871   -19597422.061 9 -15061637.67147  21617776.225    21617782.3014
  20576995.425   -23791583.571 9 -18518039.59948  20576995.582    20577000.5094
 00  1 23  3 15 30.0000000  0  6 24 17 06 10 05 30
  22813148.357   -13454744.445 8 -10462393.18246  22813148.166    22813154.6954
  23500608.440   -11073057.490 8  -8608668.47446  23500607.907    23500615.8224
  21323573.254   -22813088.808 9 -17761866.20347  21323573.078    21323578.7494
  20758653.994   -26247679.578 9 -20430698.92647  20758653.133    20758658.9394
  21633501.626   -19514787.782 9 -14997247.33647  21633500.999    21633507.0954
  20579789.107   -23776902.707 9 -18506599.94448  20579789.258    20579794.1564
 00  1 23  3 16  0.0000000  0  6 24 17 06 10 05 30
  22827579.669   -13378907.705 8 -10403299.61546  22827579.405    22827585.9344
  23486421.510   -11147610.006 8  -8666761.22046  23486420.910    23486428.8154
  21313271.220   -22867226.315 9 -17804051.23347  21313271.010    21313276.6884
  20760344.330   -26238796.731 9 -20423777.20147  20760343.493    20760349.2934
  21649288.043   -19431829.429 9 -14932604.47747  21649287.430    21649293.5314
  20582694.971   -23761632.384 9 -18494700.97348  20582695.107    20582699.9904
 00  1 23  3 16 30.0000000  0  6 24 17 06 10 05 30
  22842014.220   -13303053.514 8 -10344192.46346  22842013.943    22842020.4934
  23472271.013   -11221970.798 8  -8724704.57646  23472270.455    23472278.3164
  21302989.908   -22921254.734 9 -17846151.26347  21302989.687    21302995.3544
  20762154.949   -26229281.876 9 -20416363.00647  20762154.080    20762159.8814
  21665141.683   -19348517.834 9 -14867686.36247  21665141.085    21665147.2214
  20585714.040   -23745766.921 9 -18482338.25848  20585714.197    20585719.0654
 00  1 23  3 17  0.0000000  0  6 24 17 06 10 05 30
  22856451.770   -13227183.499 8 -10285072.97946  22856451.537    22856458.0224
  23458156.742   -11296141.500 8  -8782499.80946  23458156.176    23458163.9984
  21292735.109   -22975143.986 9 -17888142.85247  21292734.896    21292740.5704
  20764086.097   -26219133.505 9 -20408455.16347  20764085.233    20764091.0374
  21681067.907   -19264824.990 9 -14802471.17347  21681067.309    21681073.4474
  20588848.134   -23729297.160 9 -18469504.66548  20588848.277    20588853.1324
 00  1 23  3 17 30.0000000  0  6 24 17 06 10 05 30
  22870894.051   -13151288.645 8 -10225934.12546  22870893.860    22870900.3804
  23444079.128   -11370119.283 8  -8840144.72346  23444078.522    23444086.3184
  21282512.156   -23028865.694 9 -17930003.88347  21282511.944    21282517.5984
  20766137.548   -26208352.920 9 -20400054.68147  20766136.683    20766142.4854
  21697067.782   -19180744.997 9 -14736954.30747  21697067.183    21697073.3724
  20592099.110   -23712212.964 9 -18456192.28748  20592099.246    20592104.0984
 00  1 23  3 18  0.0000000  0  6 24 17 06 10 05 30
  22885341.450   -13075366.778 8 -10166774.23146  22885341.238    22885347.7904
  23430041.711   -11443885.488 8  -8897624.78146  23430041.170    23430048.9484
  21272324.590   -23082401.498 9 -17971720.06047  21272324.386    21272330.0444
  20768310.267   -26196935.081 9 -20391157.64447  20768309.419    20768315.2294
  21713139.769   -19096286.041 9 -14671142.15847  21713139.167    21713145.3804
  20595466.858   -23694515.361 9 -18442401.93848  20595467.005    20595471.8324
 00  1 23  3 18 30.0000000  0  6 24 17 06 10 05 30
  22899793.591   -12999420.063 8 -10107594.97946  22899793.393    22899799.9744
  23416046.218   -11517431.634 8  -8954933.34846  23416045.689    23416053.4874
  21262175.609   -23135734.668 9 -18013278.33547  21262175.392    21262181.0484
  20770603.778   -26184882.521 9 -20381766.01647  20770602.931    20770608.7574
  21729281.519   -19011460.605 9 -14605044.43147  21729280.922    21729287.1424
  20598947.962   -23676221.929 9 -18428147.30148  20598948.115    20598952.9484
 00  1 23  3 19  0.0000000  0  6 24 17 06 10 05 30
  22914249.131   -12923455.504 8 -10048401.82846  22914248.965    22914255.5474
  23402093.661   -11590752.183 8  -9012066.14046  23402093.098    23402100.9154
  21252066.783   -23188856.849 9 -18054672.20247  21252066.570    21252072.1994
  20773010.397   -26172235.512 9 -20371911.17947  20773009.535    20773015.3724
  21745487.824   -18926296.030 9 -14538682.44047  21745487.232    21745493.4474
  20602538.864   -23657351.627 9 -18413443.15248  20602539.029    20602543.8314
 00  1 23  3 19 30.0000000  0  6 24 17 06 10 05 30
  22928706.984   -12847479.286 8  -9989199.57546  22928706.797    22928713.3444
  23388181.077   -11663862.834 8  -9069035.37446  23388180.510    23388188.2354
  21241993.597   -23241791.763 9 -18095920.14647  21241993.384    21241998.9774
  20775527.075   -26159009.959 9 -20361605.52747  20775526.242    20775532.0714
  21761753.325   -18840820.387 9 -14472078.06147  21761752.712    21761758.9584
  20606236.548   -23637920.080 9 -18398301.67248  20606236.709    20606241.5334
 00  1 23  3 20  0.0000000  0  6 24 17 06 10 05 30
  22943165.272   -12771500.721 8  -9929995.48646  22943165.087    22943171.6134
  23374306.811   -11736772.601 8  -9125848.07346  23374306.214    23374313.8844
  21231950.834   -23294566.843 9 -18137043.54047  21231950.597    21231956.1974
  20778154.494   -26145202.633 9 -20350846.55347  20778153.634    20778159.4724
  21778076.493   -18755041.337 9 -14405237.26047  21778075.912    21778082.1234
  20610040.999   -23617927.492 9 -18382723.02148  20610041.175    20610045.9904
 00  1 23  3 20 30.0000000  0  6 24 17 06 10 05 30
  22957625.269   -12695512.727 8  -9870784.04546  22957625.087    22957631.6714
  23360467.952   -11809496.130 8  -9182515.65146  23360467.336    23360474.9304
  21221935.720   -23347196.228 9 -18178053.40547  21221935.500    21221941.0984
  20780892.056   -26130816.388 9 -20339636.46847  20780891.219    20780897.0364
  21794459.039   -18668950.422 9 -14338153.45047  21794458.450    21794464.6854
  20613952.182   -23597373.997 9 -18366707.29748  20613952.338    20613957.1624
 00  1 23  3 21  0.0000000  0  6 24 17 06 10 05 30
  22972085.978   -12619521.385 8  -9811569.99946  22972085.756    22972092.3534
  23346663.470   -11882038.705 8  -9239042.23146  23346662.842    23346670.4474
  21211947.596   -23399683.946 9 -18218952.88247  21211947.365    21211952.9654
  20783740.562   -26115847.374 9 -20327972.27647  20783739.717    20783745.5374
  21810899.924   -18582553.165 8 -14270830.93247  21810899.319    21810905.5844
  20617973.068   -23576243.911 9 -18350242.27748  20617973.234    20617978.0764
 00  1 23  3 21 30.0000000  0  6 24 17 06 10 05 30
  22986550.695   -12543508.423 8  -9752339.12446  22986550.502    22986557.0984
  23332892.740   -11954403.979 8  -9295430.64946  23332892.145    23332899.7294
  21201988.725   -23452018.084 9 -18259732.69147  21201988.479    21201994.0954
  20786706.892   -26100258.926 9 -20315825.40947  20786706.063    20786711.8684
  21827401.042   -18495839.013 9 -14203261.48047  21827400.455    21827406.7524
  20622108.065   -23554514.150 9 -18333309.98348  20622108.252    20622113.0734
 00  1 23  3 22  0.0000000  0  6 24 17 06 10 05 30
  23001023.137   -12467454.945 8  -9693076.68246  23001022.913    23001029.6004
  23319158.351   -12026578.076 8  -9351670.09946  23319157.773    23319165.3924
  21192064.952   -23504167.694 9 -18300368.71247  21192064.709    21192070.3074
  20789793.097   -26084040.928 9 -20303187.98447  20789792.236    20789798.0694
  21843964.880   -18408795.312 8 -14135435.23847  21843964.318    21843970.6484
  20626359.345   -23532173.594 9 -18315901.74248  20626359.508    20626364.3514
 00  1 23  3 22 30.0000000  0  6 24 17 06 10 05 30
  23015503.902   -12391357.896 8  -9633780.28446  23015503.688    23015510.3854
  23305461.298   -12098556.386 8  -9407756.99246  23305460.716    23305468.2864
  21182178.434   -23556121.372 9 -18340852.05947  21182178.203    21182183.8124
  20792997.628   -26067200.948 9 -20290065.89747  20792996.758    20793002.5824
  21860592.685   -18321415.769 9 -14067347.30747  21860592.077    21860598.4344
  20630726.217   -23509225.589 9 -18298020.17048  20630726.365    20630731.2184
 00  1 23  3 23  0.0000000  0  6 24 17 06 10 05 30
  23029991.628   -12315224.518 8  -9574455.60646  23029991.419    23029998.0834
  23291802.621   -12170332.806 8  -9463686.58446  23291802.001    23291809.5774
  21172330.523   -23607872.337 9 -18381177.45547  21172330.301    21172335.8884
  20796320.026   -26049741.274 9 -20276460.93547  20796319.178    20796324.9864
  21877282.852   -18233708.431 8 -13999003.95047  21877282.263    21877288.6384
  20635208.772   -23485669.629 9 -18279664.86348  20635208.912    20635213.7514
 00  1 23  3 23 30.0000000  0  6 24 17 06 10 05 30
  23044487.613   -12239047.766 8  -9515097.08746  23044487.433    23044494.0784
  23278182.090   -12241909.032 8  -9519460.17446  23278181.461    23278188.9724
  21162520.146   -23659426.153 9 -18421349.22447  21162519.922    21162525.4884
  20799758.319   -26031672.878 9 -20262381.64847  20799757.458    20799763.2354
  21894035.752   -18145671.462 8 -13930403.73247  21894035.155    21894041.5254
  20639806.032   -23461510.897 9 -18260839.86548  20639806.179    20639810.9774
 00  1 23  3 24  0.0000000  0  6 24 17 06 10 05 30
  23058988.226   -12162846.857 8  -9455719.76546  23058988.025    23058994.5034
  23264599.787   -12313284.156 8  -9575077.06846  23264599.183    23264606.5834
  21152743.789   -23710801.168 9 -18461381.66447  21152743.570    21152749.1104
  20803311.243   -26013002.021 9 -20247832.91847  20803310.408    20803316.1354
  21910851.063   -18057306.556 8 -13861547.98547  21910850.474    21910856.8224
  20644516.755   -23436755.812 9 -18241550.17848  20644516.898    20644521.6874
 00  1 23  3 24 30.0000000  0  6 24 17 06 10 05 30
  23073491.175   -12086633.286 8  -9396332.58046  23073490.974    23073497.4244
  23251055.215   -12384461.046 8  -9630539.48846  23251054.580    23251061.9594
  21142999.152   -23762009.560 9 -18501284.27147  21142998.946    21143004.4444
  20806981.225   -25993716.371 9 -20232805.12347  20806980.367    20806986.0834
  21927728.769   -17968613.685 8 -13792436.68047  21927728.180    21927734.5234
  20649341.581   -23411401.049 9 -18221793.21248  20649341.728    20649346.5174
 00  1 23  3 25  0.0000000  0  6 24 17 06 10 05 30
  23087998.734   -12010395.740 8  -9336926.70646  23087998.531    23088004.9824
  23237548.962   -12455436.215 8  -9685844.73346  23237548.340    23237555.7454
  21133290.073   -23813030.839 9 -18541041.07647  21133289.848    21133295.3404
  20810771.663   -25973797.479 9 -20217283.89647  20810770.803    20810776.4974
  21944667.178   -17879601.912 8 -13723076.87747  21944666.573    21944672.9204
  20654280.674   -23385445.778 9 -18201568.31948  20654280.829    20654285.6534
 00  1 23  3 25 30.0000000  0  6 24 17 06 10 05 30
  23102513.447   -11934120.642 8  -9277491.56646  23102513.213    23102519.6464
  23224080.886   -12526211.079 8  -9740993.89646  23224080.263    23224087.6824
  21123616.443   -23863866.172 9 -18580652.99047  21123616.235    21123621.6784
  20814683.019   -25953243.104 9 -20201267.48647  20814682.165    20814687.8754
  21961666.614   -17790269.328 8 -13653467.09547  21961666.045    21961672.3764
  20659333.836   -23358891.183 9 -18180876.42148  20659333.991    20659338.7874
 00  1 23  3 26  0.0000000  0  6 24 17 06 10 05 30
  23117034.812   -11857810.415 8  -9218029.04746  23117034.560    23117040.9784
  23210651.294   -12596783.889 8  -9795985.61046  23210650.681    23210658.0564
  21113978.772   -23914512.514 9 -18620117.63647  21113978.567    21113983.9614
  20818714.620   -25932056.747 9 -20184758.61747  20818713.774    20818719.5024
  21978725.729   -17700623.166 8 -13583612.96247  21978725.175    21978731.5114
  20664499.254   -23331746.633 9 -18159724.81248  20664499.385    20664504.1824
 00  1 23  3 26 30.0000000  0  6 24 17 06 10 05 30
  23131562.247   -11781467.775 8  -9158541.28046  23131562.013    23131568.5494
  23197261.080   -12667149.650 8  -9850815.98946  23197260.451    23197267.8364
  21104377.995   -23964964.897 9 -18659431.14847  21104377.753    21104383.1254
  20822862.388   -25910260.065 9 -20167774.17847  20822861.543    20822867.2664
  21995841.422   -17610679.727 8 -13513527.19547  21995840.836    21995847.1554
  20669774.912   -23304022.758 9 -18138121.79148  20669775.082    20669779.8594
 00  1 23  3 27  0.0000000  0  6 24 17 06 10 05 30
  23146094.284   -11705101.491 8  -9099035.13546  23146094.072    23146100.6264
  23183911.001   -12737304.392 8  -9905481.94846  23183910.373    23183917.7374
  21094812.624   -24015230.967 9 -18698599.47947  21094812.385    21094817.7424
  20827120.485   -25887883.593 9 -20150337.95547  20827119.635    20827125.3604
  22013009.405   -17520461.398 8 -13443227.22147  22013008.831    22013015.1504
  20675157.090   -23275739.266 9 -18116082.70348  20675157.246    20675162.0634
 00  1 23  3 27 30.0000000  0  6 24 17 06 10 05 30
  23160624.801   -11628743.067 8  -9039535.04846  23160624.523    23160631.2374
  23170599.910   -12807254.517 8  -9959988.46146  23170599.288    23170606.5584
  21085278.788   -24065331.490 9 -18737638.81547  21085278.536    21085283.8784
  20831481.860   -25864964.200 9 -20132478.67747  20831481.006    20831486.7474
  22030227.347   -17429980.710 8 -13372722.81247  22030226.791    22030233.0704
  20680644.582   -23246902.492 9 -18093612.49048  20680644.737    20680649.5584
 00  1 23  3 28  0.0000000  0  6 24 17 06 10 05 30
  23175148.772   -11552418.737 8  -8980061.51446  23175148.589    23175155.3154
  23157328.074   -12876998.325 8 -10014334.21646  23157327.466    23157334.6294
  21075778.482   -24115255.720 9 -18776540.77747  21075778.232    21075783.5634
  20835945.941   -25841505.003 9 -20114198.76247  20835945.105    20835950.8464
  22047493.806   -17339244.960 8 -13302019.65147  22047493.258    22047499.5204
  20686235.847   -23217520.144 9 -18070717.15148  20686235.997    20686240.8124
 00  1 23  3 28 30.0000000  0  6 24 17 06 10 05 30
  23189666.216   -11476129.484 8  -8920615.36446  23189665.969    23189672.7314
  23144094.312   -12946542.205 8 -10068524.16946  23144093.667    23144100.8484
  21066313.383   -24164995.092 9 -18815298.69747  21066313.115    21066318.4474
  20840513.590   -25817502.017 9 -20095495.11947  20840512.743    20840518.4864
  22064809.982   -17248247.952 8 -13231112.92047  22064809.450    22064815.7054
  20691930.006   -23187597.240 9 -18047400.60548  20691930.155    20691934.9514
 00  1 23  3 29  0.0000000  0  6 24 17 06 10 05 30
  23204179.327   -11399862.515 8  -8861186.56846  23204179.111    23204185.8214
  23130895.070   -13015904.079 8 -10122572.29546  23130894.455    23130901.6214
  21056883.761   -24214547.896 9 -18853911.23947  21056883.523    21056888.8454
  20845187.548   -25792940.102 9 -20076355.95147  20845186.708    20845192.4674
  22082177.729   -17156980.161 8 -13159995.18347  22082177.176    22082183.4004
  20697728.300   -23157126.815 9 -18023657.41548  20697728.451    20697733.2364
 00  1 23  3 29 30.0000000  0  6 24 17 06 10 05 30
  23218688.757   -11323615.161 8  -8801773.05346  23218688.566    23218695.1524
  23117729.620   -13085088.624 8 -10176482.26146  23117728.989    23117736.1454
  21047492.079   -24263901.409 9 -18892368.49147  21047491.825    21047497.1494
  20849971.820   -25767798.474 9 -20056765.06147  20849970.985    20849976.7464
  22099601.404   -17065418.117 8 -13088648.16247  22099600.875    22099607.1014
  20703635.068   -23126086.460 9 -17999470.12948  20703635.232    20703640.0114
 00  1 23  3 30  0.0000000  0  6 24 17 06 10 05 30
  23233200.576   -11247354.902 8  -8742349.42946  23233200.371    23233207.0224
  23104598.709   -13154091.646 8 -10230250.78046  23104598.080    23104605.2154
  21038141.139   -24313040.823 9 -18930658.91347  21038140.898    21038146.2284
  20854872.357   -25742046.014 9 -20036698.20447  20854871.523    20854877.2664
  22117083.352   -16973550.030 8 -13017062.67347  22117082.792    22117089.0164
  20709651.046   -23094472.229 9 -17974835.66848  20709651.207    20709655.9834
 00  1 23  3 30 30.0000000  0  6 24 17 06 10 05 30
  23247717.654   -11171067.303 8  -8682904.55046  23247717.431    23247724.1274
  23091503.473   -13222907.058 8 -10283873.10546  23091502.855    23091510.0114
  21028828.986   -24361976.247 9 -18968790.38747  21028828.745    21028834.0664
  20859889.527   -25715680.698 9 -20016153.79947  20859888.700    20859894.4154
  22134621.972   -16881384.153 8 -12945245.13547  22134621.410    22134627.6274
  20715779.340   -23062267.855 9 -17949741.35648  20715779.494    20715784.2794
 00  1 23  3 31  0.0000000  0  6 24 17 06 10 05 30
  23262238.678   -11094758.625 8  -8623443.22446  23262238.478    23262245.1374
  23078447.799   -13291515.103 8 -10337333.85346  23078447.124    23078454.2294
  21019555.884   -24410706.491 9 -19006761.97947  21019555.664    21019560.9654
  20865023.613   -25688700.944 9 -19995130.60947  20865022.765    20865028.4994
  22152216.153   -16788926.305 8 -12873200.09147  22152215.560    22152221.7754
  20722024.146   -23029451.071 9 -17924169.83748  20722024.301    20722029.0704
 00  1 23  3 31 30.0000000  0  6 24 17 06 10 05 30
  23276763.130   -11018432.231 8  -8563968.11746  23276762.933    23276769.5354
  23065434.577   -13359899.464 8 -10390620.28746  23065433.952    23065441.0474
  21010323.552   -24459222.641 9 -19044566.74047  21010323.326    21010328.6274
  20870273.290   -25661113.738 9 -19973634.08147  20870272.431    20870278.1754
  22169866.132   -16696175.229 8 -12800926.54847  22169865.541    22169871.7634
  20728384.731   -22996026.024 9 -17898124.34748  20728384.868    20728389.6424
 00  1 23  3 32  0.0000000  0  6 24 17 06 10 05 30
  23291292.367   -10942080.418 8  -8504473.22546  23291292.174    23291298.7884
  23052463.532   -13428062.333 8 -10443734.13846  23052462.922    23052470.0124
  21001130.058   -24507534.755 9 -19082212.51247  21001129.810    21001135.1284
  20875637.728   -25632923.385 9 -19951667.56247  20875636.857    20875642.6004
  22187569.288   -16603144.725 8 -12728435.26647  22187568.686    22187574.8954
  20734858.257   -22962007.505 9 -17871616.41348  20734858.396    20734863.1604
 00  1 23  3 32 30.0000000  0  6 24 17 06 10 05 30
  23305822.412   -10865724.140 8  -8444974.82546  23305822.245    23305828.8794
  23039533.710   -13496008.679 8 -10496679.27046  23039533.113    23039540.1304
  20991973.669   -24555651.697 9 -19119706.20347  20991973.439    20991978.7454
  20881113.725   -25604146.978 9 -19929244.37747  20881112.856    20881118.5594
  22205324.494   -16509840.683 8 -12655730.84847  22205323.894    22205330.1184
  20741443.476   -22927401.988 9 -17844651.07948  20741443.617    20741448.4064
 00  1 23  3 33  0.0000000  0  6 24 17 06 10 05 30
  23320353.240   -10789364.421 8  -8385473.75746  23320353.065    23320359.6924
  23026642.525   -13563752.435 8 -10549466.53546  23026641.877    23026648.9194
  20982855.987   -24603565.348 9 -19157041.49047  20982855.771    20982861.0564
  20886700.026   -25574790.587 9 -19906369.25847  20886699.169    20886704.8524
  22223132.863   -16416257.057 8 -12582808.57047  22223132.266    22223138.4994
  20748137.148   -22892226.651 9 -17817241.72748  20748137.263    20748142.0604
 00  1 23  3 33 30.0000000  0  6 24 17 06 10 05 30
  23334884.611   -10713001.586 8  -8325970.23846  23334884.386    23334891.0374
  23013787.346   -13631306.463 8 -10602105.96646  23013786.698    23013793.7254
  20973775.923   -24651281.316 9 -19194222.73648  20973775.707    20973780.9854
  20892397.366   -25544850.826 9 -19883039.56047  20892396.505    20892402.1924
  22240992.292   -16322405.169 8 -12509677.25647  22240991.712    22240997.9484
  20754935.227   -22856502.304 9 -17789404.57848  20754935.377    20754940.1744
 00  1 23  3 34  0.0000000  0  6 24 17 06 10 05 30
  23349414.903   -10636644.261 8  -8266471.00946  23349414.726    23349421.3224
  23000969.914   -13698662.500 8 -10654591.12646  23000969.251    23000976.2324
  20964734.719   -24698793.093 9 -19231244.87848  20964734.506    20964739.7484
  20898206.627   -25514322.492 9 -19859251.23647  20898205.773    20898211.5074
  22258900.048   -16228299.370 8 -12436348.09547  22258899.474    22258905.7614
  20761838.658   -22820224.655 9 -17761136.28748  20761838.808    20761843.5984
 00  1 23  3 34 30.0000000  0  6 24 17 06 10 05 30
  23363941.332   -10560307.523 8  -8206987.82446  23363941.081    23363947.7204
  22988193.336   -13765803.536 8 -10706908.75146  22988192.676    22988199.6424
  20955735.642   -24746083.454 9 -19268094.48648  20955735.416    20955740.6524
  20904125.232   -25483219.795 9 -19835015.35647  20904124.386    20904130.1234
  22276855.138   -16133944.873 8 -12362825.13847  22276854.554    22276860.8604
  20768848.534   -22783387.580 9 -17732432.07548  20768848.685    20768853.4784
 00  1 23  3 35  0.0000000  0  6 24 17 06 10 05 30
  23378464.703   -10483986.545 8  -8147516.94846  23378464.526    23378471.0884
  22975459.217   -13832721.221 8 -10759052.33346  22975458.601    22975465.5544
  20946781.198   -24793139.101 9 -19304761.20148  20946780.985    20946786.1884
  20910153.880   -25451539.108 9 -19810329.09847  20910153.032    20910158.7524
  22294856.281   -16039348.208 8 -12289113.48547  22294855.693    22294862.0394
  20775964.309   -22745993.934 9 -17703294.17648  20775964.469    20775969.2674
 00  1 23  3 35 30.0000000  0  6 24 17 06 10 05 30
  23392983.708   -10407688.884 8  -8088064.23946  23392983.484    23392990.0254
  22962768.230   -13899412.537 8 -10811019.52646  22962767.587    22962774.5674
  20937871.065   -24839961.983 9 -19341246.53848  20937870.854    20937876.0534
  20916292.964   -25419278.090 9 -19785190.63347  20916292.122    20916297.7974
  22312903.114   -15944511.327 8 -12215214.65046  22312902.529    22312908.8844
  20783185.959   -22708044.029 9 -17673722.82648  20783186.120    20783190.9484
 00  1 23  3 36  0.0000000  0  7 24 17 06 13 10 05 30
  23407496.101   -10331425.978 8  -8028638.57646  23407495.907    23407502.3834
  22950116.434   -13965897.907 8 -10862826.25146  22950115.815    22950122.7344
  20929001.992   -24886569.120 9 -19377563.76248  20929001.784    20929006.9754
  24828867.956    -1891610.329 8  -1469795.47944  24828867.892    24828872.6124
  20922537.024   -25386465.390 9 -19759622.28747  20922536.160    20922541.8294
  22330993.326   -15849446.660 8 -12141138.31846  22330992.676    22330999.0934
  20790510.965   -22669550.885 9 -17643728.17348  20790511.109    20790515.9664
 00  1 23  3 36 30.0000000  0  7 24 17 06 13 10 05 30
  23422006.851   -10255171.614 8  -7969219.59446  23422006.682    23422013.1554
  22937502.259   -14032185.678 8 -10914479.00246  22937501.668    22937508.5364
  20920174.411   -24932958.306 9 -19413711.15348  20920174.205    20920179.3814
  24825426.928    -1909693.346 7  -1483886.14745  24825426.944    24825431.2794
  20928888.800   -25353086.478 9 -19733612.73847  20928887.932    20928893.5844
  22349130.322   -15754136.244 8 -12066870.48846  22349129.630    22349136.0654
  20797939.335   -22630514.488 9 -17613310.20748  20797939.466    20797944.3154
 00  1 23  3 37  0.0000000  0  7 24 17 06 13 10 05 30
  23436519.825   -10178905.533 8  -7909791.49346  23436519.645    23436526.0764
  22924925.023   -14098279.568 8 -10965980.68346  22924924.365    22924931.2174
  20911387.577   -24979133.299 9 -19449691.65048  20911387.368    20911392.5464
  24822069.661    -1927336.275 7  -1497633.83645  24822069.788    24822073.9574
  20935354.932   -25319106.644 9 -19707134.94047  20935354.066    20935359.7234
  22367318.594   -15658556.044 8 -11992392.43846  22367317.978    22367324.3994
  20805473.874   -22590920.418 9 -17582457.69048  20805473.980    20805478.8284
 00  1 23  3 37 30.0000000  0  7 24 17 06 13 10 05 30
  23451036.073   -10102622.241 8  -7850349.98746  23451035.855    23451042.3694
  22912384.522   -14164179.789 8 -11017331.45446  22912383.907    22912390.7794
  20902640.141   -25025101.216 9 -19485510.78748  20902639.944    20902645.1264
  24818801.744    -1944509.223 7  -1511015.29045  24818801.772    24818806.2604
  20941935.821   -25284523.949 9 -19680187.37847  20941934.970    20941940.5974
  22385557.846   -15562708.075 8 -11917705.74246  22385557.261    22385563.6834
  20813117.613   -22550752.299 9 -17551157.86148  20813117.738    20813122.5714
 00  1 23  3 38  0.0000000  0  7 24 17 06 13 10 05 30
  23465556.609   -10026316.469 8  -7790890.96446  23465556.403    23465562.8974
  22899881.939   -14229880.846 8 -11068527.03046  22899881.322    22899888.2244
  20893932.423   -25070860.578 9 -19521167.41448  20893932.232    20893937.3914
  24815623.123    -1961212.880 7  -1524031.06645  24815623.291    24815627.8734
  20948627.924   -25249356.460 9 -19652784.13547  20948627.087    20948632.7184
  22403845.855   -15466604.254 8 -11842819.68446  22403845.271    22403851.6694
  20820869.102   -22510017.955 9 -17519416.81948  20820869.222    20820874.0544
 00  1 23  3 38 30.0000000  0  7 24 17 06 13 10 05 30
  23480079.376    -9949999.055 8  -7731422.82746  23480079.180    23480085.5754
  22887416.022   -14295389.306 8 -11119572.53746  22887415.422    22887422.2894
  20885264.540   -25116410.725 9 -19556661.01148  20885264.332    20885269.4964
  24812532.453    -1977454.790 7  -1536687.03545  24812532.620    24812537.2754
  20955430.164   -25213610.427 9 -19624930.07147  20955429.308    20955434.9404
  22422180.622   -15370254.557 8 -11767742.02146  22422180.068    22422186.4614
  20828726.009   -22468729.468 9 -17487243.97548  20828726.143    20828730.9684
 00  1 23  3 39  0.0000000  0  7 24 17 06 13 10 05 30
  23494601.812    -9873682.761 8  -7671955.60246  23494601.615    23494608.1234
  22874987.673   -14360700.875 8 -11170464.62246  22874987.046    22874993.8724
  20876638.393   -25161741.301 9 -19591983.51248  20876638.164    20876643.3454
  24809531.210    -1993226.838 7  -1548976.91045  24809531.528    24809535.9884
  20962339.107   -25177303.729 9 -19596639.12647  20962338.255    20962343.8974
  22440560.473   -15273667.844 8 -11692479.68746  22440559.933    22440566.3284
  20836688.301   -22426887.163 9 -17454639.58448  20836688.461    20836693.2844
 00  1 23  3 39 30.0000000  0  7 24 17 06 13 10 05 30
  23509123.943    -9797368.688 8  -7612490.06746  23509123.782    23509130.1294
  22862596.824   -14425814.895 8 -11221202.76746  22862596.204    22862603.0544
  20868058.240   -25206830.163 9 -19627117.66548  20868058.014    20868063.2104
  24806618.168    -2008533.971 7  -1560904.48245  24806618.327    24806623.2894
  20969349.037   -25140466.185 9 -19567934.53847  20969348.192    20969353.8214
  22458980.577   -15176869.404 8 -11617052.37346  22458980.012    22458986.4934
  20844752.079   -22384511.783 9 -17421619.81248  20844752.248    20844757.0714
 00  1 23  3 40  0.0000000  0  7 24 17 06 13 10 05 30
  23523641.905    -9721076.212 8  -7553041.37746  23523641.702    23523648.1414
  22850242.044   -14490739.303 8 -11271793.16246  22850241.467    22850248.3294
  20859525.988   -25251667.346 9 -19662055.69848  20859525.761    20859530.9784
  24803789.863    -2023394.235 7  -1572483.88145  24803790.023    24803795.6204
  20976460.021   -25103097.672 9 -19538816.19947  20976459.180    20976464.8114
  22477440.335   -15079862.596 8 -11541462.68746  22477439.742    22477446.3134
  20852913.230   -22341624.540 9 -17388201.18148  20852913.389    20852918.2034
 00  1 23  3 40 30.0000000  0  7 24 17 06 13 10 05 30
  23538153.922    -9644815.114 8  -7493617.15945  23538153.696    23538160.1294
  22837923.633   -14555473.141 8 -11322235.06046  22837923.005    22837929.8624
  20851042.025   -25296250.883 9 -19696796.08848  20851041.794    20851047.0234
  24801049.688    -2037792.829 7  -1583703.49045  24801049.980    24801055.6724
  20983675.225   -25065181.516 9 -19509271.13647  20983674.365    20983680.0014
  22495940.978   -14982641.159 8 -11465705.76046  22495940.414    22495947.0174
  20861174.814   -22298209.740 9 -17354371.47048  20861174.959    20861179.7884
 00  1 23  3 41  0.0000000  0  7 24 17 06 13 10 05 30
  23552659.927    -9568585.616 8  -7434217.54945  23552659.733    23552666.0694
  22825643.626   -14620005.014 8 -11372519.56746  22825642.986    22825649.8274
  20842608.843   -25340567.545 9 -19731328.52548  20842608.612    20842613.8324
  24798399.757    -2051718.434 7  -1594554.59345  24798400.034    24798405.4664
  20990995.435   -25026713.492 9 -19479296.04347  20990994.587    20991000.2504
  22514482.200   -14885206.398 8 -11389782.60946  22514481.668    22514488.2814
  20869538.114   -22254260.194 9 -17320125.07547  20869538.239    20869543.0794
 00  1 23  3 41 30.0000000  0  7 24 17 06 13 10 05 30
  23567159.768    -9492388.503 8  -7374843.17745  23567159.635    23567165.9454
  22813404.381   -14684322.204 8 -11422636.79846  22813403.769    22813410.6034
  20834224.619   -25384626.736 9 -19765660.33348  20834224.397    20834229.6044
  24795841.054    -2065164.860 7  -1605032.29645  24795841.216    24795846.3054
  20998424.830   -24987671.653 9 -19448873.83047  20998423.964    20998429.6584
  22533064.526   -14787555.989 8 -11313691.41646  22533063.954    22533070.5654
  20878005.442   -22209763.997 9 -17285452.71647  20878005.597    20878010.4094
 00  1 23  3 42  0.0000000  0  7 24 17 06 13 10 05 30
  23581653.862    -9416221.304 8  -7315492.15045  23581653.721    23581660.0234
  22801208.130   -14748413.697 8 -11472578.14446  22801207.522    22801214.3094
  20825885.360   -25428449.810 9 -19799808.15848  20825885.120    20825890.3374
  24793374.691    -2078125.185 7  -1615131.22845  24793374.843    24793379.9754
  21005967.536   -24948034.273 9 -19417987.55547  21005966.692    21005972.4224
  22551690.483   -14689676.009 8 -11237421.33846  22551689.930    22551696.5034
  20886578.858   -22164710.348 9 -17250345.97947  20886579.002    20886583.8244
 00  1 23  3 42 30.0000000  0  7 24 17 06 13 10 05 30
  23596145.669    -9340066.643 8  -7256150.86845  23596145.468    23596151.8664
  22789055.023   -14812278.406 8 -11522342.77746  22789054.466    22789061.1854
  20817590.650   -25472038.716 9 -19833773.50848  20817590.422    20817595.6224
  24790999.748    -2090606.183 7  -1624856.64745  24791000.038    24791004.7194
  21013620.655   -24907816.638 9 -19386649.12647  21013619.814    21013625.5604
  22570359.542   -14591569.971 8 -11160975.11346  22570358.956    22570365.5164
  20895259.429   -22119093.738 9 -17214800.56947  20895259.583    20895264.3574
 00  1 23  3 43  0.0000000  0  7 24 17 06 13 10 05 30
  23610635.301    -9263922.667 8  -7196817.89545  23610635.137    23610641.4694
  22776944.360   -14875920.279 8 -11571933.76146  22776943.770    22776950.4214
  20809340.692   -25515392.559 9 -19867555.69748  20809340.443    20809345.6324
  24788712.928    -2102623.676 7  -1634220.90045  24788713.091    24788718.0384
  21021384.280   -24867018.530 9 -19354858.38747  21021383.419    21021389.1904
  22589069.287   -14493249.739 8 -11084361.97846  22589068.684    22589075.2844
  20904046.380   -22072918.297 9 -17178819.71047  20904046.510    20904051.2824
 00  1 23  3 43 30.0000000  0  7 24 17 06 13 10 05 30
  23625125.292    -9187777.159 8  -7137483.77445  23625125.086    23625131.5964
  22764876.172   -14939338.921 8 -11621350.80446  22764875.585    22764882.1804
  20801133.236   -25558522.946 9 -19901163.76648  20801132.985    20801138.1634
  24786512.540    -2114186.561 7  -1643230.93045  24786512.784    24786517.7484
  21029258.473   -24825639.249 9 -19322614.78647  21029257.628    21029263.3884
  22607821.482   -14394706.349 8 -11007574.95846  22607820.901    22607827.5004
  20912940.114   -22026181.251 9 -17142401.23647  20912940.253    20912945.0494
 00  1 23  3 44  0.0000000  0  8 24 17 06 13 10 26 05 30
  23639615.359    -9111631.278 8  -7078149.30545  23639615.165    23639621.7184
  22752846.632   -15002554.346 8 -11670609.49546  22752846.043    22752852.6064
  20792968.936   -25601426.455 9 -19934595.04348  20792968.697    20792973.8624
  24784395.882    -2125309.098 7  -1651897.81445  24784396.080    24784401.1474
  21037236.531   -24783714.227 9 -19289945.93247  21037235.715    21037241.4904
  24368693.874    -3459379.062 7  -2681963.05545  24368693.954    24368702.1804
  22626613.698   -14295952.735 8 -10930624.13446  22626613.092    22626619.7544
  20921938.545   -21978894.069 9 -17105554.08947  20921938.693    20921943.5234
 00  1 23  3 44 30.0000000  0  8 24 17 06 13 10 26 05 30
  23654106.161    -9035481.184 8  -7018811.61545  23654105.973    23654112.5184
  22740854.157   -15065574.682 8 -11719716.16246  22740853.605    22740860.1584
  20784852.660   -25644077.642 9 -19967829.70348  20784852.416    20784857.5744
  24782364.501    -2135984.539 8  -1660216.30245  24782364.775    24782369.6654
  21045315.661   -24741257.951 9 -19256863.11347  21045314.852    21045320.6454
  24352437.052    -3544808.173 7  -2748531.10345  24352437.189    24352445.5324
  22645446.025   -14196988.505 8 -10853509.18846  22645445.395    22645452.0764
  20931042.205   -21931054.009 9 -17068276.12247  20931042.341    20931047.1904
 00  1 23  3 45  0.0000000  0  8 24 17 06 13 10 26 05 30
  23668599.006    -8959321.575 8  -6959466.46645  23668598.790    23668605.1844
  22728901.845   -15128384.056 8 -11768658.45246  22728901.249    22728907.8324
  20776784.801   -25686474.422 9 -20000866.12648  20776784.571    20776789.7064
  24780423.087    -2146188.288 8  -1668167.26645  24780423.330    24780428.0084
  21053497.783   -24698260.752 9 -19223358.79147  21053496.947    21053502.7244
  24336185.359    -3630212.384 7  -2815079.81545  24336185.359    24336193.5324
  22664320.385   -14097803.176 8 -10776221.95946  22664319.748    22664326.3994
  20940249.886   -21882667.467 9 -17030572.32647  20940250.027    20940254.8614
 00  1 23  3 45 30.0000000  0  8 24 17 06 13 10 26 05 30
  23683091.349    -8883164.109 8  -6900122.97345  23683091.147    23683097.5184
  22716988.261   -15190990.101 8 -11817442.29846  22716987.657    22716994.2724
  20768764.831   -25728619.558 9 -20033706.46248  20768764.584    20768769.7284
  24778570.977    -2155922.700 8  -1675752.49845  24778571.112    24778575.7934
  21061776.477   -24654755.986 9 -19189458.96247  21061775.616    21061781.3764
  24319934.973    -3715608.384 7  -2881622.12745  24319935.019    24319943.2494
  22683234.166   -13998410.580 8 -10698773.22446  22683233.574    22683240.2114
  20949555.884   -21833764.095 9 -16992465.80747  20949556.014    20949560.8434
 00  1 23  3 46  0.0000000  0  8 24 17 06 13 10 26 05 30
  23697577.556    -8807038.429 8  -6840804.30445  23697577.369    23697583.7354
  22705110.810   -15253406.050 8 -11866078.02346  22705110.199    22705116.8474
  20760793.305   -25770510.030 9 -20066348.35948  20760793.082    20760798.2044
  24776808.257    -2165187.191 8  -1682971.56245  24776808.333    24776812.8754
  21070147.908   -24610763.736 9 -19155179.27547  21070147.051    21070152.8164
  24303684.516    -3801004.882 7  -2948164.78445  24303684.599    24303692.7434
  22702183.616   -13898830.518 8 -10621178.41046  22702183.016    22702189.6774
  20958955.816   -21784367.170 9 -16953974.69847  20958955.947    20958960.7624
 00  1 23  3 46 30.0000000  0  8 24 17 06 13 10 26 05 30
  23712053.656    -8730966.385 8  -6781527.39245  23712053.507    23712059.6954
  22693270.382   -15315627.579 8 -11914562.25746  22693269.816    22693276.3754
  20752868.556   -25812154.865 9 -20098798.85048  20752868.318    20752873.4114
  24775133.718    -2173987.545 8  -1689828.98245  24775133.832    24775138.1344
  21078613.713   -24566275.757 9 -19120513.31047  21078612.860    21078618.5794
  24287433.317    -3886405.498 7  -3014710.64545  24287433.510    24287441.4334
  22721169.051   -13799061.745 8 -10543436.53546  22721168.442    22721175.0374
  20968445.708   -21734497.530 9 -16915115.24147  20968445.837    20968450.6484
 00  1 23  3 47  0.0000000  0  8 24 17 06 13 10 26 05 30
  23726516.218    -8654965.093 8  -6722305.63445  23726516.055    23726522.2224
  22681467.703   -15377651.239 8 -11962892.31246  22681467.097    22681473.5764
  20744988.481   -25853564.942 9 -20131066.40948  20744988.224    20744993.3244
  24773544.861    -2182336.279 7  -1696334.47145  24773544.932    24773549.1474
  21087174.960   -24521286.076 9 -19085456.40547  21087174.093    21087179.8194
  24271178.592    -3971824.885 7  -3081271.18445  24271178.692    24271186.6004
  22740190.360   -13699104.471 8 -10465547.78646  22740189.744    22740196.3714
  20978025.941   -21684153.065 9 -16875885.79147  20978026.075    20978030.8984
 00  1 23  3 47 30.0000000  0  8 24 17 06 13 10 26 05 30
  23740965.360    -8579034.281 8  -6663138.78145  23740965.181    23740971.4444
  22669700.931   -15439485.898 8 -12011075.08846  22669700.283    22669706.7304
  20737154.961   -25894730.115 9 -20163143.14148  20737154.707    20737159.8164
  24772043.329    -2190224.802 7  -1702481.34045  24772043.293    24772047.8824
  21095834.407   -24475780.361 9 -19049997.39247  21095833.538    21095839.2454
  24254923.743    -4057244.550 7  -3147831.96245  24254923.717    24254931.5064
  22759248.722   -13598952.198 8 -10387507.09246  22759248.110    22759254.7464
  20987702.234   -21633303.712 9 -16836262.92447  20987702.376    20987707.2074
 00  1 23  3 48  0.0000000  0  8 24 17 06 13 10 26 05 30
  23755404.970    -8503153.390 8  -6604010.84745  23755404.785    23755411.1124
  22657970.903   -15501127.196 8 -12059107.19446  22657970.254    22657976.7134
  20729367.146   -25935655.132 9 -20195032.73848  20729366.888    20729371.9994
  24770633.198    -2197634.101 7  -1708254.80345  24770633.307    24770637.7344
  21104598.574   -24429724.285 9 -19014109.52947  21104597.701    21104603.4264
  24238676.218    -4142624.857 7  -3214361.95145  24238676.294    24238684.1964
  22778348.862   -13498580.156 8 -10309295.15946  22778348.278    22778354.9304
  20997479.730   -21581922.556 9 -16796225.66647  20997479.867    20997484.6884
 00  1 23  3 48 30.0000000  0  8 24 17 06 13 10 26 05 30
  23769842.575    -8427283.072 8  -6544891.15145  23769842.410    23769848.8424
  22646280.467   -15562559.885 8 -12106976.75546  22646279.867    22646286.3824
  20721627.239   -25976328.554 9 -20226726.29148  20721627.006    20721632.0884
  24769317.931    -2204546.487 7  -1713641.06245  24769318.037    24769322.3714
  21113472.016   -24383094.150 9 -18977774.34747  21113471.128    21113476.8344
  24222441.864    -4227936.198 7  -3280838.20645  24222441.743    24222449.9014
  22797491.529   -13397985.020 8 -10230909.37146  22797490.985    22797497.6494
  21007362.335   -21529989.077 9 -16755758.01947  21007362.466    21007367.3114
 00  1 23  3 49  0.0000000  0  8 24 17 06 13 10 26 05 30
  23784278.596    -8351421.590 8  -6485778.31045  23784278.338    23784284.7834
  22634624.707   -15623810.823 8 -12154704.69546  22634624.106    22634630.6164
  20713932.947   -26016762.312 9 -20258233.09148  20713932.713    20713937.8004
  24768095.567    -2210970.146 7  -1718646.51945  24768095.634    24768099.7204
  21122450.116   -24335913.756 9 -18941010.39547  21122449.233    21122454.9294
  24206216.898    -4313199.287 8  -3347276.93345  24206216.925    24206224.7514
  22816668.857   -13297208.168 8 -10152382.00546  22816668.229    22816674.8674
  21017349.482   -21477506.374 9 -16714862.41147  21017349.632    21017354.4504
 00  1 23  3 49 30.0000000  0  8 24 17 06 13 10 26 05 30
  23798719.995    -8275530.933 8  -6426642.78045  23798719.799    23798726.3704
  22623006.389   -15684865.680 8 -12202279.84046  22623005.729    22623012.2124
  20706289.808   -26056927.290 9 -20289530.45148  20706289.564    20706294.6514
  24766970.867    -2216877.790 7  -1723249.82044  24766971.025    24766975.4464
  21131535.216   -24288171.174 9 -18903808.37247  21131534.333    21131540.0054
  24190004.406    -4398396.928 7  -3413664.64845  24190004.379    24190012.0454
  22835880.367   -13196251.527 8 -10073714.53946  22835879.719    22835886.3224
  21027442.431   -21424467.554 9 -16673533.46347  21027442.534    21027447.3814
 00  1 23  3 50  0.0000000  0  8 24 17 06 13 10 26 05 30
  23813166.764    -8199613.289 8  -6367486.17845  23813166.558    23813173.0544
  22611427.860   -15745710.944 8 -12249691.67946  22611427.185    22611433.6364
  20698699.810   -26096812.787 9 -20320610.04148  20698699.548    20698704.6164
  24765940.886    -2222287.529 7  -1727465.19445  24765941.216    24765945.8344
  21140724.255   -24239882.403 9 -18866180.75547  21140723.382    21140729.0404
  24173801.396    -4483543.816 7  -3480012.72945  24173801.236    24173809.1274
  22855122.990   -13095130.996 8  -9994919.36246  22855122.378    22855128.9954
  21037635.865   -21370900.830 9 -16631793.16347  21037635.978    21037640.8084
 00  1 23  3 50 30.0000000  0  8 24 17 06 13 10 26 05 30
  23827614.605    -8123689.261 8  -6308324.66845  23827614.466    23827620.9404
  22599888.951   -15806348.137 8 -12296941.37346  22599888.273    22599894.7194
  20691165.896   -26136403.692 9 -20351460.07348  20691165.654    20691170.6994
  24765004.644    -2227208.553 8  -1731299.77345  24765004.993    24765009.3754
  21150011.077   -24191080.015 9 -18828152.91447  21150010.223    21150015.8404
  24157602.268    -4568670.605 7  -3546345.20245  24157602.090    24157609.9844
  22874392.114   -12993871.496 8  -9916015.89546  22874391.438    22874398.0724
  21047926.926   -21316820.937 9 -16589652.98547  21047927.053    21047931.8954
 00  1 23  3 51  0.0000000  0  8 24 17 06 13 10 26 05 30
  23842059.055    -8047782.889 8  -6249176.88945  23842058.936    23842065.4884
  22588389.280   -15866778.931 8 -12344030.24446  22588388.594    22588395.0514
  20683688.564   -26175697.258 9 -20382078.41648  20683688.301    20683693.3474
  24764161.237    -2231641.449 7  -1734753.95445  24764161.427    24764165.7874
  21159392.964   -24141777.888 9 -18789735.66847  21159392.078    21159397.7044
  24141406.505    -4653779.953 7  -3612664.04945  24141406.362    24141414.2664
  22893690.383   -12892458.083 8  -9836992.50046  22893689.758    22893696.3884
  21058315.651   -21262227.916 9 -16547112.97647  21058315.761    21058320.6004
 00  1 23  3 51 30.0000000  0  8 24 17 06 13 10 26 05 30
  23856497.169    -7971910.385 8  -6190055.46945  23856497.081    23856503.5874
  22576930.551   -15926994.674 8 -12390951.53846  22576929.877    22576936.3444
  20676267.394   -26214695.734 9 -20412466.81348  20676267.138    20676272.1784
  24763410.145    -2235589.967 8  -1737830.74845  24763410.457    24763414.2474
  21168868.163   -24091985.437 9 -18750936.34947  21168867.288    21168872.8894
  24125217.218    -4738854.676 7  -3678955.92845  24125217.061    24125224.8374
  22913020.281   -12790878.774 8  -9757839.83146  22913019.657    22913026.3334
  21068797.359   -21207146.125 9 -16504192.10147  21068797.485    21068802.3204
 00  1 23  3 52  0.0000000  0  8 24 17 06 13 10 26 05 30
  23870922.955    -7896102.626 8  -6130984.53445  23870922.824    23870929.3024
  22565512.722   -15986995.360 8 -12437705.25946  22565512.051    22565518.5154
  20668900.248   -26253410.240 9 -20442633.94048  20668899.988    20668905.0324
  24762749.770    -2239061.617 7  -1740535.95945  24762749.915    24762753.5194
  21178434.201   -24041715.542 9 -18711764.99647  21178433.336    21178438.9214
  24109034.673    -4823893.728 7  -3745220.05045  24109034.603    24109042.1324
  22932381.542   -12689134.728 8  -9678558.79246  22932380.883    22932387.6134
  21079370.560   -21151583.716 9 -16460896.71947  21079370.675    21079375.5124
 00  1 23  3 52 30.0000000  0  9 24 17 06 13 10 23 26 05 30
  23885334.979    -7820366.737 8  -6071969.62045  23885334.816    23885341.4094
  22554131.708   -16046802.681 8 -12484308.29946  22554131.040    22554137.5024
  20661585.741   -26291847.990 9 -20472585.41148  20661585.482    20661590.5364
  24762181.389    -2242047.760 7  -1742862.78945  24762181.520    24762185.6324
  21188091.063   -23990968.468 9 -18672221.81747  21188090.170    21188095.7864
  24593649.098    -4652065.416 7  -3614276.26645  24593648.182    24593657.5314
  24092859.498    -4908894.098 7  -3811453.95645  24092859.361    24092867.2774
  22951773.451   -12587229.703 8  -9599152.31246  22951772.779    22951779.5364
  21090034.913   -21095542.301 9 -16417228.08847  21090035.042    21090039.8744
 00  1 23  3 53  0.0000000  0  9 24 17 06 13 10 23 26 05 30
  23899736.596    -7744685.747 8  -6012997.44645  23899736.457    23899743.0064
  22542787.477   -16106416.783 8 -12530760.79046  22542786.804    22542793.2644
  20654324.450   -26330006.225 9 -20502319.08248  20654324.189    20654329.2504
  24761705.297    -2244547.185 7  -1744810.35545  24761705.508    24761710.2984
  21197842.552   -23939723.850 9 -18632290.94547  21197841.670    21197847.2914
  24573444.380    -4758240.957 7  -3697010.27545  24573443.470    24573452.7114
  24076695.082    -4993838.075 7  -3877643.96445  24076694.941    24076703.0124
  22971196.541   -12485160.486 8  -9519617.89446  22971195.862    22971202.6814
  21100790.064   -21039023.716 9 -16373187.63547  21100790.187    21100794.9884
 00  1 23  3 53 30.0000000  0  9 24 17 06 13 10 23 26 05 30
  23914132.394    -7669035.925 8  -5954049.54845  23914132.270    23914138.7404
  22531483.107   -16165821.399 8 -12577050.04447  22531482.440    22531488.8754
  20647117.488   -26367878.805 9 -20531830.16248  20647117.238    20647122.3034
  24761323.911    -2246552.693 7  -1746373.11545  24761323.921    24761328.7844
  21207692.270   -23887963.212 9 -18591957.97947  21207691.401    21207697.0084
  24553257.779    -4864321.440 7  -3779670.18145  24553256.954    24553266.0674
  24060542.770    -5078718.980 7  -3943784.87645  24060542.543    24060550.5874
  22990648.619   -12382938.882 8  -9439964.73246  22990648.006    22990654.8094
  21111637.085   -20982022.240 9 -16328770.90947  21111637.218    21111642.0284
 00  1 23  3 54  0.0000000  0  9 24 17 06 13 10 23 26 05 30
  23928525.393    -7593400.008 8  -5895112.52445  23928525.247    23928531.8784
  22520215.113   -16225034.854 8 -12623190.33647  22520214.440    22520220.8604
  20639962.804   -26405476.921 9 -20561127.37748  20639962.541    20639967.6064
  24761037.893    -2248056.197 7  -1747544.63845  24761037.862    24761043.1074
  21217642.244   -23835675.847 9 -18551214.57647  21217641.363    21217646.9644
  24533088.528    -4970309.975 7  -3862258.45045  24533087.727    24533096.9094
  24044401.200    -5163543.334 7  -4009881.68745  24044401.008    24044408.8164
  23010127.030   -12280578.982 8  -9360203.81846  23010126.421    23010133.3024
  21122578.683   -20924523.560 9 -16283966.74647  21122578.823    21122583.6684
 00  1 23  3 54 30.0000000  0  9 24 17 06 13 10 23 26 05 30
  23942921.529    -7517747.931 8  -5836162.85945  23942921.391    23942928.0314
  22508982.463   -16284063.000 8 -12669186.23947  22508981.756    22508988.1394
  20632860.002   -26442802.038 9 -20590211.86548  20632859.749    20632864.8024
  24760847.430    -2249055.146 7  -1748322.95145  24760847.542    24760853.0304
  21227694.092   -23782853.065 9 -18510053.97047  21227693.214    21227698.7914
  24512937.387    -5076203.865 7  -3944772.93645  24512936.597    24512945.8764
  24028270.272    -5248311.775 8  -4075934.93245  24028270.144    24028277.9244
  23029632.712   -12178076.069 8  -9280331.45046  23029632.077    23029638.9984
  21133615.414   -20866525.030 9 -16238773.09347  21133615.562    21133620.4304
 00  1 23  3 55  0.0000000  0  9 24 17 06 13 10 23 26 05 30
  23957320.374    -7442081.763 8  -5777202.21245  23957320.281    23957326.8784
  22497788.213   -16342888.989 8 -12715024.61347  22497787.536    22497793.8694
  20625805.366   -26479874.280 9 -20619099.30348  20625805.122    20625810.1604
  24760753.688    -2249549.512 7  -1748708.21045  24760753.726    24760758.9174
  21237845.802   -23729505.488 9 -18468484.42447  21237844.936    21237850.4854
  24492803.152    -5182008.707 7  -4027218.04945  24492802.536    24492811.7554
  24012150.300    -5333022.854 8  -4141943.48245  24012150.185    24012157.8994
  23049165.326   -12075431.774 8  -9200348.92146  23049164.715    23049171.6324
  21144747.149   -20808027.442 9 -16193190.56147  21144747.276    21144752.1454
 00  1 23  3 55 30.0000000  0  9 24 17 06 13 10 23 26 05 30
  23971719.345    -7366415.305 8  -5718241.35145  23971719.084    23971725.7894
  22486631.269   -16401518.917 8 -12760710.21947  22486630.620    22486636.9094
  20618795.577   -26516710.922 9 -20647803.16648  20618795.335    20618800.3754
  24760753.952    -2249545.559 7  -1748705.08045  24760754.159    24760759.3714
  21248094.597   -23675647.602 9 -18426517.24547  21248093.731    21248099.2914
  24472683.515    -5287737.043 7  -4109603.53945  24472683.034    24472692.1404
  23996042.256    -5417671.147 8  -4207903.11845  23996042.196    23996049.8404
  23068723.761   -11972651.806 8  -9120260.68446  23068723.145    23068730.0404
  21155973.838   -20749030.723 9 -16147219.09847  21155973.984    21155978.8364
 00  1 23  3 56  0.0000000  0  9 24 17 06 13 10 23 26 05 30
  23986114.992    -7290764.940 8  -5659293.08745  23986114.679    23986121.5664
  22475509.511   -16459963.766 8 -12806251.61147  22475508.879    22475515.1714
  20611834.051   -26553293.796 9 -20676309.28048  20611833.804    20611838.8464
  24760849.707    -2249041.714 7  -1748312.43445  24760850.149    24760855.2664
  21258438.894   -23621287.882 9 -18384159.01847  21258438.020    21258443.6064
  24452579.050    -5393386.127 7  -4191927.27745  24452578.553    24452587.6424
  23979947.967    -5502247.138 8  -4273806.41045  23979947.878    23979955.4864
  23088309.550   -11869727.739 8  -9040060.15546  23088308.976    23088315.9084
  21167295.729   -20689534.183 9 -16100858.16247  21167295.836    21167300.6454
 00  1 23  3 56 30.0000000  0  9 24 17 06 13 10 23 26 05 30
  24000502.466    -7215159.012 8  -5600379.39045  24000502.148    24000508.9164
  22464425.785   -16518208.705 8 -12851637.22747  22464425.182    22464431.4894
  20604924.160   -26589605.497 9 -20704604.09848  20604923.928    20604928.9744
  24761040.532    -2248042.416 7  -1747533.75945  24761040.739    24761045.4874
  21268876.188   -23566439.574 9 -18341420.08047  21268875.294    21268880.8854
  24432492.395    -5498942.068 8  -4274178.44445  24432491.759    24432500.6504
  23963869.617    -5586738.140 8  -4339643.44445  23963869.598    23963877.3424
  23107925.195   -11766647.397 8  -8959737.86546  23107924.577    23107931.5394
  21178710.789   -20629547.580 9 -16054115.36447  21178710.913    21178715.7314
 00  1 23  3 57  0.0000000  0  9 24 17 06 13 10 23 26 05 30
  24014877.531    -7139617.742 8  -5541516.07345  24014877.326    24014884.0014
  22453381.680   -16576245.754 8 -12896860.84647  22453381.068    22453387.3534
  20598066.511   -26625642.717 9 -20732685.03448  20598066.255    20598071.2964
  24761323.961    -2246550.240 7  -1746370.97745  24761324.184    24761329.1844
  21279406.465   -23511102.752 9 -18298300.47947  21279405.574    21279411.1714
  24412424.519    -5604398.526 8  -4356352.07945  24412423.861    24412432.7124
  23947810.880    -5671127.610 8  -4405401.39645  23947810.806    23947818.4604
  23127567.991   -11663423.864 8  -8879303.98246  23127567.418    23127574.3814
  21190219.445   -20569069.003 9 -16006989.20447  21190219.606    21190224.4514
 00  1 23  3 57 30.0000000  0  9 24 17 06 13 10 23 26 05 30
  24029240.695    -7064138.779 8  -5482701.30045  24029240.473    24029247.1634
  22442376.593   -16634077.620 8 -12941924.58647  22442375.976    22442382.2294
  20591266.738   -26661375.749 9 -20760528.94148  20591266.503    20591271.5214
  24761700.563    -2244571.209 7  -1744828.91745  24761700.780    24761705.2044
  21290032.149   -23455264.254 9 -18254789.96247  21290031.248    21290036.8684
  24392376.206    -5709752.458 8  -4438445.84345  24392375.590    24392384.2814
  23931771.860    -5755413.292 7  -4471078.47745  23931771.699    23931779.3104
  23147236.700   -11560064.744 8  -8798764.46946  23147236.042    23147243.0014
  21201821.444   -20508100.265 9 -15959481.10247  21201821.584    21201826.4234
 00  1 23  3 58  0.0000000  0  9 24 17 06 13 10 23 26 05 30
  24043593.041    -6988716.961 8  -5423931.09545  24043592.817    24043599.5354
  22431414.007   -16691686.412 8 -12986814.51547  22431413.376    22431419.5894
  20584527.507   -26696790.727 9 -20788125.02048  20584527.268    20584532.2774
  24762172.451    -2242093.653 7  -1742898.32245  24762172.605    24762176.8514
  21300755.424   -23398912.887 9 -18210879.81947  21300754.554    21300760.1654
  24372349.618    -5814992.536 8  -4520450.88445  24372348.844    24372357.5504
  23915750.944    -5839602.455 7  -4536680.30645  23915750.761    23915758.5824
  23166932.930   -11456560.812 8  -8718112.10146  23166932.226    23166939.1934
  21213515.541   -20446647.498 9 -15911595.84147  21213515.659    21213520.4994
 00  1 23  3 58 30.0000000  0  9 24 17 06 13 10 23 26 05 30
  24057935.965    -6913344.976 8  -5365199.71545  24057935.667    24057942.3514
  22420495.087   -16749065.557 8 -13031525.48647  22420494.435    22420500.6384
  20577845.416   -26731905.354 9 -20815487.05448  20577845.164    20577850.1614
  24762737.759    -2239122.117 7  -1740582.78545  24762737.904    24762742.3964
  21311576.985   -23342045.365 9 -18166567.47247  21311576.113    21311581.7484
  24352344.317    -5920119.942 8  -4602368.12745  24352343.684    24352352.2254
  23899748.245    -5923696.399 7  -4602207.98845  23899748.039    23899755.9244
  23186655.732   -11352917.018 8  -8637350.74746  23186655.063    23186661.9474
  21225299.143   -20384724.311 9 -15863344.00947  21225299.281    21225304.0884
 00  1 23  3 59  0.0000000  0  9 24 17 06 13 10 23 26 05 30
  24072271.950    -6838009.271 8  -5306496.58045  24072271.663    24072278.1734
  22409619.124   -16806218.951 8 -13076060.55947  22409618.474    22409624.7004
  20571220.014   -26766721.866 9 -20842616.79148  20571219.781    20571224.7454
  24763395.639    -2235667.095 7  -1737890.61045  24763395.826    24763399.5964
  21322496.904   -23284660.557 9 -18121852.04147  21322496.053    21322501.7184
  24332357.078    -6025152.207 8  -4684211.23645  24332356.550    24332364.9774
  23883762.080    -6007703.340 7  -4667667.86845  23883762.036    23883769.6504
  23206400.897   -11249155.772 8  -8556497.86146  23206400.243    23206407.0724
  21237171.505   -20322334.800 9 -15814728.81947  21237171.622    21237176.3954
 00  1 23  3 59 30.0000000  0  9 24 17 06 13 10 23 26 05 30
  24086600.770    -6762710.647 8  -5247822.37245  24086600.493    24086607.1774
  22398784.131   -16863156.716 8 -13120427.60547  22398783.505    22398789.7554
  20564652.972   -26801231.915 9 -20869507.72748  20564652.737    20564657.7064
  24764147.035    -2231718.409 7  -1734813.70445  24764147.269    24764151.4134
  21333512.993   -23226770.641 9 -18076743.02347  21333512.137    21333517.7954
  24312390.516    -6130076.191 8  -4765969.97345  24312389.993    24312398.4314
  23867793.209    -6091619.839 7  -4733057.24345  23867793.132    23867800.9314
  23226169.857   -11145268.976 8  -8475547.14846  23226169.258    23226176.0534
  21249131.756   -20259483.366 9 -15765753.68347  21249131.852    21249136.6254
 00  1 23  4  0  0.0000000  0  9 24 17 06 13 10 23 26 05 30
  24100923.100    -6687446.278 8  -5189174.80245  24100922.828    24100929.4824
  22387986.435   -16919898.459 8 -13164641.90847  22387985.820    22387992.0764
  20558141.953   -26835447.470 9 -20896169.18948  20558141.725    20558146.6874
  24764993.249    -2227271.018 7  -1731348.15245  24764993.491    24764997.5154
  21344620.649   -23168399.556 9 -18031259.06547  21344619.787    21344625.4544
  24292447.967    -6234873.927 8  -4847630.32545  24292447.529    24292455.7724
  23851843.821    -6175433.770 7  -4798366.71745  23851843.912    23851851.5064
  23245962.644   -11041257.162 8  -8394499.01346  23245962.115    23245968.8664
  21261179.330   -20196172.623 9 -15716420.64147  21261179.452    21261184.2354
 00  1 23  4  0 30.0000000  0  9 24 17 06 13 10 23 26 05 30
  24115238.762    -6612216.594 8  -5130554.33745  24115238.558    24115245.3224
  22377225.218   -16976448.635 8 -13208706.93947  22377224.620    22377230.8884
  20551687.790   -26869364.497 9 -20922598.02748  20551687.553    20551692.5024
  24765933.428    -2222330.232 8  -1727498.19445  24765933.730    24765937.6454
  21355817.198   -23109561.286 9 -17985411.07047  21355816.336    21355822.0004
  24272532.009    -6339531.737 7  -4929181.66245  24272531.647    24272539.8354
  23835918.078    -6259124.851 7  -4863580.48845  23835918.008    23835925.5714
  23265777.849   -10937127.795 8  -8313359.29746  23265777.318    23265784.1064
  21273314.139   -20132403.562 9 -15666730.47447  21273314.271    21273319.0854
 00  1 23  4  1  0.0000000  0  9 24 17 06 13 10 23 26 05 30
  24129547.137    -6537026.297 8  -5071964.51445  24129546.952    24129553.7614
  22366498.542   -17032817.749 8 -13252630.87747  22366497.906    22366504.1574
  20545290.764   -26902981.179 9 -20948792.83348  20545290.511    20545295.4774
  24766966.514    -2216901.626 7  -1723268.11945  24766966.756    24766970.5894
  21367098.849   -23050275.865 9 -17939214.64947  21367097.966    21367103.6024
  24252645.607    -6444035.254 7  -5010612.75245  24252645.134    24252653.2184
  23820014.367    -6342699.200 8  -4928703.27745  23820014.267    23820021.8594
  23285614.578   -10832885.318 8  -8232131.43046  23285613.975    23285620.8074
  21285536.609   -20068174.124 9 -15616681.57447  21285536.710    21285541.5444
 00  1 23  4  1 30.0000000  0  9 24 17 06 13 10 23 26 05 30
  24143849.562    -6461865.815 8  -5013397.98145  24143849.401    24143856.2504
  22355805.580   -17089009.413 8 -13296416.54547  22355804.978    22355811.1714
  20538951.989   -26936291.389 9 -20974748.83248  20538951.730    20538956.6964
  24768094.516    -2210974.102 7  -1718649.25645  24768094.575    24768098.7374
  21378463.986   -22990551.773 9 -17892676.40347  21378463.108    21378468.7264
  24232789.757    -6548378.207 7  -5091918.73645  24232789.210    24232797.1124
  23804132.184    -6426160.695 7  -4993738.16445  23804132.093    23804139.5154
  23305475.278   -10728516.796 8  -8150805.34646  23305474.715    23305481.5174
  21297846.503   -20003485.305 9 -15566274.70847  21297846.618    21297851.4584
 00  1 23  4  2  0.0000000  0  9 24 17 06 13 10 23 26 05 30
  24158147.460    -6386730.030 8  -4954850.58145  24158147.322    24158154.2164
  22345148.977   -17145010.142 8 -13340053.43347  22345148.366    22345154.5404
  20532671.157   -26969297.374 9 -21000467.77148  20532670.898    20532675.8604
  24769316.370    -2204552.513 7  -1713645.37345  24769316.399    24769320.6834
  21389912.215   -22930390.894 9 -17845797.80047  21389911.333    21389916.9754
  24212959.212    -6652587.639 7  -5173120.67545  24212958.598    24212966.6284
  23788268.027    -6509526.713 8  -5058698.62045  23788267.895    23788275.3324
  23325358.501   -10624030.080 8  -8069387.18246  23325357.890    23325364.7234
  21310240.497   -19938354.569 9 -15515523.49847  21310240.607    21310245.4454
 00  1 23  4  2 30.0000000  0  9 24 17 06 13 10 23 26 05 30
  24172439.574    -6311625.133 7  -4896327.29845  24172439.419    24172446.1624
  22334529.679   -17200814.870 8 -13383537.59647  22334529.037    22334535.2374
  20526449.164   -27001993.895 9 -21025945.57048  20526448.905    20526453.8664
  24770631.862    -2197638.476 7  -1708257.74645  24770631.939    24770636.4704
  21401443.782   -22869792.108 9 -17798577.97947  21401442.919    21401448.5844
  24193147.264    -6756698.343 7  -5254245.67345  24193146.683    24193154.8374
  23772420.572    -6592805.526 8  -5123591.17145  23772420.546    23772427.7384
  23345262.162   -10519436.017 8  -7987885.35646  23345261.522    23345268.3574
  21322717.608   -19872786.817 9 -15464431.76047  21322717.700    21322722.5804
 00  1 23  4  3  0.0000000  0  9 24 17 06 13 10 23 26 05 30
  24186728.911    -6236533.545 8  -4837814.38445  24186728.986    24186735.7524
  22323947.522   -17256424.037 8 -13426869.37447  22323946.913    22323953.1224
  20520287.536   -27034373.355 9 -21051176.31148  20520287.291    20520292.2494
  24772044.714    -2190214.020 7  -1702472.42445  24772044.771    24772049.1954
  21413060.293   -22808747.052 9 -17751010.41747  21413059.407    21413065.0844
  24173350.764    -6860728.968 7  -5335308.28245  24173350.108    24173358.3354
  23756589.864    -6675996.929 8  -5188415.60745  23756589.825    23756596.9584
  23365184.448   -10414743.991 8  -7906307.21446  23365183.780    23365190.6304
  21335279.164   -19806775.345 9 -15412994.25347  21335279.263    21335284.1694
 00  1 23  4  3 30.0000000  0  9 24 17 06 13 10 23 26 05 30
  24201017.150    -6161449.031 8  -4779307.01845  24201016.953    24201023.7634
  22313403.346   -17311834.089 8 -13470045.99747  22313402.703    22313408.9204
  20514187.653   -27066428.415 9 -21076154.27548  20514187.394    20514192.3154
  24773556.695    -2182267.163 7  -1696279.94545  24773556.633    24773561.6534
  21424763.830   -22747244.729 9 -17703086.54347  21424762.915    21424768.5944
  24153568.213    -6964685.963 7  -5416313.51645  24153567.534    24153575.7174
  23740777.507    -6759090.418 8  -5253163.71845  23740777.512    23740784.8504
  23385122.657   -10309968.481 8  -7824664.02646  23385121.917    23385128.8354
  21347922.650   -19740333.497 9 -15361221.39647  21347922.731    21347927.6554
 00  1 23  4  4  0.0000000  0  9 24 17 06 13 10 23 26 05 30
  24215301.154    -6086386.364 8  -4720816.66145  24215300.946    24215307.8384
  22302896.714   -17367046.648 8 -13513068.72647  22302896.086    22302902.2594
  20508147.251   -27098170.948 9 -21100888.71448  20508147.015    20508151.9384
  24775168.517    -2173798.189 7  -1689680.78345  24775168.489    24775173.2074
  21436556.386   -22685274.479 9 -17654798.04747  21436555.472    21436561.1424
  24133801.801    -7068557.945 7  -5497252.52345  24133801.198    24133809.2934
  23724988.710    -6842061.487 8  -5317816.42945  23724988.652    23724995.9724
  23405074.505   -10205120.885 8  -7742964.65446  23405073.814    23405080.7354
  21360649.878   -19673451.120 9 -15309105.27247  21360650.000    21360654.9354
 00  1 23  4  4 30.0000000  0  9 24 17 06 13 10 23 26 05 30
  24229580.742    -6011347.037 7  -4662344.45145  24229580.481    24229587.2774
  22292425.901   -17422071.081 8 -13555944.86747  22292425.265    22292431.4454
  20502165.633   -27129604.760 9 -21125382.58948  20502165.396    20502170.2944
  24776879.480    -2164804.490 7  -1682672.61445  24776879.313    24776884.5234
  21448440.838   -22622821.239 9 -17606133.20547  21448439.924    21448445.5894
  24114057.598    -7172313.408 7  -5578100.74645  24114056.936    24114065.0674
  23709227.311    -6924888.698 8  -5382357.07545  23709227.115    23709234.4044
  23425040.288   -10100200.239 8  -7661208.36346  23425039.602    23425046.5624
  21373464.810   -19606108.368 9 -15256630.41247  21373464.918    21373469.8604
